[[{"header":{"parameterUnit":"m.s-1","parameterCategory":1,"la1":30.6,"la2":28.766,"lo1":-90.7593,"lo2":-88.6598,"dy":0.0162,"dx":0.0183,"nx":116,"ny":114,"refTime":"2023-05-08T00:00:00:Z","depth":0,"parameterNumber":2,"parameterNumberName":"U-component_of_WINDS"},"data":[0.0,0.0,0.0,0.0,0.0,0.0,0.0,0.0,0.0,0.0,0.0,0.0,0.0,0.0,0.0,0.0,0.0,0.0,0.0,0.0,0.0,0.0,0.0,0.0,0.0,0.0,0.0,0.0,0.0,0.0,0.0,0.0,0.0,0.0,0.0,0.0,0.0,0.0,0.0,0.0,0.0,0.0,0.0,0.0,0.0,0.0,0.0,0.0,0.0,0.0,0.0,0.0,0.0,0.0,0.0,0.0,0.0,0.0,0.0,0.0,0.0,0.0,0.0,0.0,0.0,0.0,0.0,0.0,0.0,0.0,0.0,0.0,0.0,0.0,0.0,0.0,0.0,0.0,0.0,0.0,0.0,0.0,0.0,0.0,0.0,0.0,0.0,0.0,0.0,0.0,0.0,0.0,0.0,0.0,0.0,0.0,0.0,0.0,0.0,0.0,0.0,0.0,0.0,0.0,0.0,0.0,0.0,0.0,0.0,0.0,0.0,0.0,0.0,0.0,0.0,0.0,0.0,0.0,0.0,0.0,0.0,0.0,0.0,0.0,0.0,0.0,0.0,0.0,0.0,0.0,0.0,0.0,0.0,0.0,0.0,0.0,0.0,0.0,0.0,0.0,0.0,0.0,0.0,0.0,0.0,0.0,0.0,0.0,0.0,0.0,0.0,0.0,0.0,0.0,0.0,0.0,0.0,0.0,0.0,0.0,0.0,0.0,0.0,0.0,0.0,0.0,0.0,0.0,0.0,0.0,0.0,0.0,0.0,0.0,0.0,0.0,0.0,0.0,0.0,0.0,0.0,0.0,0.0,0.0,0.0,0.0,0.0,0.0,0.0,0.0,0.0,0.0,0.0,0.0,0.0,0.0,0.0,0.0,0.0,0.0,0.0,0.0,0.0,0.0,0.0,0.0,0.0,0.0,0.0,0.0,0.0,0.0,0.0,0.0,0.0,0.0,0.0,0.0,0.0,0.0,0.0,0.0,0.0,0.0,0.0,0.0,0.0,0.0,0.0,0.0,0.0,0.0,0.0,0.0,0.0,0.0,0.0,0.0,0.0,0.0,0.0,0.0,0.0,0.0,0.0,0.0,0.0,0.0,0.0,0.0,0.0,0.0,0.0,0.0,0.0,0.0,0.0,0.0,0.0,0.0,0.0,0.0,0.0,0.0,0.0,0.0,0.0,0.0,0.0,0.0,0.0,0.0,0.0,0.0,0.0,0.0,0.0,0.0,0.0,0.0,0.0,0.0,0.0,0.0,0.0,0.0,0.0,0.0,0.0,0.0,0.0,0.0,0.0,0.0,0.0,0.0,0.0,0.0,0.0,0.0,0.0,0.0,0.0,0.0,0.0,0.0,0.0,0.0,0.0,0.0,0.0,0.0,0.0,0.0,0.0,0.0,0.0,0.0,0.0,0.0,0.0,0.0,0.0,0.0,0.0,0.0,0.0,0.0,0.0,0.0,0.0,0.0,0.0,0.0,0.0,0.0,0.0,0.0,0.0,0.0,0.0,0.0,0.0,0.0,0.0,0.0,0.0,0.0,0.0,0.0,0.0,0.0,0.0,0.0,0.0,0.0,0.0,0.0,0.0,0.0,0.0,0.0,0.0,0.0,0.0,0.0,0.0,0.0,0.0,0.0,0.0,0.0,0.0,0.0,0.0,0.0,0.0,0.0,0.0,0.0,0.0,0.0,0.0,0.0,0.0,0.0,0.0,0.0,0.0,0.0,0.0,0.0,0.0,0.0,0.0,0.0,0.0,0.0,0.0,0.0,0.0,0.0,0.0,0.0,0.0,0.0,0.0,0.0,0.0,0.0,0.0,0.0,0.0,0.0,0.0,0.0,0.0,0.0,0.0,0.0,0.0,0.0,0.0,0.0,0.0,0.0,0.0,0.0,0.0,0.0,0.0,0.0,0.0,0.0,0.0,0.0,0.0,0.0,0.0,0.0,0.0,0.0,0.0,0.0,0.0,0.0,0.0,0.0,0.0,0.0,0.0,0.0,0.0,0.0,0.0,0.0,0.0,0.0,0.0,0.0,0.0,0.0,0.0,0.0,0.0,0.0,0.0,0.0,0.0,0.0,0.0,0.0,0.0,0.0,0.0,0.0,0.0,0.0,0.0,0.0,0.0,0.0,0.0,0.0,0.0,0.0,0.0,0.0,0.0,0.0,0.0,0.0,0.0,0.0,0.0,0.0,0.0,0.0,0.0,0.0,0.0,0.0,0.0,0.0,0.0,0.0,0.0,0.0,0.0,0.0,0.0,0.0,0.0,0.0,0.0,0.0,0.0,0.0,0.0,0.0,0.0,0.0,0.0,0.0,0.0,0.0,0.0,0.0,0.0,0.0,0.0,0.0,0.0,0.0,0.0,0.0,0.0,0.0,0.0,0.0,0.0,0.0,0.0,0.0,0.0,0.0,0.0,0.0,0.0,0.0,0.0,0.0,0.0,0.0,0.0,0.0,0.0,0.0,0.0,0.0,0.0,0.0,0.0,0.0,0.0,0.0,0.0,0.0,0.0,0.0,0.0,0.0,0.0,0.0,0.0,0.0,0.0,0.0,0.0,0.0,0.0,0.0,0.0,0.0,0.0,0.0,0.0,0.0,0.0,0.0,0.0,0.0,0.0,0.0,0.0,0.0,0.0,0.0,0.0,0.0,0.0,0.0,0.0,0.0,0.0,0.0,0.0,0.0,0.0,0.0,0.0,0.0,0.0,0.0,0.0,0.0,0.0,0.0,0.0,0.0,0.0,0.0,0.0,0.0,0.0,0.0,0.0,0.0,0.0,0.0,0.0,0.0,0.0,0.0,0.0,0.0,0.0,0.0,0.0,0.0,0.0,0.0,0.0,0.0,0.0,0.0,0.0,0.0,0.0,0.0,0.0,0.0,0.0,0.0,0.0,0.0,0.0,0.0,0.0,0.0,0.0,0.0,0.0,0.0,0.0,0.0,0.0,0.0,0.0,0.0,0.0,0.0,0.0,0.0,0.0,0.0,0.0,0.0,0.0,0.0,0.0,0.0,0.0,0.0,0.0,0.0,0.0,0.0,0.0,0.0,0.0,0.0,0.0,0.0,0.0,0.0,0.0,0.0,0.0,0.0,0.0,0.0,0.0,0.0,0.0,0.0,0.0,0.0,0.0,0.0,0.0,0.0,0.0,0.0,0.0,0.0,0.0,0.0,0.0,0.0,0.0,0.0,0.0,0.0,0.0,0.0,0.0,0.0,0.0,0.0,0.0,0.0,0.0,0.0,0.0,0.0,0.0,0.0,0.0,0.0,0.0,0.0,0.0,0.0,0.0,0.0,0.0,0.0,0.0,0.0,0.0,0.0,0.0,0.0,0.0,0.0,0.0,0.0,0.0,0.0,0.0,0.0,0.0,0.0,0.0,0.0,0.0,0.0,0.0,0.0,0.0,0.0,0.0,0.0,0.0,0.0,0.0,0.0,0.0,0.0,0.0,0.0,0.0,0.0,0.0,0.0,0.0,0.0,0.0,0.0,0.0,0.0,0.0,0.0,0.0,0.0,0.0,0.0,0.0,0.0,0.0,0.0,0.0,0.0,0.0,0.0,0.0,0.0,0.0,0.0,0.0,0.0,0.0,0.0,0.0,0.0,0.0,0.0,0.0,0.0,0.0,0.0,0.0,0.0,0.0,0.0,0.0,0.0,0.0,0.0,0.0,0.0,0.0,0.0,0.0,0.0,0.0,0.0,0.0,0.0,0.0,0.0,0.0,0.0,0.0,0.0,0.0,0.0,0.0,0.0,0.0,0.0,0.0,0.0,0.0,0.0,0.0,0.0,0.0,0.0,0.0,0.0,0.0,0.0,0.0,0.0,0.0,0.0,0.0,0.0,0.0,0.0,0.0,0.0,0.0,0.0,0.0,0.0,0.0,0.0,0.0,0.0,0.0,0.0,0.0,0.0,0.0,0.0,0.0,0.0,0.0,0.0,0.0,0.0,0.0,0.0,0.0,0.0,0.0,0.0,0.0,0.0,0.0,0.0,0.0,0.0,0.0,0.0,0.0,0.0,0.0,0.0,0.0,0.0,0.0,0.0,0.0,0.0,0.0,0.0,0.0,0.0,0.0,0.0,0.0,0.0,0.0,0.0,0.0,0.0,0.0,0.0,0.0,0.0,0.0,0.0,0.0,0.0,0.0,0.0,0.0,0.0,0.0,0.0,0.0,0.0,0.0,0.0,0.0,0.0,0.0,0.0,0.0,0.0,0.0,0.0,0.0,0.0,0.0,0.0,0.0,0.0,0.0,0.0,0.0,0.0,0.0,0.0,0.0,0.0,0.0,0.0,0.0,0.0,0.0,0.0,0.0,0.0,0.0,0.0,0.0,0.0,0.0,0.0,0.0,0.0,0.0,0.0,0.0,0.0,0.0,0.0,0.0,0.0,0.0,0.0,0.0,0.0,0.0,0.0,0.0,0.0,0.0,0.0,0.0,0.0,0.0,0.0,0.0,0.0,0.0,0.0,0.0,0.0,0.0,0.0,0.0,0.0,0.0,0.0,0.0,0.0,0.0,0.0,0.0,0.0,0.0,0.0,0.0,0.0,0.0,0.0,0.0,0.0,0.0,0.0,0.0,0.0,0.0,0.0,0.0,0.0,0.0,0.0,0.0,0.0,0.0,0.0,0.0,0.0,0.0,0.0,0.0,0.0,0.0,0.0,0.0,0.0,0.0,0.0,0.0,0.0,0.0,0.0,0.0,0.0,0.0,0.0,0.0,0.0,0.0,0.0,0.0,0.0,0.0,0.0,0.0,0.0,0.0,0.0,0.0,0.0,0.0,0.0,0.0,0.0,0.0,0.0,0.0,0.0,0.0,0.0,0.0,0.0,0.0,0.0,0.0,0.0,0.0,0.0,0.0,0.0,0.0,0.0,0.0,0.0,0.0,0.0,0.0,0.0,0.0,0.0,0.0,0.0,0.0,0.0,0.0,0.0,0.0,0.0,0.0,0.0,0.0,0.0,0.0,0.0,0.0,0.0,0.0,0.0,0.0,0.0,0.0,0.0,0.0,0.0,0.0,0.0,0.0,0.0,0.0,0.0,0.0,0.0,0.0,0.0,0.0,0.0,0.0,0.0,0.0,0.0,0.0,0.0,0.0,0.0,0.0,0.0,0.0,0.0,0.0,0.0,0.0,0.0,0.0,0.0,0.0,0.0,0.0,0.0,0.0,0.0,0.0,0.0,0.0,0.0,0.0,0.0,0.0,0.0,0.0,0.0,0.0,0.0,0.0,0.0,0.0,0.0,0.0,0.0,0.0,0.0,0.0,0.0,0.0,0.0,0.0,0.0,0.0,0.0,0.0,0.0,0.0,0.0,0.0,0.0,0.0,0.0,0.0,0.0,0.0,0.0,0.0,0.0,0.0,0.0,0.0,0.0,0.0,0.0,0.0,0.0,0.0,0.0,0.0,0.0,0.0,0.0,0.0,0.0,0.0,0.0,0.0,0.0,0.0,0.0,0.0,0.0,0.0,0.0,0.0,0.0,0.0,0.0,0.0,0.0,0.0,0.0,0.0,0.0,0.0,0.0,0.0,0.0,0.0,0.0,0.0,0.0,0.0,0.0,0.0,0.0,0.0,0.0,0.0,0.0,0.0,0.0,0.0,0.0,0.0,0.0,0.0,0.0,0.0,0.0,0.0,0.0,0.0,0.0,0.0,0.0,0.0,0.0,0.0,0.0,0.0,0.0,0.0,0.0,0.0,0.0,0.0,0.0,0.0,0.0,0.0,0.0,0.0,0.0,0.0,0.0,0.0,0.0,0.0,0.0,0.0,0.0,0.0,0.0,0.0,0.0,0.0,0.0,0.0,0.0,0.0,0.0,0.0,0.0,0.0,0.0,0.0,0.0,0.0,0.0,0.0,0.0,0.0,0.0,0.0,0.0,0.0,0.0,0.0,0.0,0.0,0.0,0.0,0.0,0.0,0.0,0.0,0.0,0.0,0.0,0.0,0.0,0.0,0.0,0.0,0.0,0.0,0.0,0.0,0.0,0.0,0.0,0.0,0.0,0.0,0.0,0.0,0.0,0.0,0.0,0.0,0.0,0.0,0.0,0.0,0.0,0.0,0.0,0.0,0.0,0.0,0.0,0.0,0.0,-4.0618,0.0,0.0,0.0,0.0,0.0,0.0,0.0,0.0,0.0,0.0,0.0,0.0,0.0,0.0,0.0,0.0,0.0,0.0,0.0,0.0,0.0,0.0,0.0,0.0,0.0,0.0,0.0,0.0,0.0,0.0,0.0,0.0,0.0,0.0,0.0,0.0,0.0,0.0,0.0,-2.7328,-2.7584,-2.7808,-2.7463,-2.8062,-2.9448,0.0,0.0,0.0,0.0,0.0,0.0,0.0,0.0,0.0,0.0,0.0,0.0,0.0,0.0,0.0,0.0,0.0,0.0,0.0,0.0,0.0,0.0,0.0,0.0,0.0,0.0,0.0,0.0,0.0,0.0,0.0,0.0,0.0,0.0,0.0,0.0,0.0,0.0,0.0,0.0,0.0,0.0,0.0,0.0,0.0,0.0,0.0,0.0,0.0,0.0,0.0,0.0,0.0,0.0,0.0,0.0,0.0,0.0,0.0,0.0,0.0,0.0,0.0,0.0,0.0,0.0,0.0,0.0,0.0,0.0,0.0,-4.1919,0.0,0.0,0.0,0.0,0.0,0.0,0.0,0.0,0.0,0.0,0.0,0.0,0.0,0.0,0.0,0.0,0.0,0.0,0.0,0.0,0.0,0.0,0.0,-2.5783,-2.588,-2.5439,-2.5797,-2.588,0.0,0.0,0.0,0.0,0.0,0.0,0.0,-2.7214,-2.6948,-2.6454,-2.7199,-2.7538,-2.7484,-2.758,-2.8725,-3.066,-2.9885,0.0,0.0,0.0,0.0,0.0,0.0,0.0,0.0,0.0,0.0,0.0,0.0,0.0,0.0,0.0,0.0,0.0,0.0,0.0,0.0,0.0,0.0,0.0,0.0,0.0,0.0,0.0,0.0,0.0,0.0,0.0,0.0,0.0,0.0,0.0,0.0,0.0,0.0,0.0,0.0,0.0,0.0,0.0,0.0,0.0,0.0,0.0,0.0,0.0,0.0,0.0,0.0,0.0,0.0,0.0,0.0,0.0,0.0,0.0,0.0,0.0,0.0,0.0,-4.8336,-4.8644,-4.7625,-4.9255,-4.9026,-4.7219,-4.5309,-4.5025,-4.5743,0.0,0.0,0.0,0.0,0.0,0.0,0.0,0.0,0.0,0.0,0.0,0.0,0.0,0.0,0.0,0.0,0.0,0.0,0.0,0.0,0.0,0.0,-2.5467,-2.5494,-2.5412,-2.5467,-2.5481,-2.5412,0.0,0.0,0.0,0.0,0.0,-2.5701,-2.5701,-2.5869,-2.6242,-2.7831,-2.8888,-2.9458,-2.9915,-3.0612,-3.14,-2.9968,-2.9911,-3.0881,0.0,0.0,0.0,0.0,0.0,0.0,0.0,0.0,0.0,0.0,0.0,0.0,0.0,0.0,0.0,0.0,0.0,0.0,0.0,0.0,0.0,0.0,0.0,0.0,0.0,0.0,0.0,0.0,0.0,0.0,0.0,0.0,0.0,0.0,0.0,0.0,0.0,0.0,0.0,0.0,0.0,-4.6764,-4.7572,0.0,0.0,0.0,0.0,0.0,0.0,0.0,0.0,0.0,0.0,0.0,0.0,0.0,-4.6499,-4.8702,-4.9471,-4.9904,-5.0058,-5.2491,-5.2433,-5.0231,-5.1174,-5.0664,-4.9067,-4.8875,0.0,-4.5894,-4.5691,0.0,0.0,0.0,0.0,0.0,0.0,0.0,0.0,0.0,0.0,0.0,0.0,0.0,0.0,0.0,0.0,0.0,0.0,0.0,0.0,0.0,-2.4695,-2.4926,-2.4629,-2.5463,-2.5638,-2.4668,-2.5295,0.0,0.0,0.0,-2.5398,-2.5398,-2.5701,-2.621,-2.6997,-2.7353,-2.7962,-2.8852,-2.91,-2.9519,-3.0066,-2.9895,-3.0199,-3.0783,-3.0265,0.0,0.0,0.0,0.0,0.0,0.0,0.0,0.0,0.0,0.0,0.0,0.0,0.0,0.0,0.0,0.0,0.0,0.0,0.0,0.0,0.0,0.0,0.0,0.0,0.0,0.0,0.0,0.0,0.0,0.0,0.0,0.0,0.0,0.0,0.0,0.0,0.0,0.0,0.0,-4.6709,-4.8251,-4.7681,-4.77,-4.7113,0.0,0.0,0.0,0.0,0.0,0.0,0.0,0.0,0.0,-4.8759,-4.7644,-4.8221,-5.0779,-5.1183,-5.1875,-5.2837,-5.3972,-5.3664,-5.2125,-5.2472,-5.1722,-5.0135,-5.0188,-4.908,-4.7214,-4.6865,-4.5784,-4.4258,0.0,0.0,0.0,0.0,-4.1953,-4.2617,0.0,0.0,0.0,0.0,0.0,0.0,0.0,0.0,0.0,0.0,0.0,0.0,-2.3308,-2.4199,-2.4675,-2.4431,-2.5569,-2.5695,-2.4305,-2.4972,-2.5001,-2.4041,-2.4538,-2.4809,-2.4809,-2.5614,-2.6472,-2.7317,-2.7179,-2.7507,-2.8323,-2.8461,-2.8762,-2.9151,-2.9814,-3.0345,-3.0697,-3.0152,-2.9874,-2.9725,0.0,0.0,0.0,0.0,0.0,0.0,0.0,0.0,0.0,0.0,0.0,0.0,0.0,0.0,0.0,0.0,0.0,0.0,0.0,0.0,0.0,0.0,0.0,0.0,0.0,0.0,0.0,0.0,0.0,0.0,0.0,0.0,0.0,0.0,0.0,0.0,0.0,-4.8715,-4.9891,-4.8231,-4.9315,-4.9058,0.0,0.0,0.0,0.0,0.0,0.0,-4.7266,-4.7543,-4.8529,-5.0317,-4.974,-5.0433,-5.2538,-5.2769,-5.3318,-5.4164,-5.4607,-5.4126,-5.2876,-5.3106,-5.2164,-5.0366,-5.0366,-4.9572,-4.8203,-4.7686,-4.6732,-4.5486,-4.4359,-4.3782,-4.3613,-4.3689,-4.3848,-4.4121,0.0,0.0,0.0,0.0,0.0,0.0,0.0,0.0,0.0,0.0,0.0,-2.3308,-2.3891,-2.4469,-2.4976,-2.5473,-2.5586,-2.5398,-2.4788,-2.435,-2.3827,-2.3193,-2.3198,-2.3215,-2.3215,-2.4791,-2.5912,-2.6555,-2.8034,-2.88,-2.8863,-2.9453,-2.9729,-2.9754,-2.978,-3.0329,-3.1119,-3.0682,-3.0192,-2.9692,-2.839,0.0,0.0,0.0,0.0,0.0,0.0,0.0,0.0,0.0,0.0,0.0,0.0,0.0,0.0,0.0,0.0,0.0,0.0,0.0,0.0,0.0,0.0,0.0,0.0,0.0,0.0,0.0,0.0,0.0,0.0,0.0,0.0,0.0,0.0,0.0,0.0,0.0,0.0,-5.0815,-5.3353,0.0,0.0,0.0,0.0,-4.8682,-4.8751,-4.9102,-4.979,-4.9839,-5.0815,-5.2942,-5.2972,-5.3395,-5.4357,-5.5126,-5.4741,-5.328,-5.4876,-5.4357,-5.1981,-5.2818,-5.1837,-4.9471,-4.9471,-4.8961,-4.8123,-4.8214,-4.6872,-4.4755,-4.4752,-4.4272,-4.3613,-4.3689,-4.4219,-4.4941,0.0,0.0,0.0,0.0,0.0,0.0,0.0,0.0,-2.3108,-2.3108,-2.2862,-2.2886,-2.3384,-2.366,-2.4013,-2.4523,-2.4945,-2.4818,-2.3909,-2.349,-2.287,-2.1929,-2.1623,-2.1914,-2.2827,-2.37,-2.4712,-2.5899,-2.7241,-2.8057,-2.8397,-2.9356,-2.9792,-2.9817,-3.0168,-3.0301,-3.0292,-3.0132,-2.9725,-2.9162,-2.8469,-2.7866,0.0,0.0,0.0,0.0,0.0,0.0,0.0,0.0,0.0,0.0,0.0,0.0,0.0,0.0,0.0,0.0,0.0,0.0,0.0,0.0,0.0,0.0,0.0,0.0,0.0,0.0,0.0,0.0,0.0,0.0,0.0,0.0,0.0,0.0,0.0,0.0,0.0,-5.1724,-5.3979,0.0,0.0,-5.1444,-5.0864,-5.0173,-5.1324,-5.1928,-5.17,-5.2163,-5.2565,-5.2796,-5.2521,-5.25,-5.2818,-5.3106,-5.3241,-5.3203,-5.2702,-5.201,-5.1106,-5.0298,-4.9413,-4.8567,-4.8567,-4.8086,-4.7336,-4.7377,-4.6893,-4.6068,-4.5628,-4.5287,-4.5089,-4.5199,-4.5502,-4.584,0.0,0.0,0.0,0.0,0.0,0.0,0.0,0.0,-2.3037,-2.2905,-2.2659,-2.2664,-2.3133,-2.3437,-2.3813,-2.4303,-2.4725,-2.4473,-2.3237,-2.2809,-2.2137,-2.104,-2.0883,-2.1453,-2.288,-2.3356,-2.4247,-2.559,-2.657,-2.7142,-2.7345,-2.8247,-2.8615,-2.8497,-2.9374,-2.9569,-2.9236,-2.9624,-2.9453,-2.8863,-2.8677,-2.8234,-2.7751,0.0,0.0,0.0,0.0,0.0,0.0,0.0,0.0,0.0,0.0,0.0,0.0,0.0,0.0,0.0,0.0,0.0,0.0,0.0,0.0,0.0,0.0,0.0,0.0,0.0,0.0,0.0,0.0,0.0,0.0,0.0,0.0,0.0,0.0,0.0,-5.267,-5.2492,-5.5274,-5.6369,-5.4231,-5.4014,-5.3573,-5.2491,-5.3405,-5.3718,-5.3032,-5.3244,-5.3144,-5.2616,-5.2012,-5.1764,-5.1904,-5.1615,-5.1645,-5.1914,-5.1087,-5.0385,-4.9779,-4.8933,-4.824,-4.7702,-4.7702,-4.724,-4.6471,-4.6471,-4.6471,-4.642,-4.5979,-4.5826,-4.5896,-4.6036,-4.5973,-4.5758,0.0,0.0,0.0,0.0,0.0,0.0,0.0,-2.3108,-2.2948,-2.2567,-2.2489,-2.2667,-2.3189,-2.3764,-2.4314,-2.4882,-2.4893,-2.4267,-2.2921,-2.2246,-2.1498,-2.0593,-2.0952,-2.1829,-2.3198,-2.3816,-2.4576,-2.5509,-2.6121,-2.6203,-2.5744,-2.6266,-2.6244,-2.5898,-2.738,-2.8084,-2.8176,-2.9287,-2.9427,-2.8913,-2.8913,-2.8637,-2.8157,0.0,0.0,0.0,0.0,0.0,0.0,0.0,0.0,0.0,0.0,0.0,0.0,0.0,0.0,0.0,0.0,0.0,0.0,0.0,0.0,0.0,0.0,0.0,0.0,0.0,0.0,0.0,0.0,0.0,0.0,0.0,0.0,0.0,-4.7331,-5.1119,-5.3554,-5.3365,-5.751,-5.9152,-5.6061,-5.7079,-5.7317,-5.5739,-5.4858,-5.4227,-5.3796,-5.3032,-5.2585,-5.2507,-5.1706,-5.1431,-5.1798,-5.1029,-5.0183,-4.9375,-5.0192,-4.9702,-4.8086,-4.8913,-4.8394,-4.6846,-4.6846,-4.6374,-4.5594,-4.5594,-4.5594,-4.5612,-4.574,-4.5796,-4.5821,-4.5992,-4.5499,-4.4651,0.0,0.0,0.0,0.0,0.0,0.0,0.0,-2.3108,-2.2948,-2.2567,-2.2235,-2.2132,-2.2259,-2.2131,-2.2209,-2.2707,-2.2167,-2.1637,-2.127,-2.0164,-1.9418,-1.9174,-1.9859,-2.0751,-2.1745,-2.2565,-2.3071,-2.3356,-2.4335,-2.4779,-2.465,-2.5595,-2.6098,-2.6322,-2.6744,-2.7371,-2.8136,-2.8426,-2.8929,-2.9553,-2.9553,-2.9465,-2.934,0.0,0.0,0.0,0.0,0.0,0.0,0.0,0.0,0.0,0.0,0.0,0.0,0.0,0.0,0.0,0.0,0.0,0.0,0.0,0.0,0.0,0.0,0.0,0.0,0.0,0.0,0.0,0.0,0.0,0.0,0.0,0.0,-4.5298,-4.8239,-5.1485,-5.4395,-5.657,-5.8429,-5.9432,-5.91,-5.7905,-5.695,-5.651,-5.5188,-5.4096,-5.3396,-5.2883,-5.2055,-5.0831,-5.0559,-5.0178,-4.9656,-4.9104,-4.8682,-4.8452,-4.8105,-4.7702,-4.7221,-4.6817,-4.6402,-4.5951,-4.5951,-4.5825,-4.5594,-4.5594,-4.5594,-4.5603,-4.5643,-4.5723,-4.5732,-4.5149,-4.4511,-4.3913,0.0,0.0,0.0,0.0,0.0,0.0,0.0,-2.3108,-2.2899,-2.2329,-2.2049,-2.1759,-2.1397,-2.1095,-2.0986,-2.1055,-2.0596,-2.0137,-1.9785,-1.9017,-1.8763,-1.9114,-1.9648,-2.0332,-2.1181,-2.1678,-2.207,-2.2246,-2.2926,-2.3145,-2.2961,-2.3937,-2.4446,-2.4635,-2.5426,-2.6119,-2.6767,-2.7238,-2.8198,-2.941,-2.941,-2.97,-3.0143,-3.0143,-3.0068,-2.9994,-3.0535,-3.137,-3.2147,-3.1653,0.0,0.0,0.0,0.0,0.0,0.0,0.0,0.0,0.0,0.0,0.0,0.0,0.0,0.0,0.0,0.0,0.0,0.0,0.0,0.0,0.0,0.0,0.0,0.0,-4.4976,-4.7361,-5.0016,-5.166,-5.3602,-5.6356,-5.7318,-5.8051,-5.882,-5.7629,-5.6528,-5.5849,-5.462,-5.3408,-5.227,-5.1615,-5.0786,-4.9624,-4.8923,-4.8391,-4.8042,-4.7248,-4.6838,-4.6838,-4.6521,-4.6355,-4.6336,-4.5825,-4.5402,0.0,-4.5056,-4.4863,-4.4547,-4.4547,-4.4547,0.0,0.0,0.0,0.0,0.0,-4.3285,-4.3014,0.0,0.0,0.0,0.0,0.0,0.0,0.0,-2.3108,-2.2811,-2.2026,-2.1909,-2.156,-2.0621,-2.0537,-2.0361,-1.9883,-1.9795,-1.9416,-1.8656,-1.8695,-1.9085,-1.9883,-1.9972,-2.0391,-2.1181,-2.1239,-2.1475,-2.1816,-2.1816,-2.1611,-2.121,-2.197,-2.2217,-2.2024,-2.3748,-2.466,-2.4872,-2.588,-2.7298,-2.8826,-2.8826,-2.9586,-3.0721,-3.0846,-3.1185,-3.1587,-3.165,-3.2309,-3.3074,-3.2879,0.0,0.0,0.0,0.0,0.0,0.0,0.0,0.0,0.0,0.0,0.0,0.0,0.0,0.0,0.0,0.0,0.0,0.0,0.0,0.0,0.0,0.0,0.0,0.0,-4.7496,-4.9627,-5.1758,-5.1437,-5.1887,-5.4409,-5.5235,-5.5857,-5.6616,-5.6593,-5.5904,-5.4381,-5.3445,-5.227,-5.0747,0.0,0.0,0.0,0.0,-4.643,-4.6793,-4.5632,-4.5052,-4.5052,-4.5342,-4.5495,-4.5495,-4.5426,-4.4974,-4.4243,-4.4192,-4.3758,-4.3104,-4.3104,-4.3104,-4.3258,-4.4748,-4.4778,-4.3841,-4.2511,-4.2043,-4.1995,0.0,0.0,0.0,0.0,0.0,0.0,0.0,-2.3108,-2.2811,-2.2026,-2.1909,-2.1431,-2.0169,-2.0039,-1.9873,-1.9443,-1.9092,-1.8773,-1.8617,-1.9241,-1.9699,-1.9902,-2.0557,-2.1015,-2.119,-2.1582,-2.1631,-2.1317,-2.1317,-2.1278,-2.12,-2.1366,-2.1807,-2.2393,-2.2761,-2.3639,-2.483,-2.5041,-2.6329,-2.8238,-2.8238,-2.9464,-3.1336,-3.2252,-3.2667,-3.2847,-3.3257,-3.4394,-3.5464,-3.4123,-3.4834,-3.6074,-3.5107,-3.474,0.0,0.0,0.0,0.0,0.0,0.0,0.0,0.0,0.0,0.0,0.0,0.0,0.0,0.0,0.0,0.0,0.0,0.0,0.0,-4.5284,-4.7073,-4.8697,-5.0287,-4.9898,-5.0949,-5.5087,-5.5086,-5.5044,-5.5914,-5.5304,-5.4473,-5.35,-5.2105,-5.0857,-4.9886,-4.8398,0.0,-4.7445,-4.6133,-4.5466,-4.554,-4.4971,-4.4714,-4.4714,0.0,0.0,-4.4775,-4.4339,-4.4064,-4.3883,-4.3499,-4.3239,-4.3104,-4.3104,-4.3104,-4.3124,-4.3451,-4.3047,-4.2263,-4.2067,-4.159,-4.0913,0.0,0.0,0.0,0.0,0.0,0.0,0.0,-2.3108,-2.288,-2.2288,-2.1812,-2.1118,-2.0012,-1.9522,-1.9102,-1.8682,-1.8607,-1.8783,-1.9212,-1.9883,-2.0342,-2.0527,-2.0956,-2.1093,-2.0908,-2.1113,-2.1113,-2.0898,-2.0898,-2.0898,-2.0908,-2.1093,-2.1582,-2.2207,-2.2422,-2.3034,-2.3963,-2.3963,-2.4914,-2.6479,-2.7075,-2.8437,-3.0315,-3.1992,-3.2993,-3.3596,-3.4424,-3.5604,-3.6694,-3.5818,-3.6396,-3.7245,-3.6447,-3.6079,-3.5841,0.0,0.0,0.0,0.0,0.0,0.0,0.0,0.0,0.0,0.0,0.0,0.0,0.0,0.0,-3.9456,0.0,0.0,-4.4933,-4.6845,-4.8488,-4.983,-5.0557,-5.0016,-5.0546,-5.3195,-5.2776,-5.2576,-5.3381,-5.3333,-5.2753,-5.153,-5.1059,-5.027,-4.9022,-4.7755,-4.7094,-4.7094,-4.5692,-4.4944,-4.4944,-4.4517,-4.429,-4.429,-4.4501,-4.4366,-4.3945,-4.3658,-4.3115,-4.234,-4.223,-4.198,-4.1605,-4.1736,-4.1797,-4.1797,-4.1797,-4.1797,-4.1708,-4.0928,-4.0385,-3.9932,0.0,0.0,0.0,0.0,0.0,0.0,0.0,-2.3198,-2.2948,-2.2567,-2.1901,-2.1141,-2.0243,-1.9371,-1.8631,-1.8047,-1.8442,-1.9017,-1.9746,-2.0439,-2.0947,-2.1181,-2.1278,-2.1152,-2.0742,-2.0644,-2.0605,-2.0605,-2.0605,-2.0644,-2.0703,-2.1064,-2.1473,-2.2021,-2.2606,-2.2949,-2.3091,-2.3343,-2.4092,-2.521,-2.6141,-2.7533,-2.9294,-3.117,-3.2667,-3.3872,-3.4818,-3.5868,-3.6734,-3.6948,-3.7312,-3.7651,-3.7412,-3.7189,-3.6714,-3.5136,-3.5831,0.0,0.0,0.0,0.0,0.0,0.0,0.0,0.0,0.0,-3.803,-3.9341,-4.0056,-4.1025,-4.2934,-4.4934,-4.6825,-4.8524,-4.9859,-5.0788,-5.1168,-5.0439,-5.0164,-5.0887,-5.0403,-5.0241,-5.0823,-5.1376,-5.1142,-4.9794,-5.011,-4.9691,-4.814,-4.7296,-4.6801,-4.6636,-4.5205,-4.447,-4.447,-4.4089,-4.3893,-4.3893,-4.4069,-4.3791,-4.3096,-4.2842,-4.2015,-4.0796,-4.0924,-4.0633,-4.012,-4.0339,-4.0457,-4.0496,-4.0496,-4.0835,-4.1162,-3.9796,-3.9231,-3.9009,0.0,0.0,0.0,0.0,0.0,0.0,0.0,0.0,-2.2948,-2.2567,-2.2412,-2.1999,-2.1141,-2.0277,-1.9291,-1.8115,-1.875,-1.9258,-1.9346,-2.085,-2.1592,-2.121,-2.1611,-2.1611,-2.1132,-2.0771,-2.0605,-2.0605,-2.0605,-2.0771,-2.1122,-2.1171,-2.1629,-2.2484,-2.3535,-2.3674,-2.3178,-2.4168,-2.5252,-2.6307,-2.6431,-2.7794,-2.9786,-3.0518,-3.1788,-3.3257,-3.3859,-3.4474,-3.5152,-3.6166,-3.6543,-3.6757,-3.7626,-3.7585,-3.6937,-3.5596,-3.5031,-3.4741,-3.4179,-3.5286,-3.6971,-3.8586,-3.8631,-3.9185,0.0,0.0,-4.2081,-4.3403,-4.3718,-4.4095,-4.5178,-4.5583,-4.6624,-4.9136,-4.9204,-4.9443,-5.0986,-5.0016,-4.9388,-5.0125,-5.0098,-5.0016,-5.0118,-5.018,-5.0096,-4.9735,-4.9161,-4.8372,-4.7296,-4.6471,-4.5718,-4.4984,-4.4103,-4.3626,-4.3626,-4.3567,-4.3565,-4.3546,-4.2879,-4.2509,-4.2378,-4.1181,-4.0537,-4.0359,-3.9957,-3.9914,-4.0101,-4.0129,-4.0295,-4.0496,-4.0496,-4.0131,-3.9573,-3.9381,-3.8811,-3.8045,0.0,0.0,0.0,0.0,0.0,0.0,0.0,0.0,0.0,-2.2923,-2.245,-2.1997,-2.1646,-2.0817,-1.9897,-1.8831,-1.9569,-1.9948,-1.9676,-2.082,-2.1426,-2.12,-2.1375,-2.1299,-2.0859,-2.0703,-2.0605,-2.0605,-2.083,-2.1055,-2.124,-2.214,-2.2859,-2.3555,-2.4639,-2.5114,-2.5105,-2.5599,-2.6254,-2.7001,-2.7324,-2.8165,-2.9349,-2.9907,-3.0758,-3.1763,-3.2616,-3.3282,0.0,-3.4663,-3.4926,-3.5064,-3.5843,-3.5491,-3.4627,-3.3773,-3.3825,-3.442,-3.5463,-3.6547,-3.7693,0.0,-4.0068,-4.1168,-4.2845,-4.2785,-4.2665,-4.3554,-4.4347,-4.4993,-4.5395,-4.6591,-4.787,0.0,-4.9195,-4.9486,-5.0225,-4.9549,-4.8968,-4.8832,-4.8783,-4.8941,-4.9368,-4.9368,-4.9109,-4.8569,-4.7808,-4.6977,-4.6104,-4.522,-4.4578,-4.425,-4.376,-4.3515,-4.3515,-4.3515,-4.3515,-4.3496,-4.2671,-4.2047,-4.157,-4.0532,-3.9911,-3.9583,-3.9388,-3.9505,-3.9781,-3.9479,-3.9719,-4.02,-3.9365,-3.8834,-3.8546,-3.8546,-3.7988,-3.713,0.0,0.0,0.0,0.0,0.0,0.0,0.0,0.0,0.0,0.0,-2.2919,-2.239,-2.1939,-2.1333,-2.0623,-1.9716,-2.032,-2.0621,-2.0281,-2.0969,-2.15,-2.1765,-2.181,-2.161,-2.1201,-2.1452,-2.143,-2.1011,-2.1686,-2.2127,-2.2259,-2.3562,-2.4382,-2.4884,-2.5974,-2.646,-2.6524,-2.6989,-2.7387,-2.7779,-2.8333,-2.8882,-2.944,-2.9868,-3.008,-3.0269,-3.121,-3.1813,-3.2252,-3.2805,-3.2893,-3.2893,-3.3583,-3.347,-3.2905,-3.2026,-3.248,-3.3681,-3.578,0.0,0.0,-3.9579,-4.1175,-4.2485,-4.286,-4.2935,-4.309,-4.3733,-4.4631,-4.5289,-4.5289,-4.6841,-4.8209,-4.8465,-4.9116,-4.9627,-4.9676,-4.9306,-4.8731,-4.7973,-4.7703,-4.7817,-4.8342,-4.8179,-4.7751,-4.7155,-4.6378,-4.5552,-4.4706,-4.4014,-4.356,-4.3324,-4.3286,-4.3268,-4.3268,-4.3427,-4.3404,-4.3149,-4.2359,-4.1552,-4.0744,-3.9937,-3.9371,-3.8966,-3.8758,-3.896,-3.9418,-3.8793,-3.9029,-3.9633,-3.8618,-3.7974,-3.7642,-3.7642,-3.7103,-3.6288,0.0,0.0,0.0,0.0,0.0,0.0,0.0,0.0,0.0,0.0,0.0,0.0,0.0,-2.1877,-2.1522,-2.0655,-2.094,-2.1174,-2.1152,-2.162,-2.2274,-2.3195,-2.3377,-2.3181,-2.2642,-2.3662,-2.347,-2.1952,-2.3481,-2.4424,-2.4915,-2.5475,-2.5979,-2.6491,-2.7539,-2.747,-2.6588,-2.8181,-2.8857,-2.8916,-2.9523,-3.0073,-3.0528,-3.0555,-2.9878,-2.9013,-2.9654,-2.988,-2.998,-3.0532,-3.0357,-3.0105,-3.116,-3.2227,-3.2767,-3.1135,-3.0958,-3.1795,-3.4042,0.0,-3.7717,-4.0643,-4.1886,-4.2725,-4.3973,-4.4257,-4.4436,-4.5095,-4.5274,-4.5289,-4.5289,-4.5873,-4.6686,-4.7648,-4.8637,-4.9404,-4.9637,-4.9306,-4.8731,-4.7973,-4.7276,-4.6836,0.0,-4.6223,-4.5738,-4.5581,-4.4886,-4.4052,-4.3125,-4.3026,-4.2672,-4.1885,-4.242,-4.2713,-4.2713,-4.3232,-4.3112,-4.2323,-4.1517,-4.0726,-3.99,-3.9111,-3.8726,-3.8667,-3.7893,-3.8145,-3.9051,-3.8262,-3.8293,-3.8842,-3.8794,-3.7944,-3.6731,-3.6731,-3.6231,-3.5538,0.0,0.0,0.0,0.0,0.0,0.0,0.0,0.0,0.0,0.0,0.0,0.0,0.0,0.0,0.0,0.0,-2.1818,-2.1802,-2.1241,-2.1963,-2.2564,-2.2878,-2.329,-2.3415,-2.324,-2.3575,-2.369,-2.3508,-2.4347,-2.5032,-2.5577,-2.6742,-2.7399,-2.7602,-2.874,-2.9236,-2.9246,-2.9803,-3.0866,-3.2028,-3.0832,-3.1067,-3.2058,-3.0607,-2.9591,-2.8863,0.0,-2.8436,-2.821,-2.8762,-2.8574,-2.8323,-2.9415,-2.9767,-2.9741,-2.9553,-3.0352,-3.1744,-3.358,0.0,-3.8385,-4.0891,-4.2602,-4.3778,-4.4212,-4.4317,-4.4257,-4.4032,-4.3643,-4.3384,-4.3384,-4.3898,-4.4548,-4.5344,-4.6645,-4.7826,-4.8558,-4.8685,-4.8357,-4.7301,-4.6955,0.0,0.0,0.0,0.0,-4.4896,-4.3268,-4.2142,-4.1818,-4.1696,-4.1485,-4.1201,-4.1789,-4.2101,-4.2101,-4.2116,-4.196,-4.1687,-4.0743,-3.9882,-3.9074,-3.8267,-3.7915,-3.786,-3.7052,-3.7216,-3.795,-3.6792,-3.7056,-3.807,-3.6834,-3.6387,-3.6383,-3.6034,-3.5372,-3.4718,0.0,0.0,0.0,0.0,0.0,0.0,0.0,0.0,0.0,0.0,0.0,0.0,0.0,0.0,0.0,0.0,0.0,-2.2492,-2.1926,-2.2352,-2.2777,-2.313,-2.3547,-2.3645,-2.3427,-2.399,-2.4152,-2.3931,-2.5295,-2.6268,-2.6868,-2.8572,-2.9491,-2.9744,-3.0481,-3.0979,-3.1343,-3.15,-3.2265,-3.3217,-3.2031,-3.1949,-3.2321,-3.0932,-2.9733,0.0,-2.8365,-2.7716,-2.7077,-2.7394,-2.7281,-2.7178,-2.8059,-2.836,-2.8512,-2.9276,-3.0419,-3.1873,-3.3878,-3.5976,-3.8255,-4.0924,-4.2459,-4.3427,-4.3837,-4.3793,-4.3494,-4.3075,-4.2282,-4.1707,-4.1707,-4.2192,-4.2686,-4.2895,-4.4487,-4.6002,-4.6802,-4.7265,-4.7406,-4.7082,-4.6911,0.0,0.0,0.0,0.0,-4.3819,-4.2422,-4.1356,-4.0832,-4.0673,-4.0607,-4.0607,-4.1178,-4.135,-4.1086,-4.1138,-4.0972,-4.0564,-3.9836,-3.9038,-3.8248,-3.7749,-3.7345,-3.7033,-3.6193,-3.6303,-3.6974,-3.5816,-3.5986,-3.6914,-3.5719,-3.5429,-3.5702,-3.5438,-3.4805,-3.4148,0.0,0.0,0.0,0.0,0.0,0.0,0.0,0.0,0.0,0.0,0.0,0.0,0.0,0.0,0.0,0.0,0.0,0.0,-2.3215,-2.2889,-2.313,-2.4085,-2.4249,-2.407,-2.3511,-2.4917,-2.4975,-2.3535,-2.6358,-2.8093,-2.8777,-3.0657,-3.1888,-3.251,-3.251,-3.2524,-3.2593,-3.3087,-3.3009,-3.2618,-3.3024,-3.253,-3.1571,-3.1522,-3.0315,-2.8628,-2.8599,-2.7773,-2.6631,-2.6584,-2.66,-2.6763,-2.7316,-2.8197,-2.9239,-3.0369,-3.1072,-3.206,-3.4779,-3.6013,-3.7332,-4.059,-4.1489,-4.1848,-4.2936,-4.2707,-4.2306,-4.2306,-4.119,-4.0247,0.0,0.0,-4.1085,-4.0502,-4.2386,-4.4188,-4.4765,-4.5305,-4.6091,0.0,0.0,0.0,0.0,0.0,0.0,-4.2354,0.0,-4.1585,-4.018,-4.0096,-4.0096,-4.0096,-4.0601,-4.051,-3.9766,-4.0281,-4.0018,-3.8994,-3.8763,-3.8255,-3.7488,-3.7459,-3.7037,-3.6274,-3.5339,-3.5463,-3.6229,-3.5316,-3.5153,-3.5479,-3.5435,-3.512,-3.4704,-3.4981,-3.4497,-3.3748,0.0,0.0,0.0,0.0,0.0,0.0,0.0,0.0,0.0,0.0,0.0,0.0,0.0,0.0,0.0,0.0,0.0,0.0,-2.4836,-2.5103,-2.5365,-2.5641,-2.6058,-2.6228,-2.6069,-2.6444,-2.664,-2.6643,-2.7926,-2.8842,-2.9467,-3.0405,-3.0945,-3.1117,-3.1117,-3.1378,-3.1804,-3.192,-3.2577,-3.3435,-3.2395,-3.2243,-3.2605,-3.1847,-3.1021,-3.0181,-2.9975,-2.9425,-2.856,0.0,0.0,0.0,0.0,-3.0218,-3.0896,-3.1599,-3.2202,-3.2915,-3.4038,-3.5678,-3.7418,-3.867,-3.9941,-4.0937,-4.1236,-4.1091,-4.0905,-4.0905,-3.9454,-3.8167,-3.8167,0.0,0.0,-4.0352,-4.2973,0.0,-4.5418,-4.6012,0.0,0.0,0.0,-4.5464,-4.4721,-4.3898,0.0,0.0,-4.1297,-4.0502,-4.013,-4.0096,-4.0096,-4.0096,-4.0229,-3.9954,-3.9221,-3.8619,-3.8111,-3.7699,-3.7967,-3.7821,-3.7256,-3.682,-3.6599,-3.6488,-3.4822,-3.4945,-3.6193,-3.4706,-3.4522,-3.5095,-3.4699,-3.4452,-3.4368,-3.4675,-3.3866,-3.2617,0.0,0.0,0.0,0.0,0.0,0.0,0.0,0.0,0.0,0.0,0.0,0.0,0.0,0.0,0.0,0.0,0.0,0.0,0.0,-2.5839,-2.5852,-2.5852,-2.6127,-2.6292,-2.6292,-2.686,-2.701,-2.6742,-2.8605,-2.9518,-2.9585,-3.0849,-3.1579,-3.1882,-3.1882,-3.2068,-3.2364,-3.2364,-3.2717,0.0,0.0,-3.2129,-3.2368,-3.2091,-3.1559,-3.0993,-3.1135,-3.0788,0.0,0.0,0.0,-3.0244,-3.0783,-3.1499,-3.224,-3.2792,0.0,-3.3922,-3.4474,-3.5538,-3.6728,-3.7524,-3.863,-3.9483,-3.9384,-3.9692,-3.9798,-3.9215,-3.7973,0.0,-3.7,0.0,0.0,0.0,0.0,0.0,-4.4097,-4.4664,-4.4983,0.0,-4.516,0.0,-4.3955,-4.3248,-4.259,0.0,-4.1035,-4.0426,-4.013,-4.0096,-3.996,-3.9639,-3.9622,-3.9114,-3.8024,-3.7355,-3.696,-3.6845,-3.736,-3.7237,-3.6624,-3.6284,-3.5943,-3.5588,0.0,-3.4465,-3.5128,-3.4192,-3.4082,-3.4444,-3.4146,-3.4018,-3.4056,-3.4375,-3.3435,-3.2048,0.0,0.0,0.0,0.0,0.0,0.0,0.0,0.0,0.0,0.0,0.0,0.0,0.0,0.0,0.0,0.0,0.0,0.0,0.0,0.0,-2.5826,-2.5826,-2.5743,-2.5701,-2.5701,-2.6764,-2.6792,-2.5701,-2.8685,-2.99,-2.9448,-3.135,-3.263,-3.3381,-3.3381,-3.3427,-3.3502,-3.3427,-3.3036,-3.2496,-3.2407,-3.2019,-3.1585,0.0,-3.2165,-3.1579,-3.2222,0.0,0.0,0.0,-3.0929,-3.1047,-3.165,-3.2503,-3.3407,-3.396,-3.4399,-3.4806,-3.5345,-3.5445,-3.5671,-3.6759,-3.7432,-3.7755,-3.75,-3.8245,-3.8676,-3.7419,0.0,-3.6357,-3.6357,-3.6926,-3.7464,-3.7644,0.0,-4.0442,-4.2276,-4.2718,-4.3287,-4.4361,-4.4618,-4.4277,-4.3074,-4.2324,-4.1666,-4.1105,-4.0972,-4.0644,-4.0146,-4.0096,-3.9774,-3.9005,-3.8802,-3.8099,-3.6812,-3.6448,-3.6291,-3.6308,-3.6843,-3.665,-3.5849,-3.5788,-3.5261,-3.4422,-3.4229,0.0,-3.3886,-3.383,-3.3807,-3.3807,-3.3807,-3.3807,-3.3829,-3.3938,-3.305,-3.1764,0.0,0.0,0.0,0.0,0.0,0.0,0.0,0.0,0.0,0.0,-2.9208,-2.8943,0.0,0.0,0.0,0.0,0.0,0.0,0.0,0.0,0.0,-2.8057,-2.751,-2.7214,-2.7214,-2.7421,-2.7436,-2.7214,-2.834,-2.9102,-2.9496,-3.0411,-3.1518,-3.2666,-3.2666,-3.3008,-3.3546,-3.2982,-3.2687,-3.2524,-3.192,-3.16,-3.163,-3.2871,0.0,0.0,-3.3558,0.0,0.0,-3.2394,-3.2536,-3.283,-3.3822,-3.4286,-3.455,-3.5056,-3.4956,-3.4806,-3.5345,-3.5169,-3.5022,-3.5646,-3.6145,-3.6312,-3.5712,-3.6331,0.0,0.0,0.0,-3.5669,-3.5669,-3.6626,0.0,-3.8886,0.0,0.0,0.0,0.0,-4.3124,0.0,0.0,0.0,0.0,0.0,0.0,0.0,0.0,-3.9544,-4.007,-4.0096,-3.9774,-3.9005,-3.7828,-3.7066,-3.6795,-3.6084,-3.5739,-3.5739,-3.627,-3.6222,-3.5642,-3.5189,-3.5044,-3.5063,-3.3913,0.0,-3.4259,-3.394,-3.3807,-3.3807,-3.3807,-3.3807,-3.3728,-3.3119,-3.228,-3.1391,0.0,0.0,0.0,0.0,0.0,0.0,0.0,-3.0706,-3.0767,-3.1557,-3.1089,-3.0766,-3.0983,-3.1316,-3.1554,0.0,0.0,0.0,0.0,0.0,0.0,0.0,0.0,0.0,-2.76,-2.8289,0.0,0.0,0.0,-3.0814,-3.1126,0.0,0.0,-3.3077,-3.3077,-3.3278,-3.3582,-3.3261,-3.3119,-3.3097,-3.2708,-3.2551,-3.2646,0.0,0.0,0.0,0.0,0.0,0.0,0.0,-3.3502,-3.3511,-3.4111,-3.45,-3.4826,-3.5332,-3.5307,-3.5219,-3.5818,-3.5567,-3.5094,-3.5082,-3.5232,-3.5062,-3.3902,0.0,0.0,0.0,-3.5011,-3.5504,-3.5504,0.0,0.0,0.0,0.0,0.0,0.0,0.0,0.0,0.0,0.0,0.0,0.0,0.0,0.0,0.0,0.0,-3.9262,-4.0045,-3.9385,-3.8616,-3.7895,-3.6755,-3.618,-3.618,-3.5785,-3.56,-3.56,-3.5854,-3.5854,-3.5588,-3.5328,-3.5232,-3.5186,-3.4144,0.0,-3.4287,-3.3735,-3.3606,-3.3752,-3.3348,-3.3183,-3.3115,-3.2729,-3.1843,-3.0779,0.0,0.0,0.0,0.0,0.0,0.0,0.0,-3.1423,-3.1589,-3.2845,-3.3168,-3.3057,-3.2455,-3.258,-3.2675,0.0,0.0,0.0,0.0,0.0,0.0,0.0,0.0,0.0,0.0,0.0,0.0,0.0,0.0,0.0,0.0,0.0,0.0,0.0,0.0,0.0,-3.4012,-3.3887,-3.3811,0.0,0.0,0.0,0.0,0.0,0.0,0.0,0.0,0.0,0.0,0.0,-3.4241,-3.3927,-3.3729,-3.4073,-3.4605,-3.5157,-3.5408,-3.5621,-3.6267,-3.5968,-3.537,-3.4818,-3.4572,-3.4099,-3.2622,-3.3572,0.0,0.0,-3.4577,-3.5504,-3.5504,0.0,0.0,0.0,0.0,0.0,0.0,0.0,0.0,0.0,0.0,0.0,0.0,0.0,0.0,0.0,0.0,0.0,-4.0045,-3.87,-3.7635,-3.7066,-3.6113,-3.56,-3.56,-3.56,-3.56,-3.56,-3.56,-3.56,-3.5583,-3.543,-3.5163,-3.4774,-3.4153,0.0,0.0,-3.325,-3.3302,-3.3607,-3.2971,-3.2773,-3.2839,-3.2656,-3.1696,-3.0522,0.0,0.0,0.0,0.0,0.0,0.0,0.0,-3.3161,-3.345,-3.4296,-3.4997,-3.5393,-3.5313,-3.417,-3.3152,0.0,0.0,0.0,0.0,0.0,0.0,0.0,0.0,0.0,0.0,0.0,0.0,0.0,0.0,0.0,0.0,0.0,0.0,0.0,0.0,0.0,0.0,0.0,0.0,0.0,0.0,0.0,0.0,0.0,0.0,0.0,0.0,0.0,0.0,0.0,0.0,-3.4566,-3.3286,-3.337,-3.4085,-3.4638,0.0,0.0,-3.6267,-3.5968,-3.537,-3.4818,-3.4247,-3.3529,-3.2527,0.0,0.0,-3.3568,-3.4577,-3.5504,-3.5504,-3.5549,-3.5998,0.0,0.0,-3.8182,0.0,0.0,0.0,0.0,0.0,0.0,0.0,0.0,0.0,0.0,0.0,0.0,-4.0045,-3.87,-3.7872,-3.7804,-3.636,-3.56,-3.56,-3.56,-3.56,-3.56,-3.56,-3.56,-3.5583,-3.4912,-3.4206,-3.3562,-3.324,0.0,0.0,-3.2418,-3.284,-3.3258,-3.3168,-3.3371,-3.3605,-3.2858,-3.2045,-3.1213,0.0,0.0,0.0,0.0,0.0,0.0,-3.3186,-3.3406,-3.4013,-3.5689,-3.6185,-3.6521,-3.6926,-3.6443,-3.561,-3.4465,0.0,0.0,0.0,0.0,0.0,0.0,0.0,0.0,0.0,0.0,0.0,0.0,0.0,0.0,0.0,0.0,0.0,0.0,0.0,0.0,0.0,0.0,0.0,0.0,0.0,0.0,0.0,0.0,0.0,0.0,0.0,0.0,0.0,0.0,0.0,0.0,-3.3024,-3.2733,0.0,0.0,-3.4123,-3.4751,-3.5629,-3.5956,-3.583,-3.4939,-3.3748,-3.2807,-3.2878,0.0,-3.2938,-3.3906,-3.4846,-3.5504,-3.5504,-3.5504,-3.5669,-3.6178,-3.6267,0.0,0.0,0.0,0.0,0.0,0.0,0.0,0.0,0.0,0.0,0.0,0.0,0.0,-3.8674,-3.821,-3.7483,-3.6529,-3.5921,-3.56,-3.56,-3.56,-3.56,-3.56,-3.56,-3.56,-3.5583,-3.5295,-3.4759,-3.4037,-3.3482,0.0,0.0,-3.2195,-3.2349,-3.2757,-3.2556,-3.2567,-3.272,-3.2632,-3.1775,-3.0705,0.0,0.0,0.0,0.0,0.0,-3.1613,-3.2882,-3.3271,-3.4134,-3.618,-3.684,-3.74,-3.8092,-3.8356,-3.7964,-3.6679,-3.5807,0.0,0.0,0.0,0.0,0.0,0.0,0.0,0.0,0.0,-3.1104,-3.3061,-3.3878,0.0,0.0,0.0,0.0,0.0,0.0,0.0,0.0,0.0,0.0,0.0,0.0,0.0,0.0,0.0,0.0,0.0,0.0,0.0,0.0,0.0,0.0,0.0,0.0,0.0,0.0,0.0,-3.3081,-3.3859,-3.4756,-3.5454,-3.5655,-3.4713,-3.3332,-3.2314,0.0,0.0,-3.209,-3.3768,-3.4593,-3.5133,-3.5439,-3.5504,-3.5504,-3.5504,-3.5504,-3.5729,0.0,0.0,0.0,0.0,0.0,0.0,0.0,0.0,0.0,0.0,0.0,0.0,0.0,-3.7195,-3.6841,-3.5971,-3.5718,-3.56,-3.56,-3.56,-3.56,-3.56,-3.538,-3.538,-3.5583,-3.5143,-3.4675,-3.415,0.0,0.0,0.0,-3.2104,-3.2087,-3.2263,-3.2028,-3.2036,-3.2173,-3.2469,-3.1801,-3.0781,0.0,0.0,0.0,0.0,0.0,0.0,-3.2209,-3.2933,-3.3931,-3.5414,-3.6935,-3.8176,-3.892,-3.9631,-3.974,-3.8935,-3.7593,0.0,0.0,0.0,0.0,0.0,0.0,0.0,0.0,0.0,-3.1496,-3.1524,-3.4324,-3.5678,-3.5748,0.0,0.0,0.0,0.0,0.0,0.0,0.0,0.0,0.0,0.0,0.0,0.0,0.0,0.0,0.0,0.0,0.0,0.0,0.0,0.0,0.0,0.0,0.0,-3.123,-3.1381,-3.2202,-3.3206,-3.3771,-3.4324,-3.4613,-3.4048,-3.3056,-3.2162,0.0,0.0,-3.1581,-3.2834,-3.3609,-3.4312,-3.5326,-3.5504,-3.5504,-3.5504,-3.5504,0.0,0.0,0.0,0.0,0.0,0.0,0.0,0.0,0.0,0.0,0.0,0.0,0.0,0.0,-3.5647,-3.6052,-3.6749,-3.6028,-3.56,-3.56,-3.56,-3.56,-3.5583,-3.4861,-3.4895,-3.5549,-3.4078,-3.3423,0.0,0.0,0.0,0.0,-3.1989,-3.2098,-3.1825,-3.1808,-3.2092,-3.2501,-3.25,-3.2277,-3.187,0.0,0.0,0.0,0.0,0.0,0.0,0.0,-3.2933,-3.3931,-3.5414,-3.6935,-3.8176,-3.892,-3.9673,-3.9995,-3.9756,-3.8414,0.0,0.0,0.0,0.0,0.0,0.0,0.0,0.0,0.0,-3.3125,-3.3696,-3.5549,-3.6943,-3.7894,-3.8397,-3.8261,0.0,0.0,0.0,0.0,0.0,0.0,0.0,0.0,0.0,0.0,0.0,0.0,0.0,0.0,0.0,0.0,0.0,0.0,0.0,0.0,0.0,0.0,-3.0481,-3.1072,0.0,-3.2591,-3.3156,-3.3458,-3.2893,-3.1926,-3.1251,-3.1849,0.0,-3.1065,-3.2465,-3.2905,-3.3136,-3.3463,-3.3498,-3.3719,-3.4361,-3.4461,-3.4798,0.0,0.0,0.0,0.0,0.0,0.0,0.0,0.0,0.0,0.0,0.0,0.0,0.0,-3.4852,-3.5222,-3.5967,-3.5293,-3.5138,-3.56,-3.56,-3.5346,-3.4844,-3.5131,-3.4861,-3.4117,-3.4134,0.0,0.0,0.0,0.0,0.0,-3.1444,-3.1492,-3.1411,-3.1696,-3.188,-3.2057,-3.2384,-3.2086,-3.1415,0.0,0.0,0.0,0.0,0.0,0.0,0.0,-3.3152,-3.415,-3.5064,-3.6772,-3.8176,-3.892,-3.9673,-4.0096,-4.0096,-3.9302,0.0,0.0,0.0,0.0,0.0,0.0,0.0,-3.3389,-3.3713,-3.4121,-3.462,-3.6023,-3.7154,-3.8044,-3.8399,-3.8155,-3.7442,-3.7244,0.0,0.0,0.0,0.0,0.0,0.0,0.0,-3.5504,0.0,0.0,0.0,0.0,0.0,0.0,0.0,0.0,0.0,0.0,0.0,0.0,0.0,-3.0269,-3.0909,0.0,-3.2014,-3.2353,-3.1989,-3.126,0.0,0.0,0.0,-3.054,-3.182,-3.2069,-3.2177,-3.2522,-3.2593,-3.2784,-3.338,-3.3774,0.0,0.0,0.0,0.0,0.0,0.0,0.0,0.0,0.0,0.0,0.0,0.0,0.0,0.0,-3.427,-3.4346,-3.4786,-3.4435,-3.4423,-3.484,-3.4808,-3.4571,-3.4125,-3.4278,-3.4032,-3.3406,-3.3305,0.0,0.0,0.0,0.0,0.0,-3.1515,-3.1444,-3.123,-3.1487,-3.1565,-3.1568,-3.1584,-3.155,-3.1301,0.0,0.0,0.0,0.0,0.0,0.0,0.0,-3.3512,-3.4421,-3.4421,-3.6451,-3.8159,-3.8853,-3.9639,-4.0096,-4.0096,0.0,0.0,0.0,0.0,0.0,0.0,0.0,0.0,-3.4761,-3.4653,-3.4563,-3.4503,-3.5906,-3.6615,-3.6615,-3.7427,-3.7409,-3.6722,-3.7411,-3.6586,-3.4712,-3.5336,-3.5575,-3.5564,-3.6245,-3.6117,0.0,0.0,0.0,0.0,0.0,0.0,0.0,0.0,0.0,0.0,0.0,0.0,0.0,0.0,0.0,0.0,0.0,-3.0909,0.0,0.0,0.0,0.0,0.0,0.0,0.0,-3.0932,-3.1106,-3.1365,-3.2249,-3.2393,-3.2429,-3.25,-3.3241,0.0,0.0,0.0,0.0,0.0,0.0,0.0,0.0,0.0,0.0,0.0,0.0,0.0,0.0,-3.3829,-3.3472,-3.336,-3.3418,-3.3505,-3.3582,-3.3486,-3.3435,-3.3416,-3.2667,-3.2675,-3.3288,-3.1901,0.0,0.0,0.0,0.0,0.0,-3.1938,-3.1802,-3.1123,-3.1123,-3.1089,-3.0954,-3.0277,-3.0697,-3.1286,0.0,0.0,0.0,0.0,0.0,0.0,0.0,0.0,0.0,0.0,-3.6146,-3.7973,-3.8142,-3.9334,-4.0096,0.0,0.0,0.0,0.0,0.0,0.0,0.0,0.0,0.0,-3.5463,-3.5324,-3.4996,-3.4503,-3.5906,-3.6615,-3.6615,-3.7427,-3.7409,-3.6722,-3.689,-3.6373,-3.5352,-3.4936,-3.5093,-3.5575,-3.5706,-3.5636,0.0,0.0,0.0,0.0,-3.5504,-3.5504,0.0,0.0,0.0,0.0,0.0,0.0,0.0,0.0,-2.9792,-2.9817,-2.9942,0.0,-3.0168,-3.0168,-3.008,-2.9993,0.0,0.0,0.0,0.0,0.0,0.0,0.0,-3.047,-3.0709,-3.1389,-3.1706,0.0,0.0,0.0,0.0,0.0,0.0,0.0,0.0,0.0,0.0,0.0,0.0,0.0,0.0,-3.3589,-3.3051,-3.1995,-3.1999,-3.2516,-3.3582,-3.3094,-3.2772,-3.2669,-3.2525,-3.2481,-3.2564,-3.2209,0.0,0.0,0.0,0.0,-3.1207,-3.1396,-3.1021,-3.0362,-3.0362,-3.0006,-2.9501,-2.9331,-2.9439,-2.9479,0.0,0.0,0.0,0.0,0.0,0.0,0.0,0.0,0.0,0.0,0.0,0.0,0.0,0.0,0.0,0.0,0.0,0.0,0.0,0.0,0.0,0.0,0.0,-3.652,-3.6114,-3.5704,-3.5325,-3.4951,-3.5729,-3.6086,-3.6117,-3.6538,-3.6521,-3.6133,-3.5526,-3.5386,-3.5543,-3.4467,-3.4634,-3.5549,-3.551,0.0,0.0,0.0,0.0,0.0,-3.5385,-3.5504,0.0,-3.5504,-3.4192,-3.2593,0.0,0.0,0.0,0.0,-2.9792,-2.9792,-2.9792,-2.9792,-2.9792,-2.9792,-2.9792,-2.9792,-2.9792,0.0,0.0,0.0,0.0,0.0,0.0,0.0,0.0,0.0,0.0,0.0,0.0,0.0,0.0,0.0,0.0,0.0,0.0,0.0,0.0,0.0,0.0,0.0,0.0,-3.3215,-3.2587,-3.154,-3.1511,-3.1866,-3.2637,-3.2254,-3.1876,-3.1526,-3.1519,-3.134,-3.0955,-3.0955,-3.112,0.0,0.0,0.0,-3.119,-3.119,-3.0768,-3.0108,-3.0108,-2.9651,-2.8959,-2.8586,-2.867,-2.884,0.0,0.0,0.0,0.0,0.0,0.0,0.0,0.0,0.0,0.0,0.0,0.0,0.0,0.0,0.0,0.0,0.0,0.0,0.0,0.0,0.0,0.0,-3.7579,-3.6838,-3.6767,-3.5958,-3.5504,-3.5504,-3.5504,-3.5504,-3.5504,-3.5504,-3.5504,-3.5444,-3.4203,-3.4364,-3.5502,-3.4212,-3.437,-3.5501,-3.5492,0.0,0.0,0.0,0.0,0.0,0.0,0.0,0.0,-3.5504,-3.4192,-3.2593,-3.2593,0.0,0.0,0.0,0.0,0.0,-2.9792,-2.9854,-2.9892,-2.9817,-2.9792,-2.9792,-2.9792,0.0,0.0,0.0,0.0,0.0,0.0,0.0,0.0,0.0,0.0,0.0,0.0,0.0,0.0,0.0,0.0,0.0,0.0,0.0,0.0,0.0,0.0,0.0,0.0,-3.2961,-3.2288,-3.1525,-3.1511,-3.1511,-3.1511,-3.1348,-3.1008,-3.0515,-3.0345,-3.0027,-2.955,-2.9454,-2.9738,-3.0314,0.0,0.0,-3.0918,-3.1015,-3.0634,-2.9977,-3.007,-2.9567,-2.8721,-2.8043,-2.8163,-2.8468,0.0,0.0,0.0,0.0,0.0,0.0,0.0,0.0,0.0,0.0,0.0,0.0,0.0,0.0,0.0,0.0,0.0,0.0,0.0,0.0,0.0,-3.8935,-3.8092,-3.7636,-3.7632,-3.6227,-3.5504,-3.5504,-3.5504,-3.5504,-3.5504,-3.5504,-3.5504,-3.5474,-3.4681,-3.4773,-3.5458,-3.4681,-3.4787,-3.5493,-3.5507,0.0,0.0,0.0,0.0,0.0,0.0,0.0,0.0,-3.5504,-3.4192,-3.2593,-3.2593,0.0,0.0,0.0,0.0,0.0,-2.9792,-3.0131,-3.0382,-2.9905,-2.9792,-2.9792,-2.9792,0.0,0.0,0.0,0.0,0.0,0.0,0.0,0.0,0.0,0.0,0.0,0.0,0.0,0.0,0.0,0.0,0.0,0.0,0.0,0.0,0.0,0.0,0.0,0.0,-3.3395,-3.2781,-3.154,-3.1511,-3.1511,-3.1511,-3.0921,-3.0585,-3.049,-2.9918,-2.9879,-3.0323,-2.9662,-2.9794,-3.0422,0.0,-2.9585,-2.9717,-3.023,-2.9988,-2.9383,-2.9902,-2.9227,-2.7959,-2.7858,-2.7469,-2.7029,0.0,0.0,0.0,0.0,0.0,0.0,0.0,0.0,0.0,0.0,0.0,0.0,0.0,0.0,0.0,0.0,0.0,0.0,0.0,0.0,-3.9927,-3.9542,-3.8816,-3.8003,-3.7174,-3.6461,-3.5894,-3.5504,-3.5504,-3.5504,-3.5504,-3.5504,-3.531,-3.4936,-3.4653,-3.4677,-3.4926,-3.4614,-3.4903,-3.5502,0.0,0.0,0.0,0.0,0.0,0.0,0.0,0.0,0.0,0.0,-3.3902,-3.2552,-3.2185,0.0,0.0,0.0,0.0,0.0,-2.9792,-2.998,-3.0181,-3.0231,-3.0444,-3.0583,-3.0294,0.0,0.0,0.0,0.0,0.0,0.0,0.0,0.0,0.0,0.0,0.0,0.0,0.0,0.0,0.0,0.0,0.0,0.0,0.0,0.0,0.0,0.0,0.0,0.0,0.0,-3.2691,-3.2049,-3.169,-3.1511,-3.1511,-3.1182,-3.0676,-3.0015,-2.9696,-2.9327,-2.8905,-2.8587,-2.8794,-2.9407,0.0,-2.889,-2.8934,-2.9901,-2.9655,-2.8761,-2.9715,-2.9159,-2.7756,-2.735,-2.6996,-2.6691,0.0,0.0,0.0,0.0,0.0,0.0,0.0,0.0,0.0,0.0,0.0,0.0,0.0,0.0,0.0,0.0,0.0,0.0,0.0,-4.0096,-4.0096,-4.0096,-3.9516,-3.8453,-3.6904,-3.6707,-3.6259,-3.5504,-3.5504,-3.5504,-3.5504,-3.5504,-3.522,-3.4711,-3.4711,-3.4711,-3.4711,-3.4711,-3.5026,-3.5504,0.0,0.0,0.0,0.0,0.0,0.0,0.0,0.0,0.0,0.0,0.0,0.0,0.0,0.0,0.0,-2.9754,-2.9603,-2.9428,-2.9553,-2.9691,-2.9867,-3.0143,-3.062,0.0,0.0,0.0,0.0,0.0,0.0,0.0,0.0,0.0,0.0,0.0,0.0,0.0,0.0,0.0,0.0,0.0,0.0,0.0,0.0,0.0,0.0,0.0,0.0,0.0,0.0,0.0,-3.2826,-3.2497,-3.1989,-3.166,-3.1511,-3.1511,-3.0853,-2.9606,-2.9606,-2.8903,-2.76,-2.76,-2.786,-2.8286,-2.8286,-2.8163,-2.8075,-2.9345,-2.9144,-2.8172,-2.9582,-2.9303,-2.7993,-2.7249,-2.6843,-2.6691,0.0,0.0,0.0,0.0,0.0,0.0,0.0,0.0,0.0,0.0,0.0,0.0,0.0,0.0,0.0,0.0,0.0,0.0,0.0,-4.0096,-4.0096,-4.0096,-4.0045,-3.9279,-3.7764,-3.6964,-3.6259,-3.5504,-3.5504,-3.5504,-3.5504,-3.5504,-3.5474,-3.5429,-3.5429,-3.5429,-3.5429,-3.5429,-3.5459,-3.5504,-3.5504,0.0,0.0,0.0,0.0,0.0,0.0,0.0,0.0,0.0,0.0,0.0,0.0,0.0,-2.9051,-2.9641,-2.9051,-2.8335,-2.8813,-2.939,-2.9666,-2.9139,-2.9478,0.0,-3.1122,-3.0959,0.0,-3.057,0.0,0.0,0.0,0.0,0.0,0.0,0.0,0.0,0.0,0.0,0.0,0.0,0.0,0.0,0.0,0.0,0.0,0.0,0.0,0.0,0.0,0.0,0.0,-3.2557,-3.2437,-3.2123,-3.1511,-3.1511,-3.0853,-2.9606,-2.9606,-2.8903,-2.76,-2.76,-2.7625,-2.766,-2.766,-2.731,-2.6835,-2.8114,-2.8202,-2.7738,-2.9577,-2.9732,-2.8824,-2.801,-2.73,-2.6691,0.0,0.0,0.0,0.0,0.0,0.0,0.0,0.0,0.0,0.0,0.0,0.0,0.0,0.0,0.0,0.0,0.0,0.0,0.0,-3.9859,-4.0096,-4.0096,-4.0096,-3.9375,-3.7835,-3.7515,-3.6738,-3.5504,-3.5504,-3.5504,-3.5504,-3.5504,-3.5504,-3.5504,-3.5504,-3.5504,-3.5504,-3.5504,-3.5504,-3.5504,-3.5504,-3.5355,0.0,0.0,0.0,0.0,0.0,0.0,0.0,0.0,-3.2471,-3.1488,-3.1371,-2.9988,-2.8524,-2.9089,-2.8712,-2.8147,-2.836,-2.8825,-2.9202,-2.895,-2.9365,0.0,0.0,-3.1273,-3.1424,-3.0758,-3.1148,0.0,0.0,0.0,0.0,0.0,0.0,0.0,0.0,0.0,0.0,0.0,0.0,0.0,0.0,0.0,0.0,0.0,0.0,0.0,0.0,0.0,0.0,-3.314,-3.2303,-3.1765,-3.1511,-3.1511,-3.0853,-2.9606,-2.9606,-2.8903,-2.76,-2.76,-2.76,-2.76,-2.76,-2.7225,-2.6705,-2.797,-2.8093,-2.7633,-2.9069,-2.9145,-2.8394,-2.7952,-2.7317,-2.6691,0.0,0.0,0.0,0.0,0.0,0.0,0.0,0.0,0.0,0.0,0.0,0.0,0.0,0.0,0.0,0.0,0.0,0.0,-3.8988,-3.9462,-3.9757,-3.9757,-3.9977,-3.9375,-3.7835,-3.7793,-3.7025,-3.5504,-3.5504,-3.5504,-3.5504,-3.5504,-3.5504,-3.5504,-3.5504,-3.5504,-3.5504,-3.5504,-3.5504,-3.5537,-3.575,-3.5701,0.0,0.0,0.0,0.0,0.0,0.0,0.0,0.0,-3.192,-3.1132,-3.0764,-2.9563,-2.8282,-2.8573,-2.8285,-2.7883,-2.8059,-2.8511,-2.885,-2.8675,0.0,0.0,-3.0495,-3.1311,-3.18,-3.1235,-3.1436,0.0,0.0,0.0,0.0,0.0,0.0,0.0,0.0,0.0,0.0,0.0,0.0,0.0,0.0,0.0,0.0,0.0,0.0,0.0,0.0,0.0,0.0,0.0,-3.2392,-3.1705,-3.1511,-3.1286,-3.0657,-2.9606,-2.9397,-2.8693,-2.76,-2.76,-2.76,-2.76,-2.76,-2.7225,-2.6681,-2.7768,-2.8066,-2.7899,-2.867,-2.8528,-2.7833,-2.7689,-2.7042,-2.6245,0.0,0.0,0.0,0.0,0.0,0.0,0.0,0.0,0.0,0.0,0.0,0.0,0.0,0.0,0.0,0.0,0.0,0.0,-3.8988,-3.8988,-3.8988,-3.8988,-3.9706,-3.9358,-3.7835,-3.7793,-3.7041,-3.5504,-3.5504,-3.5504,-3.5504,-3.5504,-3.5504,-3.5489,-3.5489,-3.5489,-3.5489,-3.5489,-3.5489,-3.5554,-3.6306,-3.6134,-3.5527,0.0,0.0,0.0,0.0,0.0,0.0,0.0,-3.2307,-3.1919,-3.1065,-2.972,-2.8433,-2.8198,-2.7708,-2.7442,-2.7946,-2.8461,-2.875,0.0,0.0,0.0,-3.0495,-3.1022,-3.1549,-3.2102,0.0,0.0,0.0,0.0,0.0,0.0,0.0,0.0,0.0,0.0,0.0,0.0,0.0,0.0,0.0,0.0,0.0,0.0,0.0,0.0,0.0,0.0,0.0,0.0,-3.2841,-3.2153,-3.1511,-3.0836,-3.0178,-2.9592,-2.8906,-2.8233,-2.76,-2.76,-2.76,-2.76,-2.76,-2.7225,-2.6647,-2.733,-2.7944,-2.8472,-2.8487,-2.7987,-2.7278,-2.7278,-2.6403,-2.5202,0.0,0.0,0.0,0.0,0.0,0.0,0.0,0.0,0.0,0.0,0.0,0.0,0.0,0.0,0.0,0.0,0.0,0.0,-3.8227,-3.8227,-3.8464,-3.8971,-3.9191,-3.8859,-3.7835,-3.6753,-3.5973,-3.5504,-3.5504,-3.5504,-3.5504,-3.5504,-3.525,-3.4786,-3.4786,-3.4786,-3.4786,-3.4786,-3.5055,-3.5537,-3.5718,-3.5701,-3.5507,0.0,0.0,0.0,0.0,0.0,0.0,0.0,0.0,0.0,-3.0973,-2.9585,-2.7992,-2.8282,-2.7864,-2.7318,-2.7482,-2.7934,0.0,0.0,0.0,0.0,0.0,-3.1022,0.0,0.0,0.0,0.0,0.0,0.0,0.0,0.0,0.0,0.0,0.0,0.0,0.0,0.0,0.0,0.0,0.0,0.0,0.0,0.0,0.0,0.0,0.0,0.0,0.0,0.0,-3.159,-3.1016,-3.0806,-3.0178,-2.9535,-2.8891,-2.8697,-2.8233,-2.76,-2.76,-2.76,-2.76,-2.76,-2.748,-2.733,-2.751,-2.7415,-2.7197,-2.7643,-2.7043,-2.6015,-2.6436,-2.6006,-2.5202,0.0,0.0,0.0,0.0,0.0,0.0,0.0,0.0,0.0,0.0,-4.0096,0.0,0.0,0.0,0.0,0.0,0.0,0.0,0.0,-3.7905,-3.8108,-3.8531,-3.8836,-3.8617,-3.7835,-3.629,-3.5504,-3.5504,-3.5504,-3.5504,-3.5504,-3.5504,-3.528,-3.4891,-3.4891,-3.4758,-3.4533,-3.4771,-3.4966,-3.5147,-3.5693,-3.575,-3.5537,0.0,0.0,0.0,0.0,0.0,0.0,0.0,0.0,0.0,-3.124,-3.0397,-2.9334,-2.8432,-2.8339,-2.8462,-2.8042,-2.8511,0.0,0.0,0.0,0.0,0.0,0.0,0.0,0.0,0.0,0.0,0.0,0.0,0.0,0.0,0.0,0.0,0.0,0.0,0.0,0.0,0.0,0.0,0.0,0.0,0.0,0.0,0.0,0.0,0.0,0.0,0.0,-3.172,-3.0879,-3.0449,-3.0507,-2.9894,-2.925,-2.8607,-2.8323,-2.8004,-2.76,-2.76,-2.76,-2.76,-2.76,-2.745,-2.7225,-2.748,-2.7061,-2.6276,-2.6907,-2.6291,-2.5114,-2.5486,-2.5165,-2.4556,0.0,0.0,0.0,0.0,0.0,0.0,0.0,0.0,0.0,0.0,-4.0096,-4.0096,0.0,0.0,0.0,0.0,0.0,0.0,0.0,-3.7939,-3.7939,-3.8007,-3.8561,-3.8536,-3.7835,-3.629,-3.5504,-3.5504,-3.5504,-3.5504,-3.5504,-3.5504,-3.5474,-3.5415,-3.5355,-3.4981,-3.4459,-3.4996,-3.4906,-3.4536,-3.5876,-3.598,-3.5422,-3.6136,0.0,0.0,0.0,0.0,0.0,0.0,0.0,0.0,-3.1797,-3.1674,-3.1554,-2.8668,-2.8966,-3.0023,-2.9086,0.0,0.0,0.0,0.0,0.0,0.0,0.0,0.0,0.0,0.0,0.0,0.0,0.0,0.0,0.0,0.0,0.0,0.0,0.0,0.0,0.0,0.0,0.0,0.0,0.0,0.0,0.0,0.0,0.0,0.0,0.0,-2.9815,-3.0911,-3.0395,-3.0177,-3.0306,-2.9702,-2.9101,-2.8502,-2.7899,-2.76,-2.76,-2.76,-2.76,-2.76,-2.754,-2.7165,-2.6632,-2.7195,-2.6647,-2.5561,-2.6183,-2.5644,-2.4515,-2.4515,-2.4111,-2.3595,0.0,0.0,0.0,0.0,0.0,0.0,0.0,0.0,0.0,0.0,0.0,0.0,0.0,0.0,0.0,0.0,0.0,0.0,0.0,-3.8227,-3.8159,-3.8734,-3.8305,-3.7975,-3.7806,-3.629,-3.5504,-3.5504,-3.5504,-3.5504,-3.5504,-3.5504,-3.522,-3.4681,-3.4158,-3.3844,-3.3679,-3.332,-3.338,-3.38,-3.4616,-3.4555,-3.4009,-3.4692,-3.4193,0.0,0.0,0.0,0.0,0.0,0.0,0.0,-3.2481,-3.1863,-3.1063,-2.9241,-2.8825,-2.8813,0.0,-2.8775,0.0,0.0,0.0,0.0,0.0,0.0,0.0,0.0,0.0,0.0,0.0,0.0,0.0,0.0,0.0,0.0,0.0,0.0,0.0,0.0,0.0,0.0,0.0,0.0,0.0,0.0,0.0,0.0,0.0,-2.8889,-2.8809,-2.9067,-2.8841,-2.8757,-2.8755,-2.8272,-2.7959,0.0,-2.766,-2.76,-2.76,-2.76,-2.76,-2.757,-2.7046,-2.6722,-2.6557,-2.6183,-2.5555,-2.4829,-2.4963,-2.4515,-2.3819,-2.3819,-2.3729,-2.3595,0.0,0.0,0.0,0.0,0.0,0.0,0.0,0.0,0.0,0.0,0.0,0.0,0.0,0.0,0.0,0.0,0.0,0.0,0.0,0.0,-3.8599,-3.8971,-3.8562,-3.8161,-3.7822,-3.6646,-3.5863,-3.5504,-3.5504,-3.5504,-3.5504,-3.5504,-3.531,-3.4951,-3.4607,-3.4098,-3.3514,-3.3814,-3.3769,-3.359,-3.4576,-3.459,-3.4056,-3.4757,-3.4165,-3.3051,-3.3743,0.0,0.0,0.0,0.0,0.0,0.0,0.0,-3.2913,-3.1073,-3.0513,-3.0301,0.0,0.0,0.0,0.0,0.0,0.0,0.0,0.0,0.0,0.0,0.0,0.0,0.0,0.0,0.0,0.0,0.0,0.0,0.0,0.0,0.0,0.0,0.0,0.0,0.0,0.0,0.0,0.0,0.0,0.0,0.0,-2.816,-2.7867,-2.7729,-2.7414,-2.7479,-2.7908,-2.7667,-2.7565,-2.76,-2.76,-2.76,-2.76,-2.76,-2.742,-2.7106,-2.6761,-2.6243,-2.5644,-2.5615,-2.5031,-2.4141,-2.447,-2.4395,-2.4036,-2.3729,-2.3804,-2.4022,0.0,0.0,0.0,0.0,0.0,0.0,0.0,0.0,0.0,0.0,0.0,0.0,0.0,0.0,0.0,0.0,0.0,0.0,0.0,0.0,0.0,-3.9174,-3.8999,-3.8553,-3.7822,-3.6994,-3.6259,-3.5504,-3.5504,-3.5504,-3.5504,-3.5504,-3.5504,-3.5504,-3.5385,-3.4711,-3.3724,-3.4622,-3.4412,-3.3591,-3.4592,-3.4653,-3.4223,-3.482,-3.4282,-3.3246,-3.3918,-3.4151,-3.4204,-3.4429,0.0,0.0,0.0,0.0,-3.476,-3.2762,-3.2293,-3.2068,0.0,0.0,0.0,0.0,0.0,0.0,0.0,0.0,0.0,0.0,0.0,0.0,0.0,0.0,0.0,0.0,0.0,0.0,0.0,0.0,0.0,0.0,0.0,0.0,0.0,0.0,0.0,0.0,0.0,0.0,-2.816,-2.7394,-2.6896,-2.668,-2.6187,-2.6364,-2.7281,-2.7304,-2.7404,-2.76,-2.76,-2.76,-2.76,-2.748,-2.7195,-2.6752,-2.6512,-2.5809,-2.4799,-2.5136,-2.4597,-2.3655,-2.4201,-2.4425,-2.435,-2.3804,-2.3947,-2.435,0.0,0.0,0.0,0.0,0.0,0.0,0.0,0.0,0.0,0.0,0.0,0.0,0.0,0.0,0.0,0.0,0.0,0.0,0.0,0.0,0.0,-3.9926,-3.9265,-3.8553,-3.7822,-3.6994,-3.6259,-3.5504,-3.5504,-3.5504,-3.5504,-3.5504,-3.5504,-3.5474,-3.4876,-3.4548,-3.4309,-3.332,-3.314,-3.344,-3.3051,-3.2856,-3.2766,-3.287,-3.2449,-3.1839,-3.2511,-3.2781,-3.2946,-3.4129,-3.4563,0.0,0.0,0.0,-3.3554,-3.2501,-3.1821,-3.1239,0.0,0.0,0.0,0.0,0.0,0.0,0.0,0.0,0.0,0.0,0.0,0.0,0.0,0.0,0.0,0.0,0.0,0.0,0.0,0.0,0.0,0.0,0.0,0.0,0.0,0.0,0.0,0.0,0.0,0.0,-2.8109,-2.6653,-2.5816,-2.5764,-2.5434,-2.5603,-2.6367,-2.6547,-2.6966,-2.76,-2.76,-2.76,-2.757,-2.7001,-2.7001,-2.7405,-2.6243,-2.5621,-2.5367,-2.4313,-2.3759,-2.361,-2.3699,-2.3729,-2.3729,-2.3625,-2.3655,-2.3729,0.0,0.0,0.0,0.0,0.0,0.0,0.0,0.0,0.0,0.0,0.0,0.0,0.0,0.0,0.0,0.0,0.0,0.0,0.0,0.0,0.0,-3.9445,-3.9152,-3.8583,-3.7806,-3.7089,-3.6304,-3.5504,-3.4756,-3.4756,-3.5489,-3.5115,-3.513,-3.5489,-3.519,-3.4637,-3.3933,-3.4113,-3.3918,-3.35,-3.3605,-3.341,-3.3066,-3.3118,-3.2433,-3.1598,-3.2285,-3.276,-3.3155,-3.3724,-3.4427,-3.5055,-3.5055,0.0,0.0,0.0,-3.3459,0.0,-3.2212,0.0,0.0,0.0,0.0,0.0,0.0,0.0,0.0,0.0,0.0,0.0,0.0,0.0,0.0,0.0,0.0,0.0,0.0,0.0,0.0,0.0,0.0,0.0,0.0,0.0,0.0,0.0,0.0,-2.8109,-2.8109,-2.6502,-2.546,-2.5172,-2.4378,-2.4337,-2.5114,-2.5647,-2.6469,-2.76,-2.7178,-2.7011,-2.7031,-2.6722,-2.6566,-2.6422,-2.5457,-2.4814,-2.4433,-2.3849,-2.3595,-2.3595,-2.3595,-2.3834,-2.4096,-2.3744,-2.3849,-2.4096,0.0,0.0,0.0,0.0,0.0,0.0,0.0,0.0,0.0,0.0,0.0,0.0,0.0,0.0,0.0,0.0,0.0,0.0,0.0,0.0,0.0,-3.8684,-3.8903,-3.846,-3.7306,-3.6966,-3.6207,-3.4996,-3.4158,-3.4262,-3.5235,-3.4906,-3.5011,-3.5504,-3.5504,-3.4951,-3.4053,-3.4711,-3.4607,-3.3995,-3.383,-3.365,-3.3457,-3.3177,-3.2407,-3.1582,-3.212,-3.2604,0.0,0.0,0.0,0.0,0.0,0.0,0.0,0.0,0.0,0.0,0.0,0.0,0.0,0.0,0.0,0.0,0.0,0.0,0.0,0.0,0.0,0.0,0.0,0.0,0.0,0.0,0.0,0.0,0.0,0.0,0.0,0.0,0.0,0.0,0.0,0.0,0.0,0.0,0.0,-2.8047,-2.7896,-2.644,-2.536,-2.4813,-2.3835,-2.3637,-2.4292,-2.5035,-2.5946,-2.7019,-2.6496,-2.633,-2.6564,-2.6224,-2.5896,-2.557,-2.4889,-2.4321,-2.3849,-2.367,-2.3595,-2.3595,-2.3595,-2.3924,-2.4291,-2.3789,-2.3924,-2.4276,0.0,0.0,0.0,0.0,0.0,0.0,0.0,0.0,0.0,0.0,0.0,0.0,-3.8988,-3.8379,-3.7635,-3.688,-3.6146,0.0,0.0,0.0,0.0,-3.7939,-3.8633,0.0,-3.5849,-3.6469,-3.575,-3.3604,-3.4189,-3.4488,-3.4578,-3.516,-3.5474,-3.5504,-3.5504,-3.5474,-3.5325,-3.4113,-3.4292,-3.5175,-3.2676,-3.2407,-3.335,-3.2077,-3.1553,-3.1511,0.0,0.0,0.0,0.0,0.0,0.0,0.0,0.0,-3.3844,0.0,0.0,0.0,0.0,0.0,0.0,0.0,0.0,0.0,0.0,0.0,0.0,0.0,0.0,0.0,0.0,0.0,0.0,0.0,0.0,0.0,0.0,0.0,0.0,0.0,0.0,0.0,0.0,0.0,0.0,0.0,0.0,-2.7871,-2.7356,-2.6226,-2.536,-2.4813,-2.4255,-2.4075,-2.4292,-2.5035,-2.5425,-2.5508,-2.5481,-2.5823,-2.6477,-2.5185,-2.4966,-2.557,-2.4889,-2.459,-2.45,-2.3864,-2.3595,-2.3595,-2.3595,-2.3625,-2.3655,-2.361,-2.3625,-2.3655,0.0,0.0,0.0,0.0,0.0,0.0,0.0,0.0,0.0,0.0,0.0,0.0,0.0,-3.9039,-3.8311,-3.7567,-3.6326,0.0,0.0,0.0,0.0,-3.8548,-3.8853,-3.8393,-3.7082,-3.6453,-3.5483,-3.4159,-3.3095,-3.3245,-3.4503,-3.4307,-3.4681,-3.5504,-3.5504,-3.525,-3.4846,-3.4801,-3.4801,-3.4726,-3.3335,-3.308,-3.335,-3.2004,0.0,0.0,0.0,0.0,0.0,0.0,0.0,0.0,0.0,-3.4054,-3.3679,-3.4577,-3.4904,0.0,0.0,0.0,0.0,0.0,0.0,0.0,0.0,0.0,0.0,0.0,0.0,0.0,0.0,0.0,0.0,0.0,0.0,0.0,0.0,0.0,0.0,0.0,0.0,0.0,0.0,0.0,0.0,0.0,0.0,-2.7494,-2.7329,-2.5887,-2.5008,-2.48,-2.3898,-2.3688,-2.4292,-2.4047,-2.441,-2.5398,-2.4922,-2.4668,-2.4657,-2.4533,-2.3999,-2.3126,-2.371,-2.3969,-2.3954,-2.3699,-2.3595,-2.3595,-2.3595,-2.3595,-2.3595,-2.3595,-2.3595,-2.3595,0.0,0.0,0.0,0.0,0.0,0.0,0.0,0.0,0.0,-3.8492,0.0,0.0,0.0,0.0,-3.8421,-3.7949,-3.6952,-3.68,-3.7838,-3.7432,-3.7601,-3.8582,-3.887,-3.841,-3.713,-3.6453,-3.5373,-3.3814,-3.2721,-3.2751,-3.3814,-3.3589,-3.4098,-3.5145,-3.4936,-3.4831,-3.4846,-3.5055,0.0,-3.4741,0.0,0.0,-3.3709,0.0,0.0,0.0,0.0,0.0,0.0,0.0,0.0,0.0,0.0,-3.4158,-3.4203,-3.4444,-3.4966,0.0,-3.5504,0.0,0.0,0.0,0.0,0.0,0.0,0.0,0.0,0.0,0.0,0.0,0.0,0.0,0.0,0.0,0.0,0.0,0.0,0.0,0.0,0.0,0.0,0.0,0.0,0.0,0.0,0.0,0.0,0.0,-2.7052,-2.5787,-2.4888,-2.4525,-2.3597,-2.3365,-2.3884,-2.3365,-2.3619,-2.4639,-2.4134,-2.3883,-2.3851,-2.4273,-2.3677,-2.238,-2.3244,-2.3504,-2.3312,-2.3508,-2.3595,-2.3595,-2.3595,-2.3595,-2.3595,-2.3595,-2.3595,-2.3595,0.0,0.0,0.0,0.0,0.0,0.0,0.0,0.0,-3.6937,-3.7668,0.0,0.0,0.0,0.0,0.0,-3.7894,-3.7874,-3.7874,-3.7949,-3.7915,-3.7891,-3.7884,0.0,0.0,-3.5774,-3.6426,-3.536,-3.2572,-3.317,-3.3155,-3.2557,-3.3185,-3.3829,-3.4474,-3.3829,-3.4262,-3.5429,0.0,-3.4876,-3.5385,0.0,-3.3903,-3.4444,0.0,0.0,0.0,-3.3499,-3.3499,0.0,0.0,0.0,0.0,0.0,-3.4352,-3.531,-3.4653,-3.4936,0.0,0.0,0.0,0.0,0.0,0.0,0.0,0.0,0.0,0.0,0.0,0.0,0.0,0.0,0.0,0.0,0.0,0.0,0.0,0.0,0.0,0.0,0.0,0.0,0.0,0.0,0.0,0.0,0.0,-2.704,-2.709,-2.6524,-2.59,-2.5084,-2.4004,-2.3396,-2.3108,-2.3108,-2.3108,-2.3108,-2.3108,-2.3108,-2.3488,-2.4213,-2.43,-2.4021,-2.348,-2.3587,-2.3256,-2.2694,-2.3312,-2.3573,-2.3595,-2.3573,-2.3573,-2.3595,-2.3625,-2.3625,-2.361,0.0,0.0,0.0,0.0,0.0,0.0,-3.6148,-3.643,-3.6685,0.0,0.0,0.0,-3.806,-3.7447,-3.7221,-3.7788,-3.7326,-3.7484,-3.8546,-3.8131,-3.7831,-3.7845,-3.8012,-3.7576,-3.6371,-3.6088,-3.5273,-3.3933,-3.3155,-3.2931,-3.3215,-3.2916,-3.338,-3.4518,-3.4801,-3.4876,-3.4741,-3.4593,0.0,-3.5429,-3.4562,-3.4339,0.0,0.0,0.0,0.0,0.0,-3.3799,0.0,0.0,-3.3619,-3.3095,0.0,0.0,-3.3918,-3.326,-3.4218,0.0,-3.4906,0.0,0.0,0.0,0.0,0.0,0.0,0.0,0.0,0.0,0.0,0.0,0.0,0.0,0.0,0.0,0.0,0.0,0.0,0.0,0.0,0.0,0.0,0.0,0.0,0.0,0.0,0.0,-2.7795,-2.7469,-2.6549,-2.5548,-2.4519,-2.3384,-2.3195,-2.3108,-2.3108,-2.3108,-2.3108,-2.3108,-2.3108,-2.2799,-2.2288,-2.2759,-2.2181,-2.0901,-2.1849,-2.19,-2.1369,-2.1969,-2.2764,-2.3551,-2.312,-2.3224,-2.3655,-2.4141,-2.4029,-2.3744,0.0,0.0,0.0,0.0,0.0,-3.6118,-3.5594,-3.6105,-3.6454,0.0,0.0,0.0,-3.7279,-3.7208,-3.7339,-3.7757,-3.7395,-3.7536,-3.8393,-3.804,-3.7797,-3.779,-3.7793,-3.7427,-3.6615,-3.6212,-3.5661,-3.4906,-3.4143,-3.3814,-3.3903,-3.3799,-3.4023,-3.4533,-3.4906,-3.5011,0.0,0.0,0.0,0.0,-3.4951,0.0,0.0,-3.4472,-3.4337,0.0,0.0,0.0,-3.4816,-3.4262,-3.3634,0.0,0.0,0.0,0.0,0.0,0.0,0.0,0.0,0.0,0.0,0.0,0.0,0.0,0.0,-3.235,0.0,0.0,0.0,0.0,0.0,0.0,0.0,0.0,0.0,0.0,0.0,0.0,0.0,0.0,0.0,0.0,0.0,0.0,-2.826,-2.7482,-2.7419,-2.7065,-2.6185,-2.5285,-2.4374,-2.3496,-2.3233,-2.3108,-2.3108,-2.3108,-2.3108,-2.3108,-2.3108,-2.2644,-2.186,-2.2769,-2.2093,-2.0254,-2.1528,-2.1594,-2.0795,-2.0879,-2.1649,-2.2801,-2.274,-2.2748,-2.2912,-2.383,-2.3948,-2.3807,0.0,0.0,0.0,-3.6866,-3.703,-3.6941,-3.5878,-3.6148,-3.6297,0.0,-3.5654,-3.584,-3.643,-3.71,-3.7589,-3.7661,-3.7725,-3.7788,-3.7788,-3.7788,-3.7762,-3.7753,-3.761,-3.7268,-3.6708,-3.6616,-3.6318,-3.5714,-3.5654,-3.5295,-3.4743,-3.525,-3.522,-3.4728,-3.4728,0.0,0.0,0.0,0.0,-3.4563,-3.5235,-3.5504,0.0,0.0,-3.5504,0.0,-3.5504,-3.5504,-3.531,-3.3948,-3.3051,0.0,0.0,0.0,0.0,0.0,-3.2871,0.0,0.0,0.0,0.0,0.0,0.0,0.0,-3.2571,-3.1593,-3.083,0.0,0.0,0.0,0.0,0.0,0.0,0.0,0.0,0.0,0.0,0.0,0.0,0.0,0.0,0.0,0.0,-2.8298,-2.7833,-2.6763,-2.6562,-2.6248,-2.5624,-2.5109,-2.4537,-2.4017,-2.3409,-2.3108,-2.3108,-2.3108,-2.307,-2.3007,-2.307,-2.2757,-2.2175,-2.3479,-2.2803,-2.0682,-2.1862,-2.1733,-2.0646,-2.0055,-2.0533,-2.1744,-2.2276,-2.2184,-2.1852,-2.3133,-2.358,-2.3683,0.0,0.0,0.0,-3.7883,-3.727,-3.6746,-3.7,-3.6731,-3.6626,-3.6985,-3.6611,-3.6139,-3.5761,-3.5846,-3.6196,-3.6798,-3.7327,-3.7639,-3.7639,-3.7639,-3.7589,-3.7473,-3.6503,-3.6362,-3.7206,-3.6773,-3.6688,-3.7045,-3.6537,-3.6222,-3.6088,-3.5684,-3.5714,-3.6088,-3.6088,0.0,0.0,0.0,0.0,-3.4563,-3.5235,0.0,-3.5504,-3.5504,-3.5504,-3.5504,-3.5504,-3.5504,-3.531,0.0,-3.3051,-3.2363,0.0,0.0,0.0,0.0,0.0,0.0,0.0,0.0,0.0,0.0,0.0,0.0,-3.2393,-3.1391,-3.0744,0.0,0.0,0.0,0.0,0.0,0.0,0.0,0.0,0.0,0.0,0.0,0.0,0.0,0.0,0.0,0.0,-2.9465,-2.9001,-2.7871,-2.7002,-2.6248,-2.5624,-2.5109,-2.4537,-2.4017,-2.3409,-2.3108,-2.3108,-2.3108,-2.2882,-2.2443,-2.2895,-2.2385,-2.1043,-2.2179,-2.1696,-2.0025,-2.0751,-2.0664,-1.9978,-1.985,-2.0533,-2.1649,-2.1307,-2.1403,-2.1845,-2.3129,-2.3255,-2.3044,0.0,0.0,-3.7644,-3.8287,-3.7868,-3.7434,-3.7404,-3.7419,-3.7434,-3.7404,-3.6866,-3.6357,-3.6028,-3.5699,-3.5636,-3.6038,-3.6664,-3.706,-3.706,-3.706,-3.7167,-3.7375,-3.6507,-3.6447,-3.7389,-3.7105,-3.7255,-3.7898,-3.7584,-3.7434,-3.7434,-3.709,-3.6611,-3.6028,-3.6671,-3.6402,0.0,0.0,-3.6088,-3.5507,-3.5504,0.0,-3.5504,-3.5504,-3.5504,-3.5504,-3.5504,-3.5295,-3.4891,-3.4249,-3.332,0.0,0.0,-3.1989,-3.1929,0.0,-3.1735,-3.1929,0.0,0.0,0.0,-3.1077,0.0,0.0,0.0,-3.1234,-3.1323,0.0,0.0,0.0,0.0,0.0,0.0,0.0,0.0,0.0,0.0,0.0,0.0,0.0,0.0,0.0,0.0,-2.9528,-2.89,-2.777,-2.718,-2.6663,-2.6084,-2.5498,-2.4958,-2.4431,-2.3866,-2.3396,-2.3108,-2.2832,-2.2556,-2.2309,-2.2556,-2.2146,-2.1144,-2.2221,-2.1958,-2.0665,-2.0981,-2.0779,-2.0239,-1.9924,-2.0181,-2.0756,-2.0795,-2.0967,-2.136,-2.2647,-2.3057,-2.3149,-3.7569,0.0,0.0,-3.8392,-3.8392,-3.8167,-3.7509,-3.7853,-3.7928,-3.715,-3.6926,-3.6761,-3.6507,-3.6013,-3.5744,-3.5863,-3.6357,-3.6656,-3.6656,-3.6776,-3.703,-3.7389,-3.6926,-3.6956,-3.7584,-3.7479,-3.7734,-3.8392,-3.8392,-3.8392,-3.8392,-3.8392,-3.7629,-3.6282,-3.6941,-3.6791,0.0,0.0,0.0,-3.6432,0.0,-3.5624,-3.5504,-3.5504,-3.5504,-3.5489,-3.5355,-3.4876,-3.4324,-3.4324,0.0,-3.2318,-3.2452,-3.2034,0.0,0.0,0.0,0.0,0.0,0.0,0.0,0.0,0.0,-3.1569,0.0,0.0,0.0,-3.0253,0.0,0.0,0.0,0.0,0.0,0.0,0.0,0.0,0.0,0.0,0.0,0.0,0.0,0.0,0.0,-2.9264,-2.8511,-2.7519,-2.7379,-2.7077,-2.6524,-2.5946,-2.541,-2.4983,-2.4343,-2.3778,-2.3283,-2.2719,-2.2393,-2.2309,-2.2393,-2.2121,-2.1531,-2.2606,-2.2506,-2.1493,-2.1606,-2.1358,-2.0805,-2.0239,-1.9962,-2.0013,-2.0448,-2.0643,-2.0825,-2.1953,-2.2724,-2.3204,-3.8167,-3.8347,0.0,0.0,-3.8392,-3.8167,-3.7509,-3.7464,-3.709,-3.5878,-3.715,-3.7749,-3.6611,0.0,0.0,0.0,0.0,0.0,-3.73,0.0,-3.7943,-3.7434,-3.7345,-3.7614,-3.8257,-3.7704,-3.7734,-3.8392,-3.8392,-3.8392,-3.8392,-3.8392,-3.8601,-3.888,-3.73,0.0,0.0,0.0,-3.6492,0.0,-3.6402,-3.6028,0.0,-3.5504,-3.5504,-3.5429,-3.4848,-3.4158,-3.3604,0.0,-3.2736,-3.172,0.0,-3.2034,0.0,0.0,0.0,0.0,0.0,0.0,0.0,0.0,-2.9831,0.0,0.0,0.0,-3.0836,-3.1212,0.0,0.0,0.0,0.0,0.0,0.0,0.0,0.0,0.0,0.0,0.0,0.0,0.0,0.0,0.0,-2.9264,-2.8637,-2.8059,-2.7557,-2.7077,-2.6524,-2.5946,-2.5573,-2.5511,-2.4531,-2.3966,-2.3904,-2.3296,-2.2769,-2.2322,-2.2782,-2.2498,-2.1531,-2.2606,-2.2506,-2.1546,-2.2008,-2.1907,-2.1383,-2.0817,-2.0591,-2.0541,-2.0077,-2.0228,-2.0781,-2.1397,-2.1967,-2.2441,-3.7838,-3.8123,0.0,0.0,-3.8661,-3.8302,-3.8018,-3.7973,-3.7928,-3.7793,-3.8138,-3.8182,0.0,0.0,0.0,0.0,0.0,-3.7823,0.0,0.0,-3.7704,0.0,0.0,0.0,0.0,-3.7749,-3.7734,-3.8392,-3.8392,-3.8197,-3.7823,-3.7823,-3.7778,-3.7689,-3.6851,0.0,-3.727,0.0,0.0,0.0,0.0,0.0,0.0,-3.5654,-3.5504,-3.5474,-3.5175,-3.4637,-3.4099,0.0,-3.3185,0.0,0.0,0.0,0.0,0.0,0.0,0.0,0.0,0.0,0.0,0.0,0.0,0.0,0.0,0.0,-3.0943,0.0,0.0,0.0,0.0,0.0,0.0,0.0,0.0,0.0,0.0,0.0,0.0,0.0,0.0,0.0,0.0,0.0,0.0,0.0,-2.7708,-2.7381,-2.6549,-2.626,-2.5971,-2.5598,-2.5159,-2.4632,-2.4004,-2.3396,-2.2832,-2.2309,-2.2518,-2.241,-2.1995,-2.2744,-2.2844,-2.2406,-2.2347,-2.2184,-2.1895,-2.1056,-2.0691,-2.0603,-1.9698,-2.0087,-2.1194,-2.1405,-2.2046,-2.2669,-3.8257,0.0,0.0,0.0,0.0,0.0,0.0,0.0,0.0,0.0,0.0,0.0,-3.8407,-3.8138,0.0,0.0,0.0,-3.8661,0.0,0.0,-3.7793,0.0,0.0,0.0,0.0,0.0,-3.7464,-3.8123,-3.7943,-3.7629,-3.715,-3.715,-3.7,-3.6731,0.0,-3.6582,-3.6776,0.0,0.0,-3.712,-3.6671,-3.6372,-3.6163,-3.5684,-3.5504,-3.5489,-3.5295,-3.4786,-3.4234,-3.4234,-3.3335,0.0,-3.2452,0.0,0.0,0.0,0.0,0.0,-3.1511,0.0,0.0,0.0,0.0,0.0,0.0,0.0,0.0,0.0,0.0,0.0,0.0,0.0,0.0,0.0,0.0,0.0,0.0,0.0,0.0,0.0,0.0,0.0,0.0,0.0,0.0,0.0,0.0,-2.762,-2.6549,-2.6499,-2.6298,-2.585,-2.5686,-2.5159,-2.423,-2.3622,-2.3058,-2.2506,-2.2506,-2.2506,-2.2518,-2.292,-2.3108,-2.307,-2.2518,-2.2397,-2.2406,-2.1207,-2.0779,-2.0817,-1.9673,-2.0062,-2.1257,-2.0928,-2.1694,-2.2719,-4.0053,-4.0322,0.0,0.0,0.0,0.0,0.0,0.0,0.0,0.0,0.0,0.0,0.0,0.0,0.0,0.0,0.0,-4.0053,-3.9394,0.0,-3.8766,0.0,0.0,-3.7689,0.0,0.0,0.0,-3.7434,-3.6851,-3.6537,-3.6522,-3.6522,-3.6821,-3.736,-3.6746,-3.6821,-3.7375,-3.7404,-3.706,-3.6507,-3.6492,-3.6103,-3.5534,0.0,-3.5504,-3.5415,-3.4741,0.0,0.0,-3.3529,-3.2647,0.0,0.0,0.0,0.0,0.0,0.0,0.0,0.0,0.0,0.0,-3.1481,0.0,0.0,0.0,0.0,-3.1496,0.0,0.0,0.0,0.0,0.0,-3.1511,-3.1525,0.0,0.0,0.0,0.0,0.0,0.0,0.0,0.0,0.0,0.0,0.0,0.0,0.0,0.0,-2.6549,-2.6499,-2.6487,-2.6461,-2.5887,-2.5335,-2.4763,-2.4243,-2.3678,-2.3083,-2.3083,-2.3083,-2.3083,-2.3095,-2.3108,-2.307,-2.2518,-2.2581,-2.2945,-2.137,-2.1006,-2.1343,-2.0213,-2.015,-2.0591,-1.9497,-2.045,-2.2184,0.0,0.0,0.0,0.0,0.0,0.0,0.0,-3.7479,0.0,0.0,0.0,0.0,0.0,0.0,-4.0157,0.0,0.0,-4.0127,-3.9433,-3.9388,0.0,0.0,0.0,-3.709,0.0,0.0,0.0,0.0,0.0,-3.6881,-3.6492,-3.6911,-3.6985,-3.6806,0.0,-3.6985,0.0,0.0,0.0,0.0,0.0,-3.4741,-3.3719,0.0,0.0,-3.5415,-3.4726,-3.4053,0.0,-3.2991,-3.2228,-3.154,-3.1765,-3.169,-3.1511,-3.1511,-3.1511,0.0,0.0,0.0,-3.1511,-3.1511,0.0,0.0,0.0,0.0,0.0,0.0,0.0,0.0,0.0,0.0,-3.1511,-3.1511,-3.1511,-3.1511,0.0,0.0,0.0,0.0,0.0,0.0,0.0,0.0,0.0,0.0,-2.7052,0.0,-2.5971,-2.6285,-2.6499,-2.6499,-2.6298,-2.5737,-2.48,-2.4612,-2.4036,-2.3108,-2.3108,-2.3108,-2.3108,-2.3108,-2.3108,-2.307,-2.2518,-2.2594,-2.2982,-2.1343,-2.1018,-2.1343,-1.9861,-1.9861,-2.0641,-2.0277,-2.0616,-2.1194,-4.1752,0.0,0.0,0.0,0.0,0.0,0.0,0.0,0.0,0.0,-4.0636,0.0,-4.2291,0.0,-4.1265,0.0,-4.0965,-4.0816,-4.0157,-3.9903,0.0,-3.9125,-3.7853,0.0,0.0,0.0,0.0,0.0,0.0,-3.6522,-3.6148,-3.6791,-3.6746,-3.6193,0.0,0.0,0.0,0.0,-3.6202,0.0,0.0,-3.3522,0.0,0.0,-3.4345,-3.413,0.0,-3.317,-3.2624,-3.218,-3.1619,-3.1058,-3.1058,-3.1058,-3.1058,-3.1058,-3.1058,-3.1058,-3.1058,-3.1058,0.0,-3.1058,-3.1278,0.0,-3.0943,0.0,0.0,0.0,0.0,0.0,0.0,0.0,-3.1511,-3.1511,-3.1511,-3.1585,0.0,-3.1897,0.0,0.0,0.0,0.0,0.0,0.0,0.0,-2.6562,-2.6675,-2.6449,0.0,0.0,-2.6499,-2.6499,-2.6499,-2.6047,-2.5109,-2.4888,-2.4324,-2.3409,-2.3195,-2.3108,-2.3108,-2.3108,-2.2995,-2.2782,-2.2259,-2.2221,-2.2406,-2.0966,-2.0717,-2.1106,-1.9798,-1.9861,-2.0629,-2.0025,-2.0063,-2.0377,0.0,0.0,0.0,0.0,-3.9723,0.0,0.0,0.0,-3.9679,0.0,-4.2147,-4.312,-4.2605,-4.297,-4.2776,-4.1489,-4.1961,0.0,-4.1407,-4.0741,0.0,0.0,-3.908,-3.8646,-3.9305,0.0,0.0,0.0,0.0,0.0,-3.5564,-3.6193,-3.6115,-3.5559,-3.7425,0.0,-3.404,-3.5352,-3.459,-3.2522,-3.2522,-3.25,-3.2464,-3.2464,-3.2101,-3.1619,-3.1723,-3.1481,-3.1147,-3.1087,-3.0699,-3.0238,-3.0238,-3.0238,-3.0238,-3.0238,-3.0238,-3.0238,-3.0238,-3.0238,-3.0238,-3.0299,0.0,0.0,0.0,0.0,-3.1438,0.0,0.0,0.0,0.0,0.0,0.0,-3.1511,-3.1511,-3.172,-3.2348,0.0,0.0,0.0,0.0,0.0,0.0,0.0,-2.8184,-2.6612,-2.6952,-2.6728,0.0,0.0,-2.6524,-2.6499,-2.6499,-2.6223,-2.5598,-2.5084,-2.4544,-2.3991,-2.3384,-2.3108,-2.3108,-2.3108,-2.2819,-2.2322,-2.1744,-2.1518,-2.1481,-2.0288,-2.0189,-2.0679,-2.0075,-2.0214,-2.049,-1.8869,-1.8907,-1.9761,-4.1916,-4.2425,-4.2381,0.0,-3.9723,-3.8497,0.0,0.0,0.0,0.0,-4.2716,-4.3643,-4.4451,-4.3389,-4.2321,-4.1444,-4.1085,0.0,0.0,0.0,0.0,-4.0397,-3.8646,-3.7749,-3.7913,-3.6971,0.0,-3.6731,0.0,0.0,-3.6237,-3.6417,-3.5988,-3.5111,0.0,0.0,-3.3587,-3.4038,-3.3188,-3.1573,-3.1573,-3.1156,0.0,0.0,-2.9914,-2.924,-3.0555,-3.0735,-3.0237,-2.9726,-2.9474,-2.9317,-2.9317,-2.9317,-2.9317,-2.9317,-2.9317,-2.9317,-2.9317,-2.9317,-2.9473,-3.0133,-2.9981,-2.9981,0.0,0.0,0.0,0.0,0.0,0.0,0.0,0.0,0.0,0.0,-3.1511,0.0,0.0,0.0,0.0,0.0,0.0,0.0,0.0,0.0,-2.7695,-2.6593,-2.6223,-2.59,0.0,0.0,0.0,-2.6512,-2.6499,-2.6223,-2.5598,-2.5084,-2.4544,-2.3991,-2.3384,-2.3108,-2.3108,-2.3108,-2.3032,-2.2844,-2.1907,-2.1958,-2.2531,-2.0602,-2.0388,-2.1257,-2.0691,-2.0566,-2.0591,-1.971,-1.9296,-1.9146,-4.1209,0.0,0.0,-4.0697,0.0,0.0,-3.8948,0.0,0.0,-4.1361,-4.2401,0.0,-4.3947,-4.2841,-4.1784,-4.1017,-4.0606,0.0,0.0,0.0,0.0,-3.8696,-3.7945,-3.7325,-3.6821,-3.6607,0.0,-3.6492,0.0,0.0,-3.5432,-3.5991,-3.5436,0.0,0.0,-3.4301,0.0,-3.2067,-3.1422,-3.0595,-3.0595,0.0,0.0,-2.9792,-2.9089,-2.8243,-2.9254,-2.9355,-2.894,-2.8582,-2.8427,-2.8427,-2.8427,-2.8427,-2.8427,-2.8427,-2.8427,-2.8427,-2.8427,-2.8427,-2.8556,-2.9034,-2.9097,-2.9254,-3.0208,-3.0359,-3.0419,0.0,0.0,0.0,0.0,0.0,0.0,0.0,0.0,0.0,0.0,0.0,0.0,0.0,0.0,0.0,0.0,0.0,-2.7026,-2.6177,-2.6047,-2.5862,0.0,0.0,0.0,-2.6512,-2.6725,-2.6461,-2.5598,-2.531,-2.477,-2.3991,-2.3384,-2.3108,-2.3108,-2.3108,-2.297,-2.2706,-2.2121,-2.2071,-2.2297,-2.079,-2.0578,-2.1131,-2.0817,-2.0541,-2.0302,-2.0239,-1.9836,-1.9259,0.0,0.0,0.0,0.0,0.0,0.0,0.0,-3.8806,0.0,-4.0412,0.0,-4.2301,-4.211,-4.1549,-4.0828,-4.0068,0.0,-3.9413,-3.8404,-3.8365,-3.7678,-3.6242,-3.6878,-3.6773,-3.5727,-3.5884,0.0,0.0,0.0,0.0,-3.3837,-3.4995,0.0,0.0,0.0,0.0,0.0,-3.0139,-2.9792,-2.9792,-2.9792,-2.9792,-2.9792,-2.9792,-2.9089,-2.8109,-2.8109,-2.7864,-2.7537,-2.7537,-2.7537,-2.7537,-2.7537,-2.7537,-2.7537,-2.7537,-2.7537,-2.7537,-2.7537,-2.7537,-2.7571,-2.767,-2.8182,-2.8716,-2.8939,-2.9504,-2.9981,-3.0103,-3.0673,-3.1161,0.0,0.0,0.0,0.0,0.0,0.0,0.0,0.0,0.0,0.0,0.0,0.0,0.0,0.0,-2.6648,-2.598,-2.6424,0.0,0.0,0.0,0.0,-2.6512,-2.6964,-2.6741,-2.5824,0.0,-2.5059,-2.4205,-2.3446,-2.3108,-2.3108,-2.3108,-2.2807,-2.2309,-2.2309,-2.2046,-2.1543,-2.0943,-2.0729,-2.0792,-2.0717,-2.0427,-2.0062,-2.0453,-2.0264,-1.9723,0.0,0.0,0.0,0.0,0.0,-3.8357,-3.8772,-3.9724,-4.0421,-4.063,-4.1014,-4.1049,-4.0463,-3.9452,-3.8543,-3.7824,-3.7262,0.0,0.0,0.0,0.0,-3.494,-3.4525,-3.4245,-3.4022,-3.3542,-3.3269,0.0,0.0,0.0,-3.2855,-3.3113,0.0,0.0,0.0,0.0,-3.0037,-2.9869,0.0,-2.9792,-2.9792,-2.9792,-2.9792,-2.9792,-2.9089,-2.8109,-2.8109,-2.75,-2.6714,-2.6714,-2.6714,-2.6714,-2.6714,-2.6714,-2.6714,-2.6714,-2.6714,-2.6714,-2.6714,-2.6714,-2.6871,-2.755,-2.7317,-2.7284,-2.8684,-2.8556,-2.8363,-2.9097,-2.9348,-2.9442,-2.9442,0.0,0.0,0.0,0.0,0.0,0.0,0.0,0.0,0.0,0.0,0.0,0.0,0.0,0.0,0.0,0.0,0.0,0.0,0.0,0.0,0.0,-2.6587,0.0,0.0,0.0,-2.5084,-2.5297,-2.3797,-2.3108,-2.3108,-2.3108,-2.2807,-2.2309,-2.2309,-2.2259,-2.2083,-2.1106,-2.0968,-2.1333,-2.0867,-2.0918,-2.1091,-2.0263,-1.9886,-1.9723,0.0,0.0,0.0,0.0,0.0,0.0,0.0,-3.8673,0.0,-3.8854,-3.8681,-3.8444,-3.8062,-3.7275,-3.6647,-3.6294,-3.5974,-3.5313,-3.4235,-3.4155,-3.3666,-3.2565,-3.2678,0.0,-3.2357,-3.253,-3.2593,-3.2593,0.0,0.0,-3.1888,0.0,0.0,0.0,0.0,-3.0203,0.0,0.0,0.0,-2.9792,-2.9792,-2.9792,-2.9792,-2.9792,-2.9089,-2.8109,-2.8109,-2.7394,-2.6499,-2.6499,-2.6499,-2.6499,-2.6499,-2.6499,-2.6499,-2.6499,-2.6499,-2.6499,-2.6499,-2.6499,-2.6514,-2.6588,-2.6553,-2.6637,-2.7112,-2.7479,-2.7835,-2.8247,-2.8684,-2.9002,-2.9002,-2.9002,0.0,0.0,0.0,0.0,0.0,0.0,0.0,0.0,0.0,0.0,0.0,0.0,0.0,0.0,0.0,0.0,0.0,0.0,0.0,0.0,0.0,0.0,0.0,0.0,0.0,-2.4757,-2.3622,-2.3108,-2.3108,-2.3108,-2.2807,-2.2334,-2.2581,-2.2543,-2.2246,-2.143,-2.1106,-2.1031,-2.0465,-2.0376,-2.0539,-1.9999,-1.9798,-1.9761,0.0,-3.7202,0.0,0.0,-3.7826,0.0,-3.7864,-3.7462,-3.7143,-3.6962,-3.6251,-3.5766,-3.571,-3.5292,-3.4927,-3.4736,-3.4719,-3.4083,-3.2581,-3.2503,-3.1875,-3.0497,-3.1151,-3.1327,-3.0908,-3.1609,-3.201,0.0,0.0,0.0,0.0,0.0,0.0,0.0,0.0,0.0,0.0,0.0,-2.9792,-2.9792,-2.9792,-2.9792,-2.9792,-2.9792,-2.9164,-2.826,-2.8147,-2.7469,-2.665,-2.6537,-2.6499,-2.6499,-2.6499,-2.6499,-2.6499,-2.6499,-2.6499,-2.6499,-2.6499,-2.6499,-2.6386,-2.5921,-2.616,-2.6373,-2.5921,-2.664,-2.7451,-2.7451,-2.7986,-2.8524,-2.8684,-2.8588,0.0,0.0,0.0,0.0,0.0,0.0,0.0,0.0,0.0,0.0,0.0,0.0,0.0,0.0,0.0,0.0,0.0,0.0,0.0,0.0,0.0,-2.6904,-2.6138,0.0,-2.5059,-2.433,-2.3496,-2.3108,-2.3108,-2.3108,-2.2869,-2.2481,-2.292,-2.2794,-2.2284,-2.197,-2.1443,-2.0817,-2.0239,-1.9987,-1.9974,-1.9849,-1.9798,-1.9798,0.0,0.0,0.0,0.0,0.0,0.0,-3.7412,-3.7211,-3.7008,-3.6534,-3.5108,-3.4098,-3.4116,-3.3624,-3.3093,-3.2545,-3.2482,-3.201,-3.0905,-3.0842,-3.0563,-2.9892,-2.9971,-2.9984,-2.9934,-2.9998,-3.0075,0.0,0.0,0.0,0.0,0.0,0.0,0.0,0.0,0.0,0.0,-2.9792,-2.9792,-2.9792,-2.9792,-2.9792,-2.9792,-2.9792,-2.9402,-2.875,-2.8285,-2.772,-2.7165,-2.6663,-2.6499,-2.6499,-2.6499,-2.6499,-2.6499,-2.6499,-2.6499,-2.6499,-2.6499,-2.6499,-2.6474,-2.6424,-2.6449,-2.6474,-2.6424,-2.6517,-2.6624,-2.6624,-2.6692,-2.6973,-2.7703,-2.7229,-2.7229,0.0,0.0,0.0,0.0,0.0,0.0,0.0,0.0,0.0,0.0,0.0,0.0,0.0,0.0,0.0,0.0,0.0,0.0,-2.7241,0.0,-2.7469,-2.7858,-2.5887,-2.5084,-2.5423,-2.3847,-2.3108,-2.3108,-2.3108,-2.3083,-2.3032,-2.3083,-2.2794,-2.2347,-2.2769,-2.2359,-2.1355,-2.083,-2.0616,-2.0541,-1.9987,-1.9798,-1.9798,0.0,0.0,0.0,0.0,0.0,0.0,0.0,-3.6621,-3.5881,-3.5002,-3.4311,-3.3771,-3.3432,-3.3206,-3.2842,-3.2265,-3.1913,-3.1399,-3.067,-3.0306,-3.0018,-2.9804,-2.9792,-2.9792,-2.9792,-2.9792,-2.9792,0.0,0.0,0.0,0.0,0.0,0.0,0.0,0.0,-2.9792,-2.9792,-2.9792,-2.9792,-2.9792,-2.9792,-2.9792,-2.9792,-2.9792,-2.9428,-2.8813,-2.8298,-2.7758,-2.7241,-2.6688,-2.6499,-2.6499,-2.6499,-2.6499,-2.6499,-2.6499,-2.6499,-2.6499,-2.6499,-2.6499,-2.6411,-2.6059,-2.6235,-2.6399,-2.6047,-2.6248,-2.6499,-2.6499,-2.6499,-2.6589,-2.6905,-2.6714,-2.6714,0.0,0.0,0.0,0.0,0.0,0.0,0.0,0.0,0.0,0.0,0.0,0.0,0.0,0.0,0.0,0.0,0.0,0.0,-2.777,0.0,-2.709,-2.7607,-2.6063,-2.5234,-2.5121,-2.4117,-2.3446,-2.3108,-2.3108,-2.3108,-2.3083,-2.2757,-2.2681,-2.2769,-2.2656,-2.2184,-2.1458,-2.0905,-2.0478,-2.0125,-1.9886,-1.9798,-1.9798,-3.7475,0.0,-3.8241,0.0,-3.8642,-3.8078,-3.7513,-3.631,-3.5157,-3.4261,-3.3859,-3.3508,-3.3162,-3.3124,-3.278,-3.2039,-3.1612,-3.1097,-3.0419,-3.0005,-2.9792,-2.9792,-2.9792,0.0,-2.9792,-2.9792,-2.9792,-2.9792,-3.0181,0.0,0.0,0.0,0.0,0.0,-2.9792,-2.9792,-2.9792,-2.9792,-2.9792,-2.9792,-2.9792,-2.9792,-2.9792,-2.9792,-2.9541,-2.9076,-2.8549,-2.7996,-2.7444,-2.6927,-2.6625,-2.6499,-2.6499,-2.6499,-2.6499,-2.6499,-2.6499,-2.6499,-2.6499,-2.6499,-2.6399,-2.5984,-2.6185,-2.6386,-2.5971,-2.6197,-2.6499,-2.6499,-2.6499,-2.6499,-2.6499,-2.6499,-2.6499,-2.6499,0.0,0.0,0.0,0.0,0.0,0.0,0.0,-2.423,-2.4512,0.0,0.0,0.0,0.0,0.0,0.0,0.0,0.0,0.0,0.0,0.0,0.0,-2.6239,-2.541,-2.5046,-2.4494,-2.3998,-2.3609,-2.376,-2.3659,-2.3358,-2.3314,-2.3226,-2.307,-2.2681,-2.2234,-2.1656,-2.0968,-2.044,-2.0037,-1.9861,-1.9798,-1.9798,-3.7889,-3.8002,-3.8366,-3.9484,-3.9233,-3.8668,-3.809,-3.6549,-3.5307,-3.4743,-3.3759,-3.3124,-3.3124,-3.3124,-3.2616,-3.1499,-3.1386,-3.0934,-2.9867,-2.9792,-2.9792,0.0,0.0,-2.9792,-2.9792,-2.9792,-2.9792,-2.9792,0.0,0.0,-3.0608,0.0,-3.0319,-2.9792,-2.9792,-2.9792,-2.9792,-2.9792,-2.9792,-2.9792,-2.9792,-2.9792,-2.9792,-2.9792,-2.9792,-2.9704,-2.9126,-2.8561,-2.8009,-2.7457,-2.6952,-2.6499,-2.6499,-2.6499,-2.6499,-2.6499,-2.6499,-2.6499,-2.6499,-2.6499,-2.6499,-2.6487,-2.6487,-2.6499,-2.6487,-2.6487,-2.6499,-2.6499,-2.6499,-2.6499,-2.6499,-2.6499,-2.6499,-2.6499,0.0,0.0,0.0,0.0,0.0,0.0,-2.6109,-2.582,-2.4167,0.0,0.0,0.0,0.0,0.0,0.0,0.0,0.0,-2.8084,-2.7557,0.0,-2.8097,-2.6427,-2.5598,-2.5573,-2.5059,-2.4775,-2.4788,-2.5335,-2.4983,-2.4054,-2.5096,-2.4632,-2.3108,-2.3095,-2.2769,-2.2196,-2.1119,-2.0691,-2.0616,-2.0012,-1.9798,-1.9798,-3.7487,-3.7751,-3.8241,-3.8994,-3.8354,-3.7525,-3.6973,-3.5805,-3.4743,-3.4236,-3.3859,-3.3495,-3.3162,-3.2717,-3.234,0.0,-3.1286,-3.0721,0.0,-2.9993,-2.9792,-2.9792,-2.9792,-2.9792,-2.9792,-2.9792,-2.9792,-2.9792,0.0,0.0,0.0,-3.0231,-2.9955,-2.9792,-2.9792,-2.9792,-2.9792,-2.9792,-2.9792,-2.9792,-2.9792,-2.9792,-2.9792,-2.9792,-2.9792,-2.9716,-2.9139,-2.8574,-2.8021,-2.7469,-2.6952,-2.6499,-2.6499,-2.6499,-2.6499,-2.6499,-2.6499,-2.6499,-2.6499,-2.6499,-2.6499,-2.6499,-2.6499,-2.6499,-2.6499,-2.6499,-2.6499,-2.6499,-2.6499,-2.6499,-2.6499,-2.6499,-2.6499,-2.6499,-2.6499,0.0,0.0,0.0,0.0,0.0,0.0,-2.4582,0.0,-2.5682,0.0,0.0,0.0,0.0,0.0,0.0,0.0,0.0,-2.777,0.0,-2.8097,-2.7205,-2.6352,-2.5598,-2.5435,-2.5159,-2.48,-2.4996,-2.4682,-2.4017,-2.4356,-2.3979,-2.3108,-2.3108,-2.2782,-2.2284,-2.192,-2.1358,-2.0666,-2.0478,-2.0137,-1.9798,-3.6709,-3.7186,-3.7814,-3.8178,-3.7826,-3.7312,-3.6807,-3.573,-3.4826,-3.4274,-3.4035,-3.3684,-3.3174,-3.2554,0.0,-3.1926,-3.111,-3.052,-3.0319,-2.998,-2.9792,-2.9792,-2.9792,-2.9792,-2.9792,-2.9792,0.0,-2.9792,-3.0143,-3.0306,-3.0306,-2.9955,-2.9792,-2.9792,-2.9792,-2.9792,-2.9792,-2.9792,-2.9792,-2.9792,-2.9792,-2.9792,-2.9792,-2.9792,-2.9792,-2.9741,-2.939,-2.8762,-2.8059,-2.7708,-2.7115,-2.6499,-2.6499,-2.6499,-2.6499,-2.6499,-2.6499,-2.6499,-2.6499,-2.6499,-2.6499,-2.6499,-2.6499,-2.6499,-2.6499,-2.6499,-2.6499,-2.6499,-2.6499,-2.6499,-2.6499,-2.6499,-2.6499,-2.6499,-2.6499,-2.6411,-2.6197,0.0,0.0,0.0,0.0,0.0,0.0,-2.5757,-2.6549,0.0,0.0,0.0,0.0,0.0,0.0,-2.8863,-2.8059,0.0,-2.8109,-2.7557,-2.6851,-2.5925,-2.5925,-2.5749,-2.5435,-2.5435,-2.5021,-2.4305,-2.4305,-2.3822,-2.3108,-2.3108,-2.2895,-2.2569,-2.2397,-2.1895,-2.1257,-2.0842,-2.0465,-2.01,-3.5696,-3.637,-3.7086,0.0,-3.755,0.0,-3.7211,-3.6232,-3.532,-3.4806,-3.4299,-3.3746,-3.3194,-3.2554,-3.1964,-3.1486,0.0,0.0,0.0,-2.9854,-2.9854,-2.9854,-2.9817,-2.9792,-2.9792,-2.9792,-2.9792,-2.9792,-2.9792,-2.9792,-2.9792,-2.9792,-2.9792,-2.9792,-2.9792,-2.9792,-2.9792,-2.9792,-2.9792,-2.9792,-2.9792,-2.9792,-2.9792,-2.9792,-2.9792,-2.9792,-2.9792,-2.9089,-2.816,-2.8122,-2.7394,-2.6549,-2.6499,-2.6499,-2.6499,-2.6499,-2.6499,-2.6499,-2.6499,-2.6499,-2.6499,-2.6499,-2.6499,-2.6499,-2.6499,-2.6499,-2.6499,-2.6499,-2.6499,-2.6499,-2.6499,-2.6499,-2.6499,-2.6499,-2.6499,-2.6298,-2.5674,0.0,0.0,0.0,0.0,0.0,0.0,-2.616,-2.6298,0.0,0.0,0.0,0.0,0.0,-2.8888,-2.8888,-2.8436,-2.816,-2.816,-2.7607,-2.7077,-2.6499,-2.6499,-2.6499,-2.6499,-2.6499,-2.5896,-2.4788,-2.4788,-2.4148,-2.3108,-2.3108,-2.3108,-2.3058,-2.2543,-2.2347,-2.2184,-2.1182,-2.0727,-2.0562,0.0,0.0,-3.6069,-3.6531,-3.6707,-3.6757,-3.6619,-3.5981,-3.5445,-3.532,-3.4818,-3.4324,-3.3771,-3.2441,-3.17,-3.1989,-3.1524,-3.0984,-3.0457,-3.0419,-3.0419,-3.0419,-3.0018,-2.9792,-2.9792,-2.9792,-2.9792,-2.9792,-2.9792,-2.9792,-2.9792,-2.9792,-2.9792,-2.9792,-2.9792,-2.9792,-2.9792,-2.9792,-2.9792,-2.9792,-2.9792,-2.9792,-2.9792,-2.9792,-2.9792,-2.9792,-2.9792,-2.934,-2.8637,-2.8247,-2.7657,-2.7052,-2.6625,-2.6499,-2.6499,-2.6499,-2.6499,-2.6499,-2.6499,-2.6499,-2.6499,-2.6499,-2.6499,-2.6499,-2.6499,-2.6499,-2.6499,-2.6499,-2.6499,-2.6499,-2.6499,-2.6499,-2.6499,-2.6499,-2.6499,-2.6298,-2.5674,-2.5485,0.0,0.0,-2.5247,-2.546,-2.5586,-2.616,-2.6788,0.0,0.0,0.0,0.0,-2.9026,-2.8888,-2.8888,-2.8762,-2.87,-2.87,-2.8185,-2.7419,-2.6499,-2.6499,-2.6499,-2.6499,-2.6499,-2.5896,-2.4788,-2.4788,-2.4148,-2.3108,-2.3108,-2.3108,-2.3095,-2.2957,-2.2656,-2.2284,-2.202,-2.1032,-1.9998,-3.4843,-3.4956,-3.5219,-3.5554,-3.6044,-3.6383,-3.6405,-3.6107,-3.583,-3.5533,-3.5019,-3.4412,-3.3608,-3.2466,-3.1788,-3.1838,-3.1122,-3.0645,-3.062,-3.0382,-3.0231,-3.0231,-2.9955,-2.9792,-2.9792,-2.9792,-2.9792,-2.9792,-2.9792,-2.9792,-2.9792,-2.9792,-2.9792,-2.9792,-2.9792,-2.9792,-2.9792,-2.9792,-2.9792,-2.9792,-2.9792,-2.9792,-2.9792,-2.9792,-2.9792,-2.9792,-2.9792,-2.9415,-2.8813,-2.8298,-2.7733,-2.7216,-2.6663,-2.6499,-2.6499,-2.6499,-2.6499,-2.6499,-2.6499,-2.6499,-2.6499,-2.6499,-2.6499,-2.6499,-2.6499,-2.6285,-2.6172,-2.6436,-2.6285,-2.6185,-2.6449,-2.6499,-2.6499,-2.6499,-2.6499,-2.6298,-2.5674,-2.5598,0.0,-2.5573,-2.5824,-2.6122,-2.6339,-2.6688,-2.7014,-2.7318,-2.7544,0.0,-2.8976,-2.9214,-2.9327,-2.9327,-2.9327,-2.9202,-2.8888,-2.8134,-2.7431,-2.6864,-2.6612,-2.6499,-2.6499,-2.6499,-2.5896,-2.4788,-2.4788,-2.4148,-2.3078,-2.2702,-2.2763,-2.3078,-2.2702,-2.2607,-2.2631,-2.2397,-2.1691,-2.0795,-3.4211,-3.4399,-3.468,-3.468,-3.5592,-3.627,-3.6245,-3.6279,-3.6044,-3.5445,-3.4818,-3.411,-3.3224,-3.2416,-3.1851,-3.1537,-3.0457,-3.0055,-3.0696,-3.0294,-3.0005,-2.9917,-2.9829,-2.9792,-2.9792,-2.9792,-2.9792,-2.9792,-2.9792,-2.9792,-2.9792,-2.9792,-2.9792,-2.9792,-2.9792,-2.9792,-2.9792,-2.9792,-2.9792,-2.9792,-2.9792,-2.9792,-2.9792,-2.9792,-2.9792,-2.9792,-2.9792,-2.9478,-2.8925,-2.8323,-2.7795,-2.7293,-2.6688,-2.6499,-2.6499,-2.6499,-2.6499,-2.6499,-2.6499,-2.6499,-2.6499,-2.6499,-2.6499,-2.6499,-2.6499,-2.6109,-2.5862,-2.6386,-2.6097,-2.5908,-2.6411,-2.6499,-2.6524,-2.66,-2.6549,-2.6323,-2.5799,0.0,-2.6,-2.6449,-2.6637,-2.6901,-2.7278,-2.7281,-2.7115,-2.665,-2.7457,-2.8059,-2.8222,-2.9139,-2.9704,-2.9792,-2.9792,-2.9478,-2.8775,-2.7871,-2.7318,-2.719,-2.6713,-2.6499,-2.6499,-2.6499,-2.5933,-2.4933,-2.4825,-2.4199,-2.316,-2.242,-2.2414,-2.2854,-2.2168,-2.2322,-2.2864,-2.2392,-2.2197,-2.1911,-3.4625,-3.4618,-3.468,-3.468,-3.5207,-3.5633,-3.5621,-3.5621,-3.542,-3.4881,-3.396,-3.3269,-3.3136,-3.175,-3.1198,-3.2014,-3.0683,-3.0218,-3.1198,-3.1185,-3.0947,-3.0507,-3.0043,-2.9792,-2.9792,-2.9792,-2.9792,-2.9792,-2.9792,-2.9792,-2.9792,-2.9792,-2.9792,-2.9792,-2.9792,-2.9792,-2.9792,-2.9792,-2.9792,-2.9792,-2.9792,-2.9792,-2.9792,-2.9792,-2.9792,-2.9792,-2.9792,-2.9729,-2.9503,-2.8461,-2.8047,-2.7795,-2.6813,-2.6499,-2.6499,-2.6499,-2.6499,-2.6499,-2.6499,-2.6499,-2.6499,-2.6499,-2.6499,-2.6499,-2.6499,-2.6424,-2.6386,-2.6474,-2.6424,-2.6386,-2.6474,-2.6499,-2.665,-2.7115,-2.6801,-2.6461,-2.6373,0.0,-2.6914,-2.6537,-2.7281,-2.7708,-2.7354,-2.7281,-2.7291,-2.719,-2.7318,-2.7821,-2.8712,-2.8925,-2.9289,-2.9779,-2.9792,-2.9289,-2.8247,-2.8059,-2.7507,-2.6612,-2.6537,-2.6499,-2.6499,-2.6499,-2.6135,-2.5448,-2.5008,-2.4424,-2.3797,-2.3174,-2.2598,-2.2063,-2.1939,-2.197,-2.2094,-2.201,-2.1716,-2.138,-3.4274,-3.4035,-3.3935,-3.4223,-3.4693,-3.5157,-3.5458,-3.5805,-3.5793,-3.5194,-3.4211,-3.3407,-3.3106,-3.1599,-3.0934,-3.17,-3.0834,-3.0444,-3.0947,-3.0696,-3.0419,-3.0181,-2.993,-2.9792,-2.9792,-2.9792,-2.9792,-2.9792,-2.9792,-2.9792,-2.9792,-2.9792,-2.9792,-2.9792,-2.9792,-2.9792,-2.9792,-2.9792,-2.9792,-2.9792,-2.9792,-2.9792,-2.9792,-2.9792,-2.9792,-2.9792,-2.9792,-2.9792,-2.9628,-2.8486,-2.8109,-2.7908,-2.6839,-2.6499,-2.6499,-2.6499,-2.6499,-2.6499,-2.6499,-2.6499,-2.6499,-2.6499,-2.6499,-2.6499,-2.6499,-2.6248,-2.6122,-2.6436,-2.6248,-2.6122,-2.6436,-2.6738,-2.7014,-2.7278,-2.7318,0.0,0.0,-2.7557,-2.7745,-2.7783,-2.7971,-2.8122,-2.816,-2.7632,-2.7406,-2.7708,-2.772,-2.8084,-2.885,-2.9227,-2.9365,-2.9327,-2.9628,-2.939,-2.8561,-2.8247,-2.7846,-2.7344,-2.6788,-2.6499,-2.6499,-2.6499,-2.6172,-2.5573,-2.5046,-2.4506,-2.3923,-2.2862,-2.2476,-2.2445,-2.1553,-2.1491,-2.1846,-2.1365,-2.1057,-2.0807,-3.411,-3.3746,-3.3558,-3.3847,-3.4148,-3.4562,-3.5207,-3.5604,-3.5642,-3.5169,-3.4311,-3.3445,-3.2767,-3.1449,-3.0821,-3.1348,-3.0796,-3.0532,-3.0783,-3.0168,-2.9792,-2.9792,-2.9792,-2.9792,-2.9792,-2.9792,-2.9792,-2.9792,-2.9792,-2.9792,-2.9792,-2.9792,-2.9792,-2.9792,-2.9792,-2.9792,-2.9792,-2.9792,-2.9792,-2.9792,-2.9792,-2.9792,-2.9792,-2.9792,-2.9792,-2.9792,-2.9792,-2.9792,-2.9641,-2.8637,-2.821,-2.7934,-2.6989,-2.66,-2.6499,-2.6499,-2.6587,-2.6663,-2.6524,-2.6587,-2.6663,-2.6524,-2.6499,-2.6452,-2.6198,-2.5794,-2.5528,-2.574,-2.5632,-2.5645,-2.6238,-2.6839,-2.7369,-2.762,0.0,0.0,0.0,-2.8298,-2.8448,-2.8838,-2.8674,-2.8612,-2.8863,-2.816,-2.7783,-2.8084,-2.8222,-2.8486,-2.8863,-2.9478,-2.9528,-2.8913,-2.9365,-2.9377,-2.89,-2.8511,-2.8172,-2.7908,-2.709,-2.6612,-2.6499,-2.6499,-2.6248,-2.5762,-2.5109,-2.4582,-2.4067,-2.2725,-2.2445,-2.2659,-2.1195,-2.1005,-2.1491,-2.0623,-2.043,-2.0406,-3.4718,-3.4625,-3.4449,-3.3985,-3.3508,-3.3558,-3.4625,-3.4374,-3.4073,-3.4022,-3.3508,-3.2717,-3.1637,-3.0972,-3.0821,-3.1348,-3.0444,-3.0269,-3.1273,-3.0369,-2.9792,-2.9792,-2.9792,-2.9792,-2.9792,-2.9792,-2.9792,-2.9792,-2.9792,-2.9792,-2.9792,-2.9792,-2.9792,-2.9792,-2.9792,-2.9792,-2.9792,-2.9792,-2.9792,-2.9792,-2.9792,-2.9792,-2.9792,-2.9792,-2.9792,-2.9792,-2.9792,-2.9792,-2.9691,-2.9076,-2.8524,-2.7996,-2.7406,-2.6901,-2.6499,-2.6499,-2.6851,-2.714,-2.6637,-2.6864,-2.714,-2.6625,-2.6499,-2.6245,-2.5335,-2.5087,-2.4779,-2.3916,-2.4421,-2.5206,-2.5744,-2.6635,-2.762,-2.8599,0.0,0.0,-2.8762,-2.8838,-2.885,-2.8888,-2.9365,-2.9478,-2.8938,-2.8813,-2.8574,-2.8134,-2.8549,-2.885,-2.8888,-2.9478,-2.9528,-2.8913,-2.8938,-2.8938,-2.8888,-2.885,-2.8348,-2.7379,-2.7291,-2.6989,-2.6499,-2.6499,-2.6474,-2.6373,-2.5285,-2.4763,-2.465,-2.3485,-2.2598,-2.1908,-2.0942,-2.0655,-2.059,-1.9726,-1.9911,-2.0462,-3.4718,-3.4449,-3.4035,-3.3483,-3.3262,-3.3332,-3.4098,-3.4324,-3.4537,-3.4831,-3.4449,-3.3809,-3.3031,-3.1838,-3.1173,-3.1373,-3.0419,-2.9967,-3.0369,-3.0018,-2.9792,-2.9792,-2.9792,-2.9792,-2.9792,-2.9792,-2.9792,-2.9792,-2.9792,-2.9792,-2.9792,-2.9792,-2.9792,-2.9792,-2.9792,-2.9792,-2.9792,-2.9792,-2.9792,-2.9792,-2.9792,-2.9792,-2.9792,-2.9792,-2.9792,-2.9792,-2.9792,-2.9792,-2.9626,-2.8352,-2.76,-2.6941,-2.5747,-2.522,-2.5177,-2.5769,-2.5683,-2.5464,-2.5551,-2.642,-2.7231,-2.7052,-2.6751,-2.6245,-2.5229,-2.5004,-2.4707,-2.3708,-2.4031,-2.4574,-2.4783,-2.6176,-2.744,-2.7853,0.0,-2.9227,-2.9428,-2.9465,-2.9465,-2.9465,-2.934,-2.9315,-2.9453,-2.8837,-2.8624,-2.9114,-2.9013,-2.9051,-2.9453,-2.934,-2.9315,-2.9465,-2.9076,-2.8561,-2.7914,-2.8573,-2.835,-2.7307,-2.7642,-2.7682,-2.7482,-2.7482,-2.7146,-2.6506,-2.6387,-2.5565,-2.4292,-2.4194,-2.3549,-2.2567,-2.171,-2.108,-2.0494,-1.9628,-1.9177,-1.8944,-3.4969,-3.4537,-3.3935,-3.3206,-3.278,-3.2729,-3.3282,-3.3847,-3.4399,-3.4906,-3.4956,-3.4655,-3.3985,-3.2717,-3.1851,-3.1662,-3.067,-3.0043,-3.0043,-2.9892,-2.9792,-2.9792,-2.9792,-2.9792,-2.9792,-2.9792,-2.9792,-2.9792,-2.9792,-2.9792,-2.9792,-2.9792,-2.9792,-2.9792,-2.9792,-2.9792,-2.9792,-2.9792,-2.9792,-2.9792,-2.9792,-2.9792,-2.9792,-2.9792,-2.9792,-2.9792,-2.9792,-2.9792,-2.9561,-2.8056,-2.7243,-2.6552,-2.5095,-2.4535,-2.4527,-2.5171,-2.5047,-2.4788,-2.511,-2.5954,-2.6749,-2.6633,-2.616,-2.5612,-2.4918,-2.4586,-2.4171,-2.3205,-2.3492,-2.3996,-2.4149,-2.5615,-2.6929,-2.7486,-2.8249,-2.887,-2.9236,-2.9,-2.8752,-2.8752,-2.8697,-2.8804,-2.9238,-2.8874,-2.8963,-2.9729,-2.9083,-2.8829,-2.925,-2.8705,-2.8834,-2.9779,-2.9189,-2.8292,-2.7037,-2.8091,-2.8007,-2.6792,-2.7157,-2.7407,-2.7607,-2.7607,-2.7385,-2.7001,-2.6846,-2.5826,-2.4294,-2.4001,-2.3518,-2.28,-2.1549,-2.0878,-2.0462,-1.9299,-1.8529,-1.8008,-3.5608,-3.5056,-3.4374,-3.3269,-3.2139,-3.1574,-3.2127,-3.2704,-3.3269,-3.3834,-3.4818,-3.5082,-3.4035,-3.342,-3.2855,-3.2265,-3.1235,-3.062,-3.0608,-3.0093,-2.9792,-2.9792,-2.9792,-2.9792,-2.9792,-2.9792,-2.9792,-2.9792,-2.9792,-2.9792,-2.9792,-2.9792,-2.9792,-2.9792,-2.9792,-2.9792,-2.9792,-2.9792,-2.9792,-2.9792,-2.9792,-2.9792,-2.9792,-2.9792,-2.9792,-2.9792,-2.9792,-2.9792,-2.9624,-2.8466,-2.7751,-2.7077,-2.595,-2.5216,-2.4787,-2.4787,-2.5171,-2.559,-2.559,-2.559,-2.5481,-2.5107,-2.4584,-2.4189,-2.42,-2.3744,-2.302,-2.2071,-2.2646,-2.3479,-2.4073,-2.4965,-2.616,-2.7801,-2.7197,-2.6883,-2.7924,-2.7168,-2.6524,-2.6524,-2.7452,-2.8096,-2.8096,-2.9106,-2.9792,-2.9792,-2.8727,-2.8096,-2.8096,-2.7596,-2.8053,-2.9728,-2.9201,-2.8116,-2.6513,-2.7562,-2.7254,-2.5601,-2.5601,-2.5921,-2.651,-2.651,-2.7086,-2.7975,-2.631,-2.5383,-2.4827,-2.2752,-2.2138,-2.2289,-2.0161,-1.9824,-2.0365,-1.8664,-1.8018,-1.8018,-3.541,-3.5056,-3.4248,-3.2729,-3.1876,-3.1449,-3.1612,-3.2114,-3.2955,-3.4299,-3.5056,-3.537,-3.5044,-3.4562,-3.3684,-3.2328,-3.1562,-3.0834,-3.0093,-2.988,-2.9792,-2.9792,-2.9792,-2.9792,-2.9792,-2.9792,-2.9792,-2.9792,-2.9792,-2.9792,-2.9792,-2.9792,-2.9792,-2.9792,-2.9792,-2.9792,-2.9792,-2.9792,-2.9792,-2.9792,-2.9792,-2.9792,-2.9792,-2.9792,-2.9792,-2.9792,-2.9792,-2.9275,-2.8438,-2.7331,-2.6136,-2.4914,-2.3795,-2.3134,-2.2961,-2.3954,-2.3637,-2.3135,-2.3814,-2.3511,-2.3389,-2.5016,-2.5031,-2.4459,-2.3717,-2.3427,-2.302,-2.2071,-2.235,-2.2787,-2.2968,-2.4127,-2.5206,-2.5712,-2.6171,-2.6595,-2.6924,-2.6678,-2.6524,-2.6524,-2.676,-2.6964,-2.6964,-2.7988,-2.8597,-2.8597,-2.8307,-2.8096,-2.8096,-2.7221,-2.7301,-2.8557,-2.844,-2.81,-2.7643,-2.7924,-2.7065,-2.5038,-2.5837,-2.6343,-2.6479,-2.6166,-2.5939,-2.5776,-2.5735,-2.4937,-2.3643,-2.3198,-2.2655,-2.1981,-2.1019,-2.027,-1.9703,-1.9793,-1.9219,-1.8461,-3.4856,-3.4431,-3.3523,-3.2363,-3.1921,-3.146,-3.077,-3.1746,-3.2918,-3.3935,-3.4738,-3.5257,-3.547,-3.4806,-3.3897,-3.2654,-3.1449,-3.057,-3.0143,-2.9489,-2.9326,-2.9792,-2.8961,-2.891,-2.9792,-2.9365,-2.9365,-2.9792,-2.9365,-2.9365,-2.9792,-2.9792,-2.9792,-2.9792,-2.9792,-2.9534,-2.9118,-2.9118,-2.887,-2.8502,-2.8502,-2.8752,-2.9118,-2.9118,-2.9404,-2.9792,-2.9792,-2.9067,-2.7924,-2.6842,-2.529,-2.3652,-2.2959,-2.2588,-2.2559,-2.338,-2.3026,-2.25,-2.3079,-2.2806,-2.2718,-2.4232,-2.4237,-2.3858,-2.3614,-2.3392,-2.3079,-2.25,-2.2578,-2.2721,-2.2721,-2.3501,-2.4296,-2.4745,-2.501,-2.5305,-2.5755,-2.5431,-2.5147,-2.5147,-2.5557,-2.585,-2.585,-2.683,-2.7279,-2.6808,-2.6808,-2.6808,-2.6808,-2.616,-2.6337,-2.7441,-2.7481,-2.7227,-2.6808,-2.6808,-2.6108,-2.4787,-2.5052,-2.5389,-2.5839,-2.5532,-2.5333,-2.5202,-2.5167,-2.4247,-2.2739,-2.2632,-2.2114,-2.1355,-2.0863,-2.0418,-2.0056,-2.0088,-1.9679,-1.9114,-3.3862,-3.3327,-3.2441,-3.1989,-3.1916,-3.1434,-2.9893,-3.1498,-3.2932,-3.3068,-3.3997,-3.4818,-3.537,-3.4613,-3.3809,-3.3206,-3.1223,-3.0181,-3.0583,-2.9067,-2.8645,-2.9753,-2.7758,-2.7597,-2.9585,-2.8636,-2.8557,-2.9507,-2.8557,-2.8597,-2.9495,-2.9585,-2.9663,-2.9663,-2.9753,-2.9157,-2.8096,-2.8096,-2.7481,-2.6483,-2.6528,-2.7144,-2.8035,-2.8115,-2.88,-2.9699,-2.9675,-2.8897,-2.7763,-2.6584,-2.4808,-2.3091,-2.3091,-2.3091,-2.3091,-2.3091,-2.3091,-2.3091,-2.3091,-2.3091,-2.3091,-2.3091,-2.2808,-2.2771,-2.3721,-2.3486,-2.3091,-2.3091,-2.3091,-2.3091,-2.3091,-2.3091,-2.343,-2.4457,-2.38,-2.3464,-2.45,-2.3757,-2.3091,-2.3091,-2.4006,-2.467,-2.467,-2.5672,-2.5975,-2.4999,-2.4872,-2.4787,-2.4787,-2.4702,-2.5168,-2.6307,-2.6348,-2.5891,-2.4957,-2.4957,-2.483,-2.4628,-2.3594,-2.3637,-2.467,-2.4628,-2.4933,-2.5507,-2.4454,-2.3299,-2.2129,-2.1421,-2.0891,-2.0493,-2.0041,-2.0319,-2.0885,-1.9783,-1.959,-1.9853,-3.1937,-3.1935,-3.1456,-3.0527,-3.0091,-2.9913,-3.0072,-3.0592,-3.149,-3.292,-3.3658,-3.4286,-3.4793,-3.5031,-3.4756,-3.3809,-3.2466,-3.1386,-3.067,-2.9407,-2.9032,-2.9765,-2.8478,-2.7976,-2.8478,-2.8215,-2.7815,-2.7221,-2.7815,-2.7815,-2.7221,-2.8068,-2.8466,-2.8518,-2.9404,-2.9157,-2.8096,-2.8096,-2.7481,-2.6517,-2.6844,-2.7116,-2.741,-2.8292,-2.8796,-2.8963,-2.8582,-2.7775,-2.6554,-2.452,-2.3517,-2.3091,-2.3091,-2.3091,-2.3091,-2.3091,-2.3091,-2.3091,-2.3091,-2.3091,-2.3091,-2.3091,-2.3023,-2.3041,-2.3258,-2.3197,-2.3091,-2.3091,-2.3091,-2.3091,-2.3091,-2.3091,-2.3178,-2.343,-2.3266,-2.3178,-2.342,-2.3266,-2.3091,-2.3091,-2.3299,-2.3464,-2.3464,-2.451,-2.542,-2.6099,-2.5294,-2.4787,-2.4787,-2.3963,-2.4006,-2.5126,-2.5168,-2.5462,-2.6141,-2.6141,-2.5221,-2.3464,-2.3222,-2.3222,-2.3454,-2.3117,-2.3268,-2.3629,-2.2788,-2.2216,-2.1908,-2.1066,-2.0447,-2.0007,-1.9585,-1.957,-1.9736,-1.9762,-1.9834,-1.9902,-3.0665,-3.0528,-3.0062,-2.9575,-2.9503,-2.9437,-2.9037,-2.951,-3.0239,-3.1199,-3.2075,-3.2918,-3.3771,-3.379,-3.346,-3.2584,-3.1333,-3.0372,-2.9821,-2.8532,-2.7906,-2.8223,-2.6614,-2.5983,-2.6521,-2.6521,-2.6532,-2.6524,-2.7046,-2.7319,-2.729,-2.7855,-2.8096,-2.8096,-2.8199,-2.7585,-2.6532,-2.6737,-2.6178,-2.5272,-2.5637,-2.5986,-2.6346,-2.6945,-2.7391,-2.7648,-2.7423,-2.6625,-2.5431,-2.3681,-2.3091,-2.3091,-2.3091,-2.3091,-2.3091,-2.3091,-2.3091,-2.3091,-2.3091,-2.3091,-2.3091,-2.3091,-2.3091,-2.3091,-2.3091,-2.3091,-2.3091,-2.3091,-2.3091,-2.3091,-2.3091,-2.3091,-2.3091,-2.3091,-2.3091,-2.3091,-2.3091,-2.3091,-2.3091,-2.3091,-2.3091,-2.3091,-2.3091,-2.3637,-2.4264,-2.4808,-2.4339,-2.4006,-2.4006,-2.342,-2.3387,-2.3963,-2.4006,-2.4264,-2.4851,-2.4893,-2.4264,-2.3101,-2.3627,-2.392,-2.3877,-2.3116,-2.2672,-2.2519,-2.207,-2.1523,-2.0937,-2.0898,-2.0498,-1.9932,-2.0137,-2.0088,-1.993,-1.9912,-1.9785,-1.9648,-2.9672,-2.9301,-2.8733,-2.8833,-2.9202,-2.9131,-2.7968,-2.8556,-2.9144,-2.9295,-3.0189,-3.1121,-3.2002,-3.1757,-3.135,-3.099,-2.9742,-2.8868,-2.8722,-2.7239,-2.6396,-2.6483,-2.452,-2.3833,-2.4787,-2.4787,-2.5168,-2.5933,-2.6099,-2.6543,-2.7267,-2.7429,-2.755,-2.751,-2.6801,-2.5893,-2.4934,-2.5246,-2.4815,-2.3935,-2.4355,-2.4846,-2.5344,-2.5482,-2.5947,-2.6526,-2.6271,-2.5473,-2.4382,-2.343,-2.3091,-2.3091,-2.3091,-2.3091,-2.3091,-2.3091,-2.3091,-2.3091,-2.3091,-2.3091,-2.3091,-2.3091,-2.3091,-2.3091,-2.3091,-2.3091,-2.3091,-2.3091,-2.3091,-2.3091,-2.3091,-2.3091,-2.3091,-2.3091,-2.3091,-2.3091,-2.3091,-2.3091,-2.3091,-2.3091,-2.3091,-2.3091,-2.3091,-2.3091,-2.3091,-2.3091,-2.3091,-2.3091,-2.3091,-2.3091,-2.3091,-2.3091,-2.3091,-2.3091,-2.3091,-2.3299,-2.3387,-2.3387,-2.4339,-2.4702,-2.45,-2.3481,-2.2646,-2.1982,-2.1836,-2.1113,-2.0088,-2.082,-2.0605,-1.999,-2.0683,-2.0781,-2.0439,-1.9971,-1.959,-1.9346,-2.8469,-2.8449,-2.837,-2.837,-2.7855,-2.7673,-2.8518,-2.8178,-2.8075,-2.8802,-2.9015,-2.9035,-2.8773,-2.9454,-3.0157,-3.0855,-3.0044,-2.907,-2.81,-2.6584,-2.5925,-2.6494,-2.5252,-2.4617,-2.4787,-2.4787,-2.4372,-2.356,-2.4542,-2.4585,-2.38,-2.4787,-2.5241,-2.5284,-2.6141,-2.6048,-2.5319,-2.5392,-2.4988,-2.4375,-2.4805,-2.5083,-2.5208,-2.577,-2.6264,-2.6525,-2.5443,-2.4296,-2.3299,-2.3135,-2.3091,-2.3091,-2.3091,-2.3091,-2.3091,-2.3091,-2.3091,-2.3091,-2.3091,-2.3091,-2.3091,-2.3091,-2.3091,-2.3091,-2.3091,-2.3091,-2.3091,-2.3091,-2.3091,-2.3091,-2.3091,-2.3091,-2.3091,-2.3091,-2.3091,-2.3091,-2.3091,-2.3091,-2.3091,-2.3091,-2.3091,-2.3091,-2.3091,-2.3091,-2.3091,-2.3091,-2.3091,-2.3091,-2.3091,-2.3091,-2.3091,-2.3091,-2.3091,-2.3091,-2.3091,-2.4092,-2.4585,-2.4585,-2.4745,-2.4286,-2.3333,-2.2807,-2.2539,-2.2383,-2.16,-2.0996,-2.0527,-2.0644,-2.0361,-1.9922,-2.0049,-2.0049,-1.9951,-1.9531,-1.9336,-1.9346,-2.8164,-2.8105,-2.7871,-2.7617,-2.7266,-2.7048,-2.7071,-2.6766,-2.6683,-2.7035,-2.7693,-2.8166,-2.8267,-2.8885,-2.9364,-2.9639,-2.8858,-2.8063,-2.7282,-2.6398,-2.5591,-2.5011,-2.4512,-2.4139,-2.3844,-2.3844,-2.3584,-2.3091,-2.4253,-2.4542,-2.4049,-2.4542,-2.4934,-2.5143,-2.5024,-2.4944,-2.4857,-2.5108,-2.4914,-2.4473,-2.5166,-2.5146,-2.4724,-2.5025,-2.5098,-2.4992,-2.4146,-2.3507,-2.3091,-2.3091,-2.3091,-2.3091,-2.3091,-2.3091,-2.3091,-2.3091,-2.3091,-2.3091,-2.3091,-2.3091,-2.3091,-2.3091,-2.3091,-2.3091,-2.3091,-2.3091,-2.3091,-2.3091,-2.3091,-2.3091,-2.3091,-2.3091,-2.3091,-2.3091,-2.3091,-2.3091,-2.3091,-2.3091,-2.3091,-2.3091,-2.3091,-2.3091,-2.3091,-2.3091,-2.3091,-2.3091,-2.3091,-2.3091,-2.3091,-2.3091,-2.3091,-2.3091,-2.3091,-2.3091,-2.3091,-2.3594,-2.3844,-2.3844,-2.3844,-2.392,-2.4039,-2.3189,-2.2607,-2.2139,-2.1768,-2.1201,-2.0605,-2.0605,-2.0488,-2.0273,-2.0273,-2.0127,-1.9834,-1.917,-1.8926,-1.8909]},{"header":{"parameterUnit":"m.s-1","parameterCategory":1,"la1":30.6,"la2":28.766,"lo1":-90.7593,"lo2":-88.6598,"dy":0.0162,"dx":0.0183,"nx":116,"ny":114,"refTime":"2023-05-08T00:00:00:Z","depth":0,"parameterNumber":3,"parameterNumberName":"V-component_of_WINDS"},"data":[0.0,0.0,0.0,0.0,0.0,0.0,0.0,0.0,0.0,0.0,0.0,0.0,0.0,0.0,0.0,0.0,0.0,0.0,0.0,0.0,0.0,0.0,0.0,0.0,0.0,0.0,0.0,0.0,0.0,0.0,0.0,0.0,0.0,0.0,0.0,0.0,0.0,0.0,0.0,0.0,0.0,0.0,0.0,0.0,0.0,0.0,0.0,0.0,0.0,0.0,0.0,0.0,0.0,0.0,0.0,0.0,0.0,0.0,0.0,0.0,0.0,0.0,0.0,0.0,0.0,0.0,0.0,0.0,0.0,0.0,0.0,0.0,0.0,0.0,0.0,0.0,0.0,0.0,0.0,0.0,0.0,0.0,0.0,0.0,0.0,0.0,0.0,0.0,0.0,0.0,0.0,0.0,0.0,0.0,0.0,0.0,0.0,0.0,0.0,0.0,0.0,0.0,0.0,0.0,0.0,0.0,0.0,0.0,0.0,0.0,0.0,0.0,0.0,0.0,0.0,0.0,0.0,0.0,0.0,0.0,0.0,0.0,0.0,0.0,0.0,0.0,0.0,0.0,0.0,0.0,0.0,0.0,0.0,0.0,0.0,0.0,0.0,0.0,0.0,0.0,0.0,0.0,0.0,0.0,0.0,0.0,0.0,0.0,0.0,0.0,0.0,0.0,0.0,0.0,0.0,0.0,0.0,0.0,0.0,0.0,0.0,0.0,0.0,0.0,0.0,0.0,0.0,0.0,0.0,0.0,0.0,0.0,0.0,0.0,0.0,0.0,0.0,0.0,0.0,0.0,0.0,0.0,0.0,0.0,0.0,0.0,0.0,0.0,0.0,0.0,0.0,0.0,0.0,0.0,0.0,0.0,0.0,0.0,0.0,0.0,0.0,0.0,0.0,0.0,0.0,0.0,0.0,0.0,0.0,0.0,0.0,0.0,0.0,0.0,0.0,0.0,0.0,0.0,0.0,0.0,0.0,0.0,0.0,0.0,0.0,0.0,0.0,0.0,0.0,0.0,0.0,0.0,0.0,0.0,0.0,0.0,0.0,0.0,0.0,0.0,0.0,0.0,0.0,0.0,0.0,0.0,0.0,0.0,0.0,0.0,0.0,0.0,0.0,0.0,0.0,0.0,0.0,0.0,0.0,0.0,0.0,0.0,0.0,0.0,0.0,0.0,0.0,0.0,0.0,0.0,0.0,0.0,0.0,0.0,0.0,0.0,0.0,0.0,0.0,0.0,0.0,0.0,0.0,0.0,0.0,0.0,0.0,0.0,0.0,0.0,0.0,0.0,0.0,0.0,0.0,0.0,0.0,0.0,0.0,0.0,0.0,0.0,0.0,0.0,0.0,0.0,0.0,0.0,0.0,0.0,0.0,0.0,0.0,0.0,0.0,0.0,0.0,0.0,0.0,0.0,0.0,0.0,0.0,0.0,0.0,0.0,0.0,0.0,0.0,0.0,0.0,0.0,0.0,0.0,0.0,0.0,0.0,0.0,0.0,0.0,0.0,0.0,0.0,0.0,0.0,0.0,0.0,0.0,0.0,0.0,0.0,0.0,0.0,0.0,0.0,0.0,0.0,0.0,0.0,0.0,0.0,0.0,0.0,0.0,0.0,0.0,0.0,0.0,0.0,0.0,0.0,0.0,0.0,0.0,0.0,0.0,0.0,0.0,0.0,0.0,0.0,0.0,0.0,0.0,0.0,0.0,0.0,0.0,0.0,0.0,0.0,0.0,0.0,0.0,0.0,0.0,0.0,0.0,0.0,0.0,0.0,0.0,0.0,0.0,0.0,0.0,0.0,0.0,0.0,0.0,0.0,0.0,0.0,0.0,0.0,0.0,0.0,0.0,0.0,0.0,0.0,0.0,0.0,0.0,0.0,0.0,0.0,0.0,0.0,0.0,0.0,0.0,0.0,0.0,0.0,0.0,0.0,0.0,0.0,0.0,0.0,0.0,0.0,0.0,0.0,0.0,0.0,0.0,0.0,0.0,0.0,0.0,0.0,0.0,0.0,0.0,0.0,0.0,0.0,0.0,0.0,0.0,0.0,0.0,0.0,0.0,0.0,0.0,0.0,0.0,0.0,0.0,0.0,0.0,0.0,0.0,0.0,0.0,0.0,0.0,0.0,0.0,0.0,0.0,0.0,0.0,0.0,0.0,0.0,0.0,0.0,0.0,0.0,0.0,0.0,0.0,0.0,0.0,0.0,0.0,0.0,0.0,0.0,0.0,0.0,0.0,0.0,0.0,0.0,0.0,0.0,0.0,0.0,0.0,0.0,0.0,0.0,0.0,0.0,0.0,0.0,0.0,0.0,0.0,0.0,0.0,0.0,0.0,0.0,0.0,0.0,0.0,0.0,0.0,0.0,0.0,0.0,0.0,0.0,0.0,0.0,0.0,0.0,0.0,0.0,0.0,0.0,0.0,0.0,0.0,0.0,0.0,0.0,0.0,0.0,0.0,0.0,0.0,0.0,0.0,0.0,0.0,0.0,0.0,0.0,0.0,0.0,0.0,0.0,0.0,0.0,0.0,0.0,0.0,0.0,0.0,0.0,0.0,0.0,0.0,0.0,0.0,0.0,0.0,0.0,0.0,0.0,0.0,0.0,0.0,0.0,0.0,0.0,0.0,0.0,0.0,0.0,0.0,0.0,0.0,0.0,0.0,0.0,0.0,0.0,0.0,0.0,0.0,0.0,0.0,0.0,0.0,0.0,0.0,0.0,0.0,0.0,0.0,0.0,0.0,0.0,0.0,0.0,0.0,0.0,0.0,0.0,0.0,0.0,0.0,0.0,0.0,0.0,0.0,0.0,0.0,0.0,0.0,0.0,0.0,0.0,0.0,0.0,0.0,0.0,0.0,0.0,0.0,0.0,0.0,0.0,0.0,0.0,0.0,0.0,0.0,0.0,0.0,0.0,0.0,0.0,0.0,0.0,0.0,0.0,0.0,0.0,0.0,0.0,0.0,0.0,0.0,0.0,0.0,0.0,0.0,0.0,0.0,0.0,0.0,0.0,0.0,0.0,0.0,0.0,0.0,0.0,0.0,0.0,0.0,0.0,0.0,0.0,0.0,0.0,0.0,0.0,0.0,0.0,0.0,0.0,0.0,0.0,0.0,0.0,0.0,0.0,0.0,0.0,0.0,0.0,0.0,0.0,0.0,0.0,0.0,0.0,0.0,0.0,0.0,0.0,0.0,0.0,0.0,0.0,0.0,0.0,0.0,0.0,0.0,0.0,0.0,0.0,0.0,0.0,0.0,0.0,0.0,0.0,0.0,0.0,0.0,0.0,0.0,0.0,0.0,0.0,0.0,0.0,0.0,0.0,0.0,0.0,0.0,0.0,0.0,0.0,0.0,0.0,0.0,0.0,0.0,0.0,0.0,0.0,0.0,0.0,0.0,0.0,0.0,0.0,0.0,0.0,0.0,0.0,0.0,0.0,0.0,0.0,0.0,0.0,0.0,0.0,0.0,0.0,0.0,0.0,0.0,0.0,0.0,0.0,0.0,0.0,0.0,0.0,0.0,0.0,0.0,0.0,0.0,0.0,0.0,0.0,0.0,0.0,0.0,0.0,0.0,0.0,0.0,0.0,0.0,0.0,0.0,0.0,0.0,0.0,0.0,0.0,0.0,0.0,0.0,0.0,0.0,0.0,0.0,0.0,0.0,0.0,0.0,0.0,0.0,0.0,0.0,0.0,0.0,0.0,0.0,0.0,0.0,0.0,0.0,0.0,0.0,0.0,0.0,0.0,0.0,0.0,0.0,0.0,0.0,0.0,0.0,0.0,0.0,0.0,0.0,0.0,0.0,0.0,0.0,0.0,0.0,0.0,0.0,0.0,0.0,0.0,0.0,0.0,0.0,0.0,0.0,0.0,0.0,0.0,0.0,0.0,0.0,0.0,0.0,0.0,0.0,0.0,0.0,0.0,0.0,0.0,0.0,0.0,0.0,0.0,0.0,0.0,0.0,0.0,0.0,0.0,0.0,0.0,0.0,0.0,0.0,0.0,0.0,0.0,0.0,0.0,0.0,0.0,0.0,0.0,0.0,0.0,0.0,0.0,0.0,0.0,0.0,0.0,0.0,0.0,0.0,0.0,0.0,0.0,0.0,0.0,0.0,0.0,0.0,0.0,0.0,0.0,0.0,0.0,0.0,0.0,0.0,0.0,0.0,0.0,0.0,0.0,0.0,0.0,0.0,0.0,0.0,0.0,0.0,0.0,0.0,0.0,0.0,0.0,0.0,0.0,0.0,0.0,0.0,0.0,0.0,0.0,0.0,0.0,0.0,0.0,0.0,0.0,0.0,0.0,0.0,0.0,0.0,0.0,0.0,0.0,0.0,0.0,0.0,0.0,0.0,0.0,0.0,0.0,0.0,0.0,0.0,0.0,0.0,0.0,0.0,0.0,0.0,0.0,0.0,0.0,0.0,0.0,0.0,0.0,0.0,0.0,0.0,0.0,0.0,0.0,0.0,0.0,0.0,0.0,0.0,0.0,0.0,0.0,0.0,0.0,0.0,0.0,0.0,0.0,0.0,0.0,0.0,0.0,0.0,0.0,0.0,0.0,0.0,0.0,0.0,0.0,0.0,0.0,0.0,0.0,0.0,0.0,0.0,0.0,0.0,0.0,0.0,0.0,0.0,0.0,0.0,0.0,0.0,0.0,0.0,0.0,0.0,0.0,0.0,0.0,0.0,0.0,0.0,0.0,0.0,0.0,0.0,0.0,0.0,0.0,0.0,0.0,0.0,0.0,0.0,0.0,0.0,0.0,0.0,0.0,0.0,0.0,0.0,0.0,0.0,0.0,0.0,0.0,0.0,0.0,0.0,0.0,0.0,0.0,0.0,0.0,0.0,0.0,0.0,0.0,0.0,0.0,0.0,0.0,0.0,0.0,0.0,0.0,0.0,0.0,0.0,0.0,0.0,0.0,0.0,0.0,0.0,0.0,0.0,0.0,0.0,0.0,0.0,0.0,0.0,0.0,0.0,0.0,0.0,0.0,0.0,0.0,0.0,0.0,0.0,0.0,0.0,0.0,0.0,0.0,0.0,0.0,0.0,0.0,0.0,0.0,0.0,0.0,0.0,0.0,0.0,0.0,0.0,0.0,0.0,0.0,0.0,0.0,0.0,0.0,0.0,0.0,0.0,0.0,0.0,0.0,0.0,0.0,0.0,0.0,0.0,0.0,0.0,0.0,0.0,0.0,0.0,0.0,0.0,0.0,0.0,0.0,0.0,0.0,0.0,0.0,0.0,0.0,0.0,0.0,0.0,0.0,0.0,0.0,0.0,0.0,0.0,0.0,0.0,0.0,0.0,0.0,0.0,0.0,0.0,0.0,0.0,0.0,0.0,0.0,0.0,0.0,0.0,0.0,0.0,0.0,0.0,0.0,0.0,0.0,0.0,0.0,0.0,0.0,0.0,0.0,0.0,0.0,0.0,0.0,0.0,0.0,0.0,0.0,0.0,0.0,0.0,0.0,0.0,0.0,0.0,0.0,0.0,0.0,0.0,0.0,0.0,0.0,0.0,0.0,0.0,0.0,0.0,0.0,0.0,0.0,0.0,0.0,0.0,0.0,0.0,0.0,0.0,0.0,0.0,0.0,0.0,0.0,0.0,0.0,0.0,0.0,0.0,0.0,0.0,0.0,0.0,0.0,0.0,0.0,0.0,0.0,0.0,0.0,0.0,0.0,0.0,0.0,0.0,0.0,0.0,0.0,0.0,0.0,0.0,0.0,0.0,0.0,0.0,0.0,0.0,0.0,0.0,0.0,0.0,0.0,0.0,0.0,0.0,0.0,0.0,0.0,0.0,0.0,0.0,0.0,0.0,0.0,0.0,0.0,0.0,0.0,0.0,0.0,0.0,0.0,0.0,0.0,0.0,0.0,0.0,0.0,0.0,0.0,0.0,0.0,0.0,0.0,0.0,0.0,0.0,0.0,0.0,0.0,0.0,0.0,0.0,0.0,0.0,0.0,0.0,0.0,0.0,0.0,0.0,0.0,0.0,0.0,0.0,0.0,0.0,0.0,0.0,0.0,0.0,0.0,0.0,0.0,0.0,0.0,0.0,0.0,0.0,0.0,0.0,0.0,0.0,0.0,0.0,0.0,0.0,0.3643,0.0,0.0,0.0,0.0,0.0,0.0,0.0,0.0,0.0,0.0,0.0,0.0,0.0,0.0,0.0,0.0,0.0,0.0,0.0,0.0,0.0,0.0,0.0,0.0,0.0,0.0,0.0,0.0,0.0,0.0,0.0,0.0,0.0,0.0,0.0,0.0,0.0,0.0,0.0,2.3966,2.4619,2.5593,2.5276,2.461,2.3688,0.0,0.0,0.0,0.0,0.0,0.0,0.0,0.0,0.0,0.0,0.0,0.0,0.0,0.0,0.0,0.0,0.0,0.0,0.0,0.0,0.0,0.0,0.0,0.0,0.0,0.0,0.0,0.0,0.0,0.0,0.0,0.0,0.0,0.0,0.0,0.0,0.0,0.0,0.0,0.0,0.0,0.0,0.0,0.0,0.0,0.0,0.0,0.0,0.0,0.0,0.0,0.0,0.0,0.0,0.0,0.0,0.0,0.0,0.0,0.0,0.0,0.0,0.0,0.0,0.0,0.0,0.0,0.0,0.0,0.0,0.0,0.3069,0.0,0.0,0.0,0.0,0.0,0.0,0.0,0.0,0.0,0.0,0.0,0.0,0.0,0.0,0.0,0.0,0.0,0.0,0.0,0.0,0.0,0.0,0.0,2.5896,2.5993,2.5439,2.591,2.5993,0.0,0.0,0.0,0.0,0.0,0.0,0.0,2.3501,2.3894,2.4669,2.5474,2.6535,2.7785,2.7883,2.7498,2.6652,2.5637,0.0,0.0,0.0,0.0,0.0,0.0,0.0,0.0,0.0,0.0,0.0,0.0,0.0,0.0,0.0,0.0,0.0,0.0,0.0,0.0,0.0,0.0,0.0,0.0,0.0,0.0,0.0,0.0,0.0,0.0,0.0,0.0,0.0,0.0,0.0,0.0,0.0,0.0,0.0,0.0,0.0,0.0,0.0,0.0,0.0,0.0,0.0,0.0,0.0,0.0,0.0,0.0,0.0,0.0,0.0,0.0,0.0,0.0,0.0,0.0,0.0,0.0,0.0,0.8523,0.8577,0.8397,0.7636,0.771,0.822,0.5363,0.4137,0.4002,0.0,0.0,0.0,0.0,0.0,0.0,0.0,0.0,0.0,0.0,0.0,0.0,0.0,0.0,0.0,0.0,0.0,0.0,0.0,0.0,0.0,0.0,2.5467,2.5494,2.5412,2.5467,2.5481,2.5412,0.0,0.0,0.0,0.0,0.0,2.5091,2.5091,2.5422,2.6128,2.777,2.8951,2.9651,3.0243,3.0679,3.0856,2.7946,2.7229,2.805,0.0,0.0,0.0,0.0,0.0,0.0,0.0,0.0,0.0,0.0,0.0,0.0,0.0,0.0,0.0,0.0,0.0,0.0,0.0,0.0,0.0,0.0,0.0,0.0,0.0,0.0,0.0,0.0,0.0,0.0,0.0,0.0,0.0,0.0,0.0,0.0,0.0,0.0,0.0,0.0,0.0,1.7079,1.7315,0.0,0.0,0.0,0.0,0.0,0.0,0.0,0.0,0.0,0.0,0.0,0.0,0.0,0.8147,0.8587,0.8723,0.8743,0.877,0.9256,0.9245,0.8801,0.8851,0.8819,0.8541,0.6869,0.0,0.4066,0.2545,0.0,0.0,0.0,0.0,0.0,0.0,0.0,0.0,0.0,0.0,0.0,0.0,0.0,0.0,0.0,0.0,0.0,0.0,0.0,0.0,0.0,2.7306,2.7623,2.7234,2.8217,2.8349,2.7277,2.7126,0.0,0.0,0.0,2.5398,2.5398,2.5757,2.6847,2.8636,2.9851,3.0987,3.1973,3.2249,3.2713,3.3245,3.1297,3.0264,2.9922,2.8657,0.0,0.0,0.0,0.0,0.0,0.0,0.0,0.0,0.0,0.0,0.0,0.0,0.0,0.0,0.0,0.0,0.0,0.0,0.0,0.0,0.0,0.0,0.0,0.0,0.0,0.0,0.0,0.0,0.0,0.0,0.0,0.0,0.0,0.0,0.0,0.0,0.0,0.0,0.0,1.7001,1.7562,1.7414,1.742,1.7148,0.0,0.0,0.0,0.0,0.0,0.0,0.0,0.0,0.0,0.8598,0.8401,0.8503,0.8954,0.9025,0.9147,0.9317,0.9517,0.9462,0.9191,0.9252,0.912,0.8784,0.8117,0.6952,0.5379,0.3946,0.2951,0.2271,0.0,0.0,0.0,0.0,0.0,0.0,0.0,0.0,0.0,0.0,0.0,0.0,0.0,0.0,0.0,0.0,0.0,0.0,2.7839,2.8903,2.9472,2.9116,3.0404,3.0554,2.8966,2.8601,2.795,2.6817,2.6256,2.5973,2.5973,2.6933,2.8512,3.0673,3.1753,3.2781,3.3754,3.3918,3.4277,3.4741,3.4071,3.3044,3.1719,3.075,3.0202,2.9854,0.0,0.0,0.0,0.0,0.0,0.0,0.0,0.0,0.0,0.0,0.0,0.0,0.0,0.0,0.0,0.0,0.0,0.0,0.0,0.0,0.0,0.0,0.0,0.0,0.0,0.0,0.0,0.0,0.0,0.0,0.0,0.0,0.0,0.0,0.0,0.0,0.0,1.8335,1.8591,1.7674,1.7949,1.7856,0.0,0.0,0.0,0.0,0.0,0.0,1.0587,0.9565,0.8994,0.8872,0.8771,0.8893,0.9323,0.9364,0.9401,0.9551,0.9629,0.9544,0.9323,0.9364,0.9198,0.8824,0.8824,0.8129,0.6882,0.538,0.4551,0.4029,0.2567,0.2007,0.1857,0.0477,0.0,0.0,0.0,0.0,0.0,0.0,0.0,0.0,0.0,0.0,0.0,0.0,0.0,2.7839,2.8472,2.916,2.9831,3.0357,3.0492,3.0268,2.9606,2.8954,2.8271,2.7579,2.7524,2.7484,2.7484,2.9349,3.0677,3.1438,3.341,3.4399,3.4474,3.51,3.5429,3.5459,3.5412,3.4813,3.3738,3.1842,3.0656,2.9887,2.8702,0.0,0.0,0.0,0.0,0.0,0.0,0.0,0.0,0.0,0.0,0.0,0.0,0.0,0.0,0.0,0.0,0.0,0.0,0.0,0.0,0.0,0.0,0.0,0.0,0.0,0.0,0.0,0.0,0.0,0.0,0.0,0.0,0.0,0.0,0.0,0.0,0.0,0.0,1.8684,1.9419,0.0,0.0,0.0,0.0,1.5642,1.5488,1.4196,1.1381,1.1163,1.0627,0.9395,0.934,0.9415,0.9585,0.972,0.9652,0.9395,0.9676,0.9585,0.9224,0.9313,0.914,0.8723,0.8723,0.8578,0.8269,0.6937,0.5444,0.3866,0.2541,0.1981,0.1857,0.0477,0.0,0.0,0.0,0.0,0.0,0.0,0.0,0.0,0.0,0.0,2.76,2.76,2.8358,2.9162,2.9863,3.1327,3.2526,3.3217,3.3634,3.3388,3.2311,3.1528,3.0626,2.95,2.9022,2.9414,3.0779,3.1956,3.332,3.4921,3.5103,3.5431,3.586,3.5612,3.5504,3.5534,3.5953,3.5714,3.4924,3.4208,3.3524,3.2745,3.1001,2.9883,0.0,0.0,0.0,0.0,0.0,0.0,0.0,0.0,0.0,0.0,0.0,0.0,0.0,0.0,0.0,0.0,0.0,0.0,0.0,0.0,0.0,0.0,0.0,0.0,0.0,0.0,0.0,0.0,0.0,0.0,0.0,0.0,0.0,0.0,0.0,0.0,0.0,2.057,2.0316,0.0,0.0,1.8724,1.8262,1.7521,1.6924,1.6062,1.4703,1.2885,1.1593,1.0982,0.9853,0.9316,0.9313,0.9364,0.9388,0.9381,0.9293,0.9171,0.9011,0.8869,0.8713,0.8564,0.8564,0.8479,0.8347,0.7875,0.7322,0.6628,0.5148,0.4062,0.3103,0.1776,0.0745,0.0,0.0,0.0,0.0,0.0,0.0,0.0,0.0,0.0,2.776,2.8222,2.9067,3.0145,3.1549,3.3087,3.4326,3.5032,3.5476,3.5033,3.3418,3.2574,3.1542,3.0188,2.9893,3.0781,3.2905,3.3668,3.4952,3.6802,3.6487,3.643,3.662,3.64,3.6136,3.5906,3.6354,3.6271,3.5863,3.5619,3.51,3.4397,3.2989,3.2053,3.1229,0.0,0.0,0.0,0.0,0.0,0.0,0.0,0.0,0.0,0.0,0.0,0.0,0.0,0.0,0.0,0.0,0.0,0.0,0.0,0.0,0.0,0.0,0.0,0.0,0.0,0.0,0.0,0.0,0.0,0.0,0.0,0.0,0.0,0.0,0.0,2.297,2.1944,2.1843,2.1286,1.9805,1.9659,1.9499,1.9105,1.8454,1.7649,1.6721,1.4766,1.3066,1.1725,1.0523,0.9652,0.921,0.9159,0.9106,0.9154,0.9008,0.8828,0.8777,0.8628,0.8506,0.8411,0.8411,0.833,0.8194,0.8194,0.8194,0.8029,0.6564,0.5475,0.447,0.2665,0.1455,0.0599,0.0,0.0,0.0,0.0,0.0,0.0,0.0,2.76,2.8087,2.941,2.9641,3.0703,3.3427,3.4336,3.5048,3.57,3.5716,3.4819,3.2734,3.1919,3.0917,2.9547,3.0202,3.1614,3.3754,3.4491,3.5508,3.6857,3.7479,3.7422,3.6766,3.7425,3.7393,3.6729,3.6667,3.66,3.6554,3.5846,3.5147,3.4533,3.4533,3.4128,3.3408,0.0,0.0,0.0,0.0,0.0,0.0,0.0,0.0,0.0,0.0,0.0,0.0,0.0,0.0,0.0,0.0,0.0,0.0,0.0,0.0,0.0,0.0,0.0,0.0,0.0,0.0,0.0,0.0,0.0,0.0,0.0,0.0,0.0,2.51,2.654,2.6265,2.279,2.3968,2.3824,2.0543,2.0775,2.0862,2.0287,1.9967,1.9003,1.7155,1.6721,1.5017,1.1761,1.1404,1.0639,0.925,0.8998,0.8849,0.8706,0.8794,0.8764,0.8479,0.8625,0.8533,0.8313,0.8313,0.8177,0.7988,0.7988,0.7988,0.7889,0.6581,0.6029,0.5677,0.3065,0.2086,0.1803,0.0,0.0,0.0,0.0,0.0,0.0,0.0,2.76,2.8087,2.941,3.0463,3.1903,3.4194,3.5503,3.651,3.7236,3.6261,3.5395,3.4795,3.3067,3.1921,3.1521,3.2727,3.4196,3.5923,3.7185,3.802,3.8395,3.8015,3.7704,3.7508,3.7154,3.7185,3.7505,3.7494,3.716,3.6584,3.6384,3.5885,3.522,3.522,3.5115,3.4889,0.0,0.0,0.0,0.0,0.0,0.0,0.0,0.0,0.0,0.0,0.0,0.0,0.0,0.0,0.0,0.0,0.0,0.0,0.0,0.0,0.0,0.0,0.0,0.0,0.0,0.0,0.0,0.0,0.0,0.0,0.0,0.0,2.5955,2.7223,2.752,2.712,2.5781,2.5103,2.3861,2.173,2.1076,2.0728,2.0568,2.0087,1.9489,1.8777,1.731,1.5915,1.4756,1.2372,1.0895,1.0442,0.9212,0.8584,0.8543,0.8482,0.8411,0.8326,0.8255,0.813,0.8102,0.8102,0.8029,0.7988,0.7988,0.7988,0.7939,0.7587,0.6833,0.5919,0.5044,0.3503,0.1677,0.0,0.0,0.0,0.0,0.0,0.0,0.0,2.76,2.8278,3.0176,3.1126,3.2488,3.4832,3.5811,3.6349,3.6468,3.5673,3.4878,3.4269,3.3021,3.2581,3.319,3.4032,3.5216,3.6778,3.7642,3.8227,3.8531,3.8062,3.7677,3.7378,3.7574,3.7734,3.7844,3.8142,3.8003,3.7526,3.7233,3.6832,3.64,3.64,3.6189,3.5923,3.5923,3.5833,3.5666,3.5126,3.5224,3.5392,3.3722,0.0,0.0,0.0,0.0,0.0,0.0,0.0,0.0,0.0,0.0,0.0,0.0,0.0,0.0,0.0,0.0,0.0,0.0,0.0,0.0,0.0,0.0,0.0,0.0,2.5967,2.7344,2.8877,2.8709,2.7903,2.6429,2.5595,2.4194,2.17,2.0975,2.0575,2.0327,1.988,1.9439,1.9025,1.7835,1.6685,1.5706,1.3683,1.2346,1.1645,0.9935,0.9104,0.9104,0.8465,0.8174,0.817,0.8029,0.7955,0.0,0.7894,0.786,0.7855,0.7855,0.7855,0.0,0.0,0.0,0.0,0.0,0.4073,0.169,0.0,0.0,0.0,0.0,0.0,0.0,0.0,2.76,2.8549,3.1238,3.1582,3.2574,3.5183,3.5481,3.5177,3.4438,3.4286,3.3715,3.2395,3.2462,3.3139,3.4438,3.468,3.5407,3.6778,3.688,3.7195,3.7787,3.7787,3.7432,3.6829,3.8149,3.8481,3.8051,3.8659,3.8896,3.8854,3.8189,3.7745,3.7482,3.7482,3.7111,3.6611,3.6761,3.7165,3.7644,3.7719,3.7414,3.6975,3.6757,0.0,0.0,0.0,0.0,0.0,0.0,0.0,0.0,0.0,0.0,0.0,0.0,0.0,0.0,0.0,0.0,0.0,0.0,0.0,0.0,0.0,0.0,0.0,0.0,2.7422,2.8652,2.9883,2.9697,2.854,2.6025,2.583,2.465,2.1238,2.0738,2.0347,1.9793,1.9452,1.9025,1.847,0.0,0.0,0.0,0.0,1.414,1.2812,1.1061,1.0194,1.0194,0.9019,0.8432,0.8432,0.8266,0.8133,0.8,0.7842,0.7716,0.76,0.76,0.76,0.7628,0.784,0.7896,0.7583,0.6117,0.4141,0.2155,0.0,0.0,0.0,0.0,0.0,0.0,0.0,2.76,2.8549,3.1238,3.1582,3.2378,3.4498,3.4709,3.4421,3.3677,3.3068,3.2598,3.2327,3.341,3.4206,3.4472,3.5695,3.6491,3.6795,3.7381,3.7466,3.7015,3.7015,3.6948,3.6812,3.71,3.777,3.8785,3.8932,3.8955,3.8881,3.8745,3.7953,3.6801,3.6801,3.6958,3.7345,3.8437,3.8931,3.9059,3.9634,4.0718,4.1707,4.0129,3.9721,3.9714,3.8481,3.6609,0.0,0.0,0.0,0.0,0.0,0.0,0.0,0.0,0.0,0.0,0.0,0.0,0.0,0.0,0.0,0.0,0.0,0.0,0.0,2.6409,2.7178,2.8115,2.9033,2.8809,2.846,2.822,2.6644,2.4795,2.2662,2.0953,1.9826,1.9472,1.8965,1.851,1.8095,1.7615,0.0,1.6859,1.5268,1.4281,1.3977,1.2366,1.1512,1.1512,0.0,0.0,1.1112,0.9982,0.9416,0.9328,0.816,0.7624,0.76,0.76,0.76,0.7604,0.7662,0.759,0.731,0.6053,0.5199,0.4435,0.0,0.0,0.0,0.0,0.0,0.0,0.0,2.76,2.8318,3.0328,3.0863,3.1531,3.2817,3.3224,3.3085,3.2357,3.231,3.2615,3.3359,3.4438,3.5233,3.5644,3.6389,3.6626,3.6214,3.6569,3.6569,3.6197,3.6197,3.6197,3.6214,3.6626,3.7381,3.8464,3.8836,3.9202,3.9489,3.9489,3.8827,3.7729,3.7352,3.7313,3.7603,3.8552,3.932,4.0038,4.1025,4.2432,4.3633,4.2686,4.2709,4.3035,4.202,4.0157,3.7934,0.0,0.0,0.0,0.0,0.0,0.0,0.0,0.0,0.0,0.0,0.0,0.0,0.0,0.0,2.8996,0.0,0.0,2.8488,2.8707,2.8704,2.8769,2.9189,2.8877,2.838,2.7839,2.6601,2.5148,2.3488,2.1751,2.0515,2.0104,1.909,1.8297,1.7842,1.744,1.7199,1.7199,1.5956,1.5311,1.5311,1.3716,1.2909,1.2909,1.2237,1.1836,1.1672,1.0986,1.05,1.0214,0.8928,0.8303,0.8182,0.7594,0.737,0.737,0.737,0.737,0.7307,0.6528,0.5811,0.508,0.0,0.0,0.0,0.0,0.0,0.0,0.0,2.7524,2.8087,2.941,3.0006,3.0546,3.1172,3.1766,3.1867,3.1258,3.2022,3.3021,3.4201,3.5402,3.6282,3.6778,3.6948,3.6637,3.5836,3.5667,3.56,3.56,3.56,3.5667,3.5859,3.6485,3.7286,3.8142,3.857,3.9252,4.0096,3.9927,3.9411,3.8635,3.8035,3.755,3.7242,3.7813,3.8931,4.0367,4.1587,4.2746,4.3778,4.4032,4.4466,4.487,4.4586,4.316,4.1135,3.8851,3.6861,0.0,0.0,0.0,0.0,0.0,0.0,0.0,0.0,0.0,3.1489,3.1363,3.1719,3.1908,3.1552,3.1172,3.0992,3.1212,3.0479,2.9842,2.9616,2.9121,2.8382,2.7271,2.6518,2.5599,2.4378,2.2807,2.1577,2.0753,1.955,1.8455,1.7581,1.7273,1.7092,1.7032,1.6509,1.6186,1.6186,1.4913,1.4262,1.4262,1.3106,1.2453,1.2256,1.1932,1.1553,1.1122,0.992,0.9194,0.8803,0.7841,0.7316,0.7095,0.7095,0.72,0.7258,0.7017,0.6257,0.5352,0.0,0.0,0.0,0.0,0.0,0.0,0.0,0.0,2.8087,2.941,2.9675,2.9934,3.0546,3.115,3.1403,3.1219,3.2476,3.3355,3.3508,3.6113,3.7398,3.6829,3.7432,3.7432,3.6694,3.5977,3.56,3.56,3.56,3.5977,3.6677,3.6761,3.7557,3.8845,3.8218,3.8728,4.0045,3.9342,3.8608,3.7921,3.7835,3.6967,3.5814,3.645,3.7883,3.9634,4.0352,4.1085,4.1893,4.3006,4.3454,4.3708,4.484,4.4594,4.3248,3.9882,3.8313,3.6689,3.2364,3.0945,3.1022,3.2378,3.2416,3.288,0.0,0.0,3.5232,3.6178,3.6441,3.6107,3.4902,3.4662,3.3952,3.2062,3.1271,3.0596,2.9734,2.8877,2.8442,2.8649,2.713,2.6036,2.5882,2.4137,2.237,2.0792,2.0238,1.9115,1.7331,1.6914,1.664,1.6429,1.6052,1.5879,1.5879,1.5696,1.5588,1.5581,1.5184,1.5001,1.4903,1.3381,1.2636,1.2484,1.1081,0.9859,0.889,0.8759,0.8061,0.7095,0.7095,0.7031,0.6933,0.69,0.6756,0.6367,0.0,0.0,0.0,0.0,0.0,0.0,0.0,0.0,0.0,2.8308,2.8735,2.9059,2.932,2.9868,3.0348,3.0654,3.2012,3.3198,3.3994,3.6062,3.711,3.6812,3.7117,3.6891,3.6129,3.5769,3.56,3.56,3.6079,3.6468,3.6789,3.6757,3.7303,3.8251,3.7492,3.7763,3.875,3.8402,3.8289,3.8294,3.7436,3.6955,3.665,3.612,3.6656,3.7853,3.8871,3.9664,0.0,4.1309,4.1624,4.1788,4.2716,4.2297,4.1084,3.9195,3.7981,3.6589,3.3507,3.2763,3.2911,0.0,3.3621,3.4467,3.5871,3.5821,3.5721,3.6546,3.7211,3.7504,3.6924,3.6647,3.6237,0.0,3.3105,3.1374,3.0929,2.9405,2.8271,2.8193,2.753,2.7128,2.7365,2.5631,2.4151,2.3296,2.1788,2.0487,1.9451,1.8213,1.7448,1.7375,1.6361,1.5784,1.5784,1.5784,1.5784,1.5778,1.5531,1.5304,1.513,1.4204,1.3306,1.248,1.1854,1.0956,0.9826,0.9069,0.8533,0.8042,0.7207,0.6848,0.6797,0.6797,0.6698,0.6505,0.0,0.0,0.0,0.0,0.0,0.0,0.0,0.0,0.0,0.0,2.768,2.8085,2.8463,2.8896,2.9384,3.0,3.1215,3.2368,3.3339,3.5159,3.6139,3.5957,3.6477,3.6414,3.5635,3.5439,3.5315,3.5316,3.5914,3.6285,3.6502,3.6631,3.71,3.7775,3.7009,3.7096,3.7793,3.7751,3.8042,3.841,3.7514,3.7217,3.7177,3.6152,3.5848,3.6073,3.7195,3.7913,3.8437,3.9095,3.92,3.92,4.0023,3.9888,3.9215,3.8167,3.6954,3.5648,3.4251,0.0,0.0,3.3655,3.455,3.5571,3.5884,3.5947,3.6157,3.6697,3.745,3.8002,3.8002,3.7931,3.775,3.7357,3.4631,3.2382,3.1876,2.9773,2.8135,2.7767,2.7611,2.7607,2.791,2.6569,2.539,2.4678,2.2934,2.1545,2.0728,1.9366,1.8546,1.8502,1.7105,1.6339,1.6339,1.5967,1.5744,1.5705,1.5418,1.5124,1.483,1.4536,1.3797,1.2802,1.2687,1.2051,1.0978,0.9988,0.928,0.8741,0.7682,0.6995,0.6637,0.6637,0.6542,0.6439,0.0,0.0,0.0,0.0,0.0,0.0,0.0,0.0,0.0,0.0,0.0,0.0,0.0,2.8511,2.8756,2.9361,3.0115,3.0594,3.0633,3.3212,3.4464,3.3827,3.5656,3.6388,3.5712,3.4998,3.4632,3.4624,3.4649,3.5043,3.5748,3.6382,3.7102,3.7745,3.6963,3.7038,3.7796,3.7653,3.7607,3.7684,3.8302,3.7722,3.6543,3.6495,3.5687,3.4653,3.534,3.5609,3.5729,3.6387,3.6178,3.5878,3.7135,3.8407,3.905,3.7105,3.5379,3.4096,3.4265,0.0,3.3886,3.4483,3.5069,3.5771,3.6897,3.7136,3.7287,3.7839,3.799,3.8002,3.8002,3.8492,3.8399,3.6976,3.55,3.3875,3.2081,2.9773,2.8135,2.7767,2.7295,2.7041,0.0,2.6619,2.5614,2.3854,2.3242,2.2084,2.0052,1.9892,1.9728,1.9476,1.828,1.7638,1.7638,1.6433,1.5691,1.5404,1.5162,1.4823,1.4522,1.4235,1.4095,1.4026,1.3698,1.3041,1.2219,1.1927,1.0575,0.87,0.8645,0.7763,0.6518,0.6518,0.6429,0.6306,0.0,0.0,0.0,0.0,0.0,0.0,0.0,0.0,0.0,0.0,0.0,0.0,0.0,0.0,0.0,0.0,2.9485,3.0077,3.0477,3.2256,3.3217,3.2978,3.4046,3.4552,3.4293,3.4063,3.415,3.4607,3.5096,3.5667,3.6358,3.6555,3.6775,3.6964,3.6212,3.6265,3.6932,3.6886,3.6948,3.7089,3.7154,3.6779,3.6076,3.5915,3.5265,3.4474,0.0,3.3888,3.3619,3.4277,3.4053,3.3754,3.5055,3.5474,3.5444,3.522,3.5695,3.6197,3.6011,0.0,3.6585,3.6899,3.679,3.6734,3.7098,3.7186,3.7136,3.6948,3.6621,3.6323,3.6323,3.6835,3.7215,3.7048,3.6198,3.4987,3.3451,3.1466,2.9416,2.7447,2.7109,0.0,0.0,0.0,0.0,2.5079,2.4108,2.324,2.2528,2.1417,2.0797,2.0711,1.9542,1.891,1.891,1.7445,1.6687,1.6579,1.5284,1.4516,1.4222,1.3928,1.3753,1.3733,1.344,1.327,1.3067,1.191,1.1197,1.0647,0.8801,0.7859,0.7402,0.6638,0.6237,0.6122,0.0,0.0,0.0,0.0,0.0,0.0,0.0,0.0,0.0,0.0,0.0,0.0,0.0,0.0,0.0,0.0,0.0,2.9049,2.9429,3.0765,3.1422,3.1187,3.2262,3.277,3.2542,3.2494,3.2714,3.3166,3.3568,3.4079,3.4701,3.4816,3.4991,3.5135,3.4681,3.4709,3.5117,3.537,3.5443,3.5388,3.5497,3.5097,3.4434,3.4279,3.383,0.0,3.2846,3.2451,3.2198,3.2647,3.2512,3.2318,3.344,3.3799,3.4054,3.4968,3.6252,3.7402,3.7461,3.7994,3.8422,3.8163,3.7813,3.7419,3.7029,3.6747,3.6496,3.6144,3.5479,3.4919,3.4919,3.5403,3.5818,3.5994,3.5466,3.4822,3.4238,3.188,2.9766,2.843,2.7495,0.0,0.0,0.0,0.0,2.5235,2.4492,2.3877,2.3574,2.2545,2.1933,2.1933,2.0755,2.0056,1.9928,1.8478,1.7444,1.6802,1.5142,1.4208,1.3921,1.3693,1.3547,1.3433,1.3173,1.3213,1.3366,1.2245,1.1736,1.1462,0.9696,0.8792,0.8325,0.725,0.6726,0.6522,0.0,0.0,0.0,0.0,0.0,0.0,0.0,0.0,0.0,0.0,0.0,0.0,0.0,0.0,0.0,0.0,0.0,0.0,2.7484,2.8711,2.9144,2.8513,3.035,3.1087,3.0433,3.0362,3.0365,3.0464,3.0321,3.0524,3.1063,3.1539,3.2027,3.251,3.251,3.2524,3.2593,3.3232,3.3226,3.2761,3.3459,3.2959,3.1847,3.1868,3.1599,3.1173,3.1279,3.1392,3.1527,3.1541,3.163,3.1824,3.2482,3.3604,3.4923,3.6193,3.703,3.7704,3.8542,3.9215,3.9426,3.8518,3.8185,3.7763,3.6671,3.5915,3.542,3.542,3.4562,3.3771,0.0,0.0,3.4474,3.3985,3.3715,3.3754,3.435,3.1356,2.9434,0.0,0.0,0.0,0.0,0.0,0.0,2.4453,0.0,2.3949,2.314,2.3091,2.3091,2.3091,2.1987,2.1201,2.0811,1.9484,1.7922,1.6152,1.4831,1.4018,1.3783,1.3634,1.348,1.3292,1.295,1.2951,1.3186,1.2898,1.219,1.1272,1.1215,1.0445,0.9258,0.8237,0.7727,0.7405,0.0,0.0,0.0,0.0,0.0,0.0,0.0,0.0,0.0,0.0,0.0,0.0,0.0,0.0,0.0,0.0,0.0,0.0,2.6001,2.6744,2.7141,2.6961,2.7883,2.8312,2.814,2.8111,2.8381,2.8886,2.9235,2.9736,3.0381,3.094,3.1285,3.139,3.139,3.1653,3.2083,3.2271,3.2083,3.1729,3.2183,3.1754,3.0873,3.1571,3.143,3.1049,3.2215,3.2323,3.1999,0.0,0.0,0.0,0.0,3.6013,3.6821,3.7659,3.8377,3.9053,3.9765,4.0149,4.039,4.0661,3.9079,3.7429,3.7129,3.5641,3.4324,3.4324,3.3106,3.2026,3.2026,0.0,0.0,3.3859,3.5503,0.0,3.5167,3.4516,0.0,0.0,0.0,2.834,2.7945,2.6182,0.0,0.0,2.3783,2.3325,2.311,2.3091,2.3091,2.3091,2.2818,2.2432,2.2021,2.0265,1.8588,1.6982,1.5824,1.5666,1.6296,1.4226,1.382,1.4696,1.3106,1.2719,1.3173,1.2632,1.2395,1.2299,1.1274,1.0697,1.0303,0.9291,0.868,0.8284,0.0,0.0,0.0,0.0,0.0,0.0,0.0,0.0,0.0,0.0,0.0,0.0,0.0,0.0,0.0,0.0,0.0,0.0,0.0,2.5896,2.5965,2.5965,2.6298,2.6465,2.6465,2.6919,2.7128,2.7036,2.7988,2.8505,2.8633,2.9147,2.9512,2.9731,2.9731,2.9904,3.0246,3.0246,2.9979,0.0,0.0,2.9377,2.8763,2.9535,2.9818,2.993,3.1068,3.2092,0.0,0.0,0.0,3.6043,3.6686,3.7539,3.8422,3.908,0.0,4.0427,4.1085,4.1335,4.1332,4.122,3.9396,3.7386,3.6406,3.4809,3.3395,3.2905,3.1863,0.0,3.1047,0.0,0.0,0.0,0.0,0.0,3.5391,3.4895,3.4129,0.0,3.1256,0.0,2.8205,2.6763,2.5401,0.0,2.3691,2.334,2.311,2.3091,2.3013,2.2828,2.2818,2.2526,2.1953,2.0229,1.8883,1.802,1.6927,1.6676,1.7078,1.5542,1.4842,1.4832,0.0,1.3058,1.2786,1.2445,1.2405,1.2494,1.1757,1.1465,1.1354,1.0346,0.9666,0.919,0.0,0.0,0.0,0.0,0.0,0.0,0.0,0.0,0.0,0.0,0.0,0.0,0.0,0.0,0.0,0.0,0.0,0.0,0.0,0.0,2.5214,2.5214,2.5132,2.5091,2.5091,2.6015,2.6042,2.5091,2.6458,2.6805,2.6168,2.6598,2.7018,2.7395,2.7395,2.7432,2.7494,2.7616,2.7415,2.7026,2.7132,2.6927,2.6562,0.0,2.7838,2.8559,2.9333,0.0,0.0,0.0,3.6615,3.7,3.7719,3.8736,3.9813,4.0472,4.0995,4.1572,4.2216,4.2336,4.2043,4.1095,3.9359,3.7346,3.5276,3.3762,3.2453,3.1399,0.0,3.0507,3.0507,3.0984,3.1436,3.1587,0.0,3.3935,3.5395,3.4208,3.3516,3.4426,3.279,3.0645,2.8308,2.742,2.6163,2.4152,2.3954,2.3703,2.312,2.3091,2.2906,2.2519,2.2402,2.1941,2.12,1.9893,1.9195,1.9204,1.8069,1.7481,1.7388,1.6974,1.6116,1.4878,1.4485,0.0,1.2543,1.2355,1.2305,1.2305,1.2305,1.2305,1.2187,1.1273,1.0659,1.0129,0.0,0.0,0.0,0.0,0.0,0.0,0.0,0.0,0.0,0.0,2.3705,2.4394,0.0,0.0,0.0,0.0,0.0,0.0,0.0,0.0,0.0,2.4229,2.3756,2.3501,2.3501,2.368,2.3692,2.3501,2.4258,2.4204,2.3409,2.392,2.4021,2.3788,2.3788,2.3982,2.4372,2.5194,2.5481,2.5468,2.6313,2.6575,2.66,2.7582,0.0,0.0,3.0215,0.0,0.0,3.5352,3.7346,3.9125,4.0307,4.0861,4.1175,4.1871,4.1752,4.1572,4.2216,4.2006,4.1645,4.2013,3.9359,3.647,3.5634,3.3146,0.0,0.0,0.0,2.993,2.993,3.0733,0.0,3.2629,0.0,0.0,0.0,0.0,3.5628,0.0,0.0,0.0,0.0,0.0,0.0,0.0,0.0,2.4173,2.3135,2.3091,2.2906,2.2519,2.1785,2.1346,2.119,2.0624,2.0323,2.0323,1.9234,1.9158,1.9858,1.7449,1.6809,1.7482,1.4922,0.0,1.3798,1.2732,1.2305,1.2305,1.2305,1.2305,1.2234,1.185,1.1471,1.1116,0.0,0.0,0.0,0.0,0.0,0.0,0.0,2.0907,2.1643,2.2823,2.3163,2.4037,2.5882,2.6336,2.6477,0.0,0.0,0.0,0.0,0.0,0.0,0.0,0.0,0.0,2.3108,2.3684,0.0,0.0,0.0,2.3912,2.2718,0.0,0.0,2.3214,2.3214,2.3301,2.3514,2.4,2.4228,2.4324,2.5612,2.6125,2.6318,0.0,0.0,0.0,0.0,0.0,0.0,0.0,3.6561,3.8465,4.0293,4.1115,4.1504,4.2201,4.2171,4.2066,4.2686,4.2387,4.1916,4.1901,3.9474,3.6626,3.465,0.0,0.0,0.0,2.9377,2.9792,2.9792,0.0,0.0,0.0,0.0,0.0,0.0,0.0,0.0,0.0,0.0,0.0,0.0,0.0,0.0,0.0,0.0,2.4296,2.3178,2.2682,2.2295,2.1824,2.1221,2.0889,2.0889,2.0713,2.0605,2.0605,2.0079,2.0079,2.0547,1.9132,1.8439,1.8317,1.6607,0.0,1.4246,1.3374,1.2732,1.2285,1.2138,1.2078,1.2094,1.1953,1.159,1.1202,0.0,0.0,0.0,0.0,0.0,0.0,0.0,2.0358,2.1207,2.2416,2.2636,2.358,2.5932,2.6678,2.7055,0.0,0.0,0.0,0.0,0.0,0.0,0.0,0.0,0.0,0.0,0.0,0.0,0.0,0.0,0.0,0.0,0.0,0.0,0.0,0.0,0.0,2.2888,2.3073,2.3184,0.0,0.0,0.0,0.0,0.0,0.0,0.0,0.0,0.0,0.0,0.0,3.492,3.6382,3.8716,4.0248,4.1332,4.1991,4.2291,4.2545,4.3125,4.2865,4.2246,4.1587,3.9509,3.6808,3.3634,3.2349,0.0,0.0,2.9013,2.9792,2.9792,0.0,0.0,0.0,0.0,0.0,0.0,0.0,0.0,0.0,0.0,0.0,0.0,0.0,0.0,0.0,0.0,0.0,2.3178,2.2344,2.1728,2.1346,2.085,2.0605,2.0605,2.0605,2.0605,2.0605,2.0605,2.0605,2.0595,2.0507,1.9793,1.8636,1.8016,0.0,0.0,1.4242,1.3455,1.2565,1.2368,1.2172,1.1993,1.1926,1.1536,1.1109,0.0,0.0,0.0,0.0,0.0,0.0,0.0,1.9436,2.0099,2.1849,2.2457,2.3315,2.4957,2.5632,2.6311,0.0,0.0,0.0,0.0,0.0,0.0,0.0,0.0,0.0,0.0,0.0,0.0,0.0,0.0,0.0,0.0,0.0,0.0,0.0,0.0,0.0,0.0,0.0,0.0,0.0,0.0,0.0,0.0,0.0,0.0,0.0,0.0,0.0,0.0,0.0,0.0,3.309,3.5617,3.8303,4.0621,4.128,0.0,0.0,4.3125,4.2865,4.2246,4.1587,3.9223,3.6351,3.3536,0.0,0.0,2.8543,2.9013,2.9792,2.9792,2.9829,3.0206,0.0,0.0,3.2039,0.0,0.0,0.0,0.0,0.0,0.0,0.0,0.0,0.0,0.0,0.0,0.0,2.3178,2.2344,2.1865,2.1826,2.1045,2.0605,2.0605,2.0605,2.0605,2.0605,2.0605,2.0605,2.0595,2.0156,1.9699,1.9134,1.786,0.0,0.0,1.5419,1.445,1.3564,1.3527,1.3019,1.2231,1.2,1.1663,1.1322,0.0,0.0,0.0,0.0,0.0,0.0,1.916,1.9287,1.9836,2.1338,2.1689,2.249,2.4325,2.4697,2.5517,2.717,0.0,0.0,0.0,0.0,0.0,0.0,0.0,0.0,0.0,0.0,0.0,0.0,0.0,0.0,0.0,0.0,0.0,0.0,0.0,0.0,0.0,0.0,0.0,0.0,0.0,0.0,0.0,0.0,0.0,0.0,0.0,0.0,0.0,0.0,0.0,0.0,3.3459,3.5411,0.0,0.0,4.0666,4.1414,4.2462,4.2851,4.2701,4.1639,3.9602,3.7082,3.412,0.0,3.0918,2.8959,2.9239,2.9792,2.9792,2.9792,2.993,3.0357,3.0432,0.0,0.0,0.0,0.0,0.0,0.0,0.0,0.0,0.0,0.0,0.0,0.0,0.0,2.3874,2.2564,2.1641,2.1143,2.0791,2.0605,2.0605,2.0605,2.0605,2.0605,2.0605,2.0605,2.0595,2.0429,2.0068,1.9602,1.8799,0.0,0.0,1.6316,1.5473,1.4542,1.3777,1.3241,1.2806,1.216,1.1605,1.1176,0.0,0.0,0.0,0.0,0.0,1.8252,1.8984,1.9209,1.9707,2.0889,2.1269,2.1976,2.3515,2.3793,2.4595,2.6405,2.6375,0.0,0.0,0.0,0.0,0.0,0.0,0.0,0.0,0.0,2.4964,2.4241,2.3942,0.0,0.0,0.0,0.0,0.0,0.0,0.0,0.0,0.0,0.0,0.0,0.0,0.0,0.0,0.0,0.0,0.0,0.0,0.0,0.0,0.0,0.0,0.0,0.0,0.0,0.0,0.0,3.9424,4.0352,4.1512,4.2252,4.2491,4.1369,3.9723,3.7668,0.0,0.0,3.1742,2.9744,2.9808,3.0139,2.9869,2.9792,2.9792,2.9792,2.9792,2.998,0.0,0.0,0.0,0.0,0.0,0.0,0.0,0.0,0.0,0.0,0.0,0.0,0.0,2.3696,2.2191,2.082,2.0674,2.0605,2.0605,2.0605,2.0605,2.0605,2.0478,2.0478,2.0595,2.0341,2.0019,1.9717,0.0,0.0,0.0,1.725,1.657,1.5518,1.4638,1.4096,1.3781,1.3119,1.2367,1.17,0.0,0.0,0.0,0.0,0.0,0.0,1.8549,1.9014,1.959,2.0498,2.1378,2.2041,2.2471,2.2881,2.3584,2.4745,2.5297,0.0,0.0,0.0,0.0,0.0,0.0,0.0,0.0,0.0,2.6487,2.6452,2.5457,2.4982,2.4915,0.0,0.0,0.0,0.0,0.0,0.0,0.0,0.0,0.0,0.0,0.0,0.0,0.0,0.0,0.0,0.0,0.0,0.0,0.0,0.0,0.0,0.0,0.0,3.4457,3.6743,3.8377,3.9574,4.0247,4.0905,4.125,4.0576,3.9394,3.7823,0.0,0.0,3.3279,3.0887,3.0797,3.0895,2.9972,2.9792,2.9792,2.9792,2.9792,0.0,0.0,0.0,0.0,0.0,0.0,0.0,0.0,0.0,0.0,0.0,0.0,0.0,0.0,2.5899,2.3806,2.1271,2.0801,2.0605,2.0605,2.0605,2.0605,2.0595,2.0127,2.0146,2.0576,1.9725,1.9297,0.0,0.0,0.0,0.0,1.8422,1.7792,1.6567,1.6558,1.6,1.5199,1.5155,1.4371,1.3242,0.0,0.0,0.0,0.0,0.0,0.0,0.0,1.9014,1.959,2.0498,2.1378,2.2041,2.2471,2.2847,2.3266,2.3594,2.4179,0.0,0.0,0.0,0.0,0.0,0.0,0.0,0.0,0.0,2.7246,2.6504,2.5769,2.5213,2.4844,2.3128,2.209,0.0,0.0,0.0,0.0,0.0,0.0,0.0,0.0,0.0,0.0,0.0,0.0,0.0,0.0,0.0,0.0,0.0,0.0,0.0,0.0,0.0,0.0,3.5689,3.703,0.0,3.8841,3.9514,3.9873,3.92,3.8048,3.6752,3.5372,0.0,3.3095,3.2113,3.2055,3.2069,3.1756,3.1719,3.1513,3.0871,3.0758,3.0584,0.0,0.0,0.0,0.0,0.0,0.0,0.0,0.0,0.0,0.0,0.0,0.0,0.0,2.6382,2.495,2.242,2.184,2.127,2.0605,2.0605,2.0458,2.0117,2.0283,2.0127,1.9697,1.9707,0.0,0.0,0.0,0.0,0.0,1.8154,1.7953,1.7501,1.6853,1.6419,1.607,1.5446,1.4792,1.4193,0.0,0.0,0.0,0.0,0.0,0.0,0.0,1.9141,1.9717,2.0244,2.123,2.2041,2.2471,2.2847,2.3091,2.3091,2.344,0.0,0.0,0.0,0.0,0.0,0.0,0.0,2.5562,2.7422,2.8064,2.7415,2.6839,2.6379,2.6025,2.464,2.3784,2.334,2.2656,0.0,0.0,0.0,0.0,0.0,0.0,0.0,2.9792,0.0,0.0,0.0,0.0,0.0,0.0,0.0,0.0,0.0,0.0,0.0,0.0,0.0,3.6073,3.6836,0.0,3.8153,3.8556,3.8123,3.7255,0.0,0.0,0.0,3.3844,3.324,3.3136,3.3031,3.2664,3.2593,3.2429,3.1815,3.1426,0.0,0.0,0.0,0.0,0.0,0.0,0.0,0.0,0.0,0.0,0.0,0.0,0.0,0.0,2.7259,2.6176,2.4076,2.3063,2.2301,2.1718,2.1174,2.0772,2.0454,2.0041,1.9648,1.9287,1.9228,0.0,0.0,0.0,0.0,0.0,1.8149,1.8154,1.794,1.7364,1.7139,1.7051,1.631,1.5773,1.5309,0.0,0.0,0.0,0.0,0.0,0.0,0.0,1.9299,1.9873,1.9873,2.1045,2.2031,2.2432,2.2828,2.3091,2.3091,0.0,0.0,0.0,0.0,0.0,0.0,0.0,0.0,2.6373,2.8061,2.8938,2.8888,2.837,2.8096,2.8096,2.7005,2.6255,2.5773,2.4762,2.4273,2.4249,2.4857,2.5965,2.7412,2.8,2.8858,0.0,0.0,0.0,0.0,0.0,0.0,0.0,0.0,0.0,0.0,0.0,0.0,0.0,0.0,0.0,0.0,0.0,3.6836,0.0,0.0,0.0,0.0,0.0,0.0,0.0,3.4279,3.4095,3.3856,3.2961,3.282,3.2784,3.2713,3.196,0.0,0.0,0.0,0.0,0.0,0.0,0.0,0.0,0.0,0.0,0.0,0.0,0.0,0.0,2.8386,2.7408,2.5888,2.4447,2.3624,2.3514,2.2164,2.1455,2.134,1.958,1.8913,1.9219,1.8418,0.0,0.0,0.0,0.0,0.0,1.8393,1.8315,1.7969,1.7969,1.7949,1.7871,1.748,1.7016,1.646,0.0,0.0,0.0,0.0,0.0,0.0,0.0,0.0,0.0,0.0,2.0869,2.1924,2.2021,2.2652,2.3091,0.0,0.0,0.0,0.0,0.0,0.0,0.0,0.0,0.0,2.5354,2.8161,2.9365,2.8888,2.837,2.8096,2.8096,2.7005,2.6255,2.5773,2.5532,2.4592,2.3343,2.5383,2.6027,2.5965,2.8402,2.9573,0.0,0.0,0.0,0.0,2.9792,2.9792,0.0,0.0,0.0,0.0,0.0,0.0,0.0,0.0,3.5504,3.5534,3.5684,0.0,3.5953,3.5953,3.5848,3.5744,0.0,0.0,0.0,0.0,0.0,0.0,0.0,3.482,3.4558,3.3808,3.3484,0.0,0.0,0.0,0.0,0.0,0.0,0.0,0.0,0.0,0.0,0.0,0.0,0.0,0.0,2.8185,2.7549,2.6375,2.597,2.5063,2.3514,2.2745,2.1897,2.0913,2.0373,1.9662,1.8754,1.8549,0.0,0.0,0.0,0.0,1.8018,1.8081,1.791,1.7529,1.7529,1.7324,1.6989,1.6892,1.6783,1.6593,0.0,0.0,0.0,0.0,0.0,0.0,0.0,0.0,0.0,0.0,0.0,0.0,0.0,0.0,0.0,0.0,0.0,0.0,0.0,0.0,0.0,0.0,0.0,2.599,2.6419,2.8655,2.9641,2.9327,2.8997,2.8897,2.8858,2.8291,2.7897,2.7601,2.7076,2.6124,2.5003,2.6627,2.7303,2.7463,2.9142,0.0,0.0,0.0,0.0,0.0,2.9691,2.9792,0.0,2.9792,3.1057,3.2593,0.0,0.0,0.0,0.0,3.5504,3.5504,3.5504,3.5504,3.5504,3.5504,3.5504,3.5504,3.5504,0.0,0.0,0.0,0.0,0.0,0.0,0.0,0.0,0.0,0.0,0.0,0.0,0.0,0.0,0.0,0.0,0.0,0.0,0.0,0.0,0.0,0.0,0.0,0.0,2.7871,2.7344,2.6524,2.6499,2.5978,2.4874,2.3921,2.2948,2.2024,2.131,2.045,1.9531,1.9531,1.9304,0.0,0.0,0.0,1.8008,1.8008,1.7764,1.7383,1.7383,1.7119,1.6677,1.6504,1.6553,1.6609,0.0,0.0,0.0,0.0,0.0,0.0,0.0,0.0,0.0,0.0,0.0,0.0,0.0,0.0,0.0,0.0,0.0,0.0,0.0,0.0,0.0,0.0,2.5527,2.6519,2.7832,2.9118,2.9792,2.9792,2.9792,2.9792,2.9792,2.9792,2.9792,2.9741,2.8699,2.789,2.7365,2.7953,2.8712,2.946,2.9715,0.0,0.0,0.0,0.0,0.0,0.0,0.0,0.0,2.9792,3.1057,3.2593,3.2593,0.0,0.0,0.0,0.0,0.0,3.5504,3.5579,3.5624,3.5534,3.5504,3.5504,3.5504,0.0,0.0,0.0,0.0,0.0,0.0,0.0,0.0,0.0,0.0,0.0,0.0,0.0,0.0,0.0,0.0,0.0,0.0,0.0,0.0,0.0,0.0,0.0,0.0,2.7657,2.7153,2.6512,2.6499,2.6499,2.6499,2.5159,2.4172,2.3468,2.2199,2.127,2.0691,2.0624,2.0248,1.9592,0.0,0.0,1.8395,1.8269,1.7955,1.757,1.7448,1.707,1.6582,1.6232,1.626,1.6395,0.0,0.0,0.0,0.0,0.0,0.0,0.0,0.0,0.0,0.0,0.0,0.0,0.0,0.0,0.0,0.0,0.0,0.0,0.0,0.0,0.0,2.4745,2.5815,2.6476,2.6719,2.8752,2.9792,2.9792,2.9792,2.9792,2.9792,2.9792,2.9792,2.9767,2.9101,2.8285,2.7517,2.8398,2.8422,2.798,2.9269,0.0,0.0,0.0,0.0,0.0,0.0,0.0,0.0,2.9792,3.1057,3.2593,3.2593,0.0,0.0,0.0,0.0,0.0,3.5504,3.5908,3.6207,3.5639,3.5504,3.5504,3.5504,0.0,0.0,0.0,0.0,0.0,0.0,0.0,0.0,0.0,0.0,0.0,0.0,0.0,0.0,0.0,0.0,0.0,0.0,0.0,0.0,0.0,0.0,0.0,0.0,2.8021,2.7507,2.6524,2.6499,2.6499,2.6499,2.5774,2.4767,2.3501,2.2802,2.2008,2.1085,2.077,2.0717,2.0908,0.0,2.0333,2.0139,1.9398,1.883,1.8361,1.7658,1.6917,1.6183,1.6124,1.5899,1.5566,0.0,0.0,0.0,0.0,0.0,0.0,0.0,0.0,0.0,0.0,0.0,0.0,0.0,0.0,0.0,0.0,0.0,0.0,0.0,0.0,2.3343,2.3877,2.4967,2.6119,2.7319,2.8359,2.9197,2.9792,2.9792,2.9792,2.9792,2.9792,2.9628,2.9315,2.9013,2.8649,2.8282,2.8724,2.8835,2.8813,0.0,0.0,0.0,0.0,0.0,0.0,0.0,0.0,0.0,0.0,3.0795,3.2552,3.2255,0.0,0.0,0.0,0.0,0.0,3.5504,3.5729,3.5968,3.6028,3.6282,3.6447,3.6103,0.0,0.0,0.0,0.0,0.0,0.0,0.0,0.0,0.0,0.0,0.0,0.0,0.0,0.0,0.0,0.0,0.0,0.0,0.0,0.0,0.0,0.0,0.0,0.0,0.0,2.7431,2.6952,2.665,2.6499,2.6499,2.6223,2.5457,2.4198,2.394,2.3276,2.223,2.2035,2.1796,2.1562,0.0,2.0845,2.0072,1.9511,1.8847,1.8103,1.7591,1.6877,1.6065,1.5831,1.5586,1.541,0.0,0.0,0.0,0.0,0.0,0.0,0.0,0.0,0.0,0.0,0.0,0.0,0.0,0.0,0.0,0.0,0.0,0.0,0.0,2.3091,2.3091,2.3091,2.392,2.5452,2.7683,2.7976,2.8648,2.9792,2.9792,2.9792,2.9792,2.9792,2.9553,2.9126,2.9126,2.9126,2.9126,2.9126,2.939,2.9792,0.0,0.0,0.0,0.0,0.0,0.0,0.0,0.0,0.0,0.0,0.0,0.0,0.0,0.0,0.0,3.5459,3.528,3.507,3.522,3.5385,3.5594,3.5923,3.6492,0.0,0.0,0.0,0.0,0.0,0.0,0.0,0.0,0.0,0.0,0.0,0.0,0.0,0.0,0.0,0.0,0.0,0.0,0.0,0.0,0.0,0.0,0.0,0.0,0.0,0.0,0.0,2.7544,2.7329,2.6901,2.6625,2.6499,2.6499,2.5946,2.4788,2.4788,2.4199,2.3108,2.3108,2.2763,2.2199,2.2199,2.1464,2.0305,2.0027,1.9381,1.8514,1.8039,1.7175,1.6202,1.5732,1.5498,1.541,0.0,0.0,0.0,0.0,0.0,0.0,0.0,0.0,0.0,0.0,0.0,0.0,0.0,0.0,0.0,0.0,0.0,0.0,0.0,2.3091,2.3091,2.3091,2.3178,2.4307,2.6565,2.7602,2.8648,2.9792,2.9792,2.9792,2.9792,2.9792,2.9767,2.9729,2.9729,2.9729,2.9729,2.9729,2.9754,2.9792,2.9792,0.0,0.0,0.0,0.0,0.0,0.0,0.0,0.0,0.0,0.0,0.0,0.0,0.0,3.4698,3.5325,3.4622,3.3769,3.4414,3.5026,3.5355,3.4803,3.513,0.0,3.709,3.6896,0.0,3.6432,0.0,0.0,0.0,0.0,0.0,0.0,0.0,0.0,0.0,0.0,0.0,0.0,0.0,0.0,0.0,0.0,0.0,0.0,0.0,0.0,0.0,0.0,0.0,2.7318,2.7278,2.7014,2.6499,2.6499,2.5946,2.4788,2.4788,2.4199,2.3108,2.3108,2.3078,2.3005,2.3005,2.2663,2.2072,2.1817,2.1348,2.0666,1.9576,1.8131,1.6599,1.6212,1.5762,1.541,0.0,0.0,0.0,0.0,0.0,0.0,0.0,0.0,0.0,0.0,0.0,0.0,0.0,0.0,0.0,0.0,0.0,0.0,0.0,2.2955,2.3091,2.3091,2.3091,2.4188,2.6431,2.6883,2.7999,2.9792,2.9792,2.9792,2.9792,2.9792,2.9792,2.9792,2.9792,2.9792,2.9792,2.9792,2.9792,2.9792,2.9792,2.9666,0.0,0.0,0.0,0.0,0.0,0.0,0.0,0.0,2.9495,3.1488,3.1577,3.2655,3.3993,3.4666,3.4218,3.3544,3.3799,3.4352,3.4801,3.4578,3.4996,0.0,0.0,3.727,3.7449,3.6656,3.712,0.0,0.0,0.0,0.0,0.0,0.0,0.0,0.0,0.0,0.0,0.0,0.0,0.0,0.0,0.0,0.0,0.0,0.0,0.0,0.0,0.0,0.0,2.7808,2.7165,2.6713,2.6499,2.6499,2.5946,2.4788,2.4788,2.4199,2.3108,2.3108,2.3108,2.3108,2.3108,2.2794,2.226,2.2,2.1556,2.087,1.9423,1.83,1.74,1.6465,1.5811,1.541,0.0,0.0,0.0,0.0,0.0,0.0,0.0,0.0,0.0,0.0,0.0,0.0,0.0,0.0,0.0,0.0,0.0,0.0,2.251,2.2783,2.2896,2.2896,2.3023,2.4188,2.6431,2.6524,2.7585,2.9792,2.9792,2.9792,2.9792,2.9792,2.9792,2.9792,2.9792,2.9792,2.9792,2.9792,2.9792,2.9753,2.9404,2.9495,0.0,0.0,0.0,0.0,0.0,0.0,0.0,0.0,2.8678,3.046,3.0831,3.1772,3.2968,3.3901,3.3709,3.323,3.344,3.3978,3.4459,3.4249,0.0,0.0,3.6342,3.7315,3.7898,3.7225,3.7464,0.0,0.0,0.0,0.0,0.0,0.0,0.0,0.0,0.0,0.0,0.0,0.0,0.0,0.0,0.0,0.0,0.0,0.0,0.0,0.0,0.0,0.0,0.0,2.7241,2.6663,2.6499,2.6311,2.5724,2.4788,2.4612,2.4023,2.3108,2.3108,2.3108,2.3108,2.3108,2.2794,2.2289,2.2286,2.1878,2.1167,2.0075,1.9107,1.8248,1.7386,1.6652,1.6083,0.0,0.0,0.0,0.0,0.0,0.0,0.0,0.0,0.0,0.0,0.0,0.0,0.0,0.0,0.0,0.0,0.0,0.0,2.251,2.251,2.251,2.251,2.2867,2.4178,2.6431,2.6524,2.7597,2.9792,2.9792,2.9792,2.9792,2.9792,2.9792,2.9779,2.9779,2.9779,2.9779,2.9779,2.9779,2.9702,2.8557,2.8806,2.9613,0.0,0.0,0.0,0.0,0.0,0.0,0.0,2.827,2.9635,3.0528,3.0978,3.1509,3.3015,3.3021,3.2632,3.3305,3.3994,3.4339,0.0,0.0,0.0,3.6342,3.6971,3.7599,3.8257,0.0,0.0,0.0,0.0,0.0,0.0,0.0,0.0,0.0,0.0,0.0,0.0,0.0,0.0,0.0,0.0,0.0,0.0,0.0,0.0,0.0,0.0,0.0,0.0,2.7557,2.704,2.6499,2.5875,2.5322,2.4775,2.4255,2.369,2.3108,2.3108,2.3108,2.3108,2.3108,2.2794,2.2359,2.2882,2.2628,2.1896,2.1908,2.0756,1.9101,1.9101,1.8444,1.7605,0.0,0.0,0.0,0.0,0.0,0.0,0.0,0.0,0.0,0.0,0.0,0.0,0.0,0.0,0.0,0.0,0.0,0.0,2.207,2.207,2.2207,2.25,2.2627,2.3871,2.6431,2.8011,2.9131,2.9792,2.9792,2.9792,2.9792,2.9792,2.9578,2.9189,2.9189,2.9189,2.9189,2.9189,2.9415,2.9753,2.9443,2.9495,2.9728,0.0,0.0,0.0,0.0,0.0,0.0,0.0,0.0,0.0,2.9073,2.991,3.0749,3.1618,3.2195,3.2557,3.2751,3.329,0.0,0.0,0.0,0.0,0.0,3.6971,0.0,0.0,0.0,0.0,0.0,0.0,0.0,0.0,0.0,0.0,0.0,0.0,0.0,0.0,0.0,0.0,0.0,0.0,0.0,0.0,0.0,0.0,0.0,0.0,0.0,0.0,2.716,2.6025,2.585,2.5322,2.4782,2.4243,2.4079,2.369,2.3108,2.3108,2.3108,2.3108,2.3108,2.3007,2.2882,2.3032,2.275,2.2122,2.15,2.0517,1.9382,1.877,1.8125,1.7605,0.0,0.0,0.0,0.0,0.0,0.0,0.0,0.0,0.0,0.0,2.3091,0.0,0.0,0.0,0.0,0.0,0.0,0.0,0.0,2.1885,2.2002,2.2246,2.2422,2.378,2.6431,2.8673,2.9792,2.9792,2.9792,2.9792,2.9792,2.9792,2.9603,2.9277,2.9277,2.9101,2.8913,2.9176,2.934,2.9427,2.9227,2.9404,2.9753,0.0,0.0,0.0,0.0,0.0,0.0,0.0,0.0,0.0,2.8439,2.9226,3.0047,3.069,3.1751,3.2814,3.3198,3.3978,0.0,0.0,0.0,0.0,0.0,0.0,0.0,0.0,0.0,0.0,0.0,0.0,0.0,0.0,0.0,0.0,0.0,0.0,0.0,0.0,0.0,0.0,0.0,0.0,0.0,0.0,0.0,0.0,0.0,0.0,0.0,2.913,2.738,2.6179,2.5598,2.5084,2.4544,2.4004,2.3766,2.3446,2.3108,2.3108,2.3108,2.3108,2.3108,2.2982,2.2794,2.3007,2.2656,2.1951,2.1643,2.0913,1.9976,1.9468,1.892,1.8463,0.0,0.0,0.0,0.0,0.0,0.0,0.0,0.0,0.0,0.0,2.3091,2.3091,0.0,0.0,0.0,0.0,0.0,0.0,0.0,2.1904,2.1904,2.1943,2.2545,2.4022,2.6431,2.8673,2.9792,2.9792,2.9792,2.9792,2.9792,2.9792,2.9767,2.9716,2.9666,2.9352,2.885,2.9365,2.9289,2.8787,2.8346,2.8748,2.9525,2.8552,0.0,0.0,0.0,0.0,0.0,0.0,0.0,0.0,2.8317,2.8833,2.9424,3.0012,3.1473,3.3126,3.4131,0.0,0.0,0.0,0.0,0.0,0.0,0.0,0.0,0.0,0.0,0.0,0.0,0.0,0.0,0.0,0.0,0.0,0.0,0.0,0.0,0.0,0.0,0.0,0.0,0.0,0.0,0.0,0.0,0.0,0.0,0.0,3.1077,2.8825,2.7974,2.6934,2.5656,2.4978,2.4418,2.3916,2.3358,2.3108,2.3108,2.3108,2.3108,2.3108,2.3058,2.2744,2.2347,2.2769,2.2359,2.1496,2.197,2.1518,2.0616,2.0616,2.0277,1.9798,0.0,0.0,0.0,0.0,0.0,0.0,0.0,0.0,0.0,0.0,0.0,0.0,0.0,0.0,0.0,0.0,0.0,0.0,0.0,2.207,2.2031,2.2363,2.4462,2.5917,2.6472,2.8673,2.9792,2.9792,2.9792,2.9792,2.9792,2.9792,2.9553,2.9101,2.8662,2.8398,2.826,2.7959,2.8009,2.8298,2.8599,2.8612,2.8474,2.8661,2.8375,0.0,0.0,0.0,0.0,0.0,0.0,0.0,2.768,2.8066,2.8777,2.9178,3.0375,3.193,0.0,3.4292,0.0,0.0,0.0,0.0,0.0,0.0,0.0,0.0,0.0,0.0,0.0,0.0,0.0,0.0,0.0,0.0,0.0,0.0,0.0,0.0,0.0,0.0,0.0,0.0,0.0,0.0,0.0,0.0,0.0,3.2438,3.1166,3.063,2.7913,2.6293,2.6005,2.4307,2.3409,0.0,2.3158,2.3108,2.3108,2.3108,2.3108,2.3083,2.2644,2.2422,2.2284,2.197,2.1443,2.088,2.0993,2.0616,1.9987,1.9987,1.9911,1.9798,0.0,0.0,0.0,0.0,0.0,0.0,0.0,0.0,0.0,0.0,0.0,0.0,0.0,0.0,0.0,0.0,0.0,0.0,0.0,0.0,2.2285,2.25,2.4567,2.5922,2.6483,2.8119,2.9236,2.9792,2.9792,2.9792,2.9792,2.9792,2.9628,2.9327,2.9038,2.8612,2.8122,2.8373,2.8335,2.8123,2.8187,2.8324,2.8387,2.7462,2.7359,2.7672,2.7447,0.0,0.0,0.0,0.0,0.0,0.0,0.0,2.9119,2.9167,3.0447,3.207,0.0,0.0,0.0,0.0,0.0,0.0,0.0,0.0,0.0,0.0,0.0,0.0,0.0,0.0,0.0,0.0,0.0,0.0,0.0,0.0,0.0,0.0,0.0,0.0,0.0,0.0,0.0,0.0,0.0,0.0,0.0,3.261,3.136,3.0328,2.8264,2.6652,2.5629,2.4585,2.3752,2.3108,2.3108,2.3108,2.3108,2.3108,2.2957,2.2694,2.2406,2.202,2.1518,2.1493,2.1004,2.0302,2.0578,2.0515,2.0214,1.9911,1.9974,2.0201,0.0,0.0,0.0,0.0,0.0,0.0,0.0,0.0,0.0,0.0,0.0,0.0,0.0,0.0,0.0,0.0,0.0,0.0,0.0,0.0,0.0,2.2617,2.4016,2.5336,2.6483,2.7562,2.8648,2.9792,2.9792,2.9792,2.9792,2.9792,2.9792,2.9792,2.9691,2.9126,2.8298,2.9051,2.8875,2.8061,2.7639,2.7937,2.84,2.6358,2.6484,2.7712,2.698,2.7532,2.8637,2.8825,0.0,0.0,0.0,0.0,2.9492,2.9435,3.0578,3.2068,0.0,0.0,0.0,0.0,0.0,0.0,0.0,0.0,0.0,0.0,0.0,0.0,0.0,0.0,0.0,0.0,0.0,0.0,0.0,0.0,0.0,0.0,0.0,0.0,0.0,0.0,0.0,0.0,0.0,0.0,3.3559,3.2647,3.1353,2.9566,2.8641,2.7241,2.5329,2.5074,2.4352,2.3108,2.3108,2.3108,2.3108,2.3007,2.2769,2.2447,2.2246,2.1656,2.0855,2.1091,2.0639,1.9849,2.0352,2.0541,2.0478,1.9974,2.0138,2.0478,0.0,0.0,0.0,0.0,0.0,0.0,0.0,0.0,0.0,0.0,0.0,0.0,0.0,0.0,0.0,0.0,0.0,0.0,0.0,0.0,0.0,2.2994,2.418,2.5336,2.6483,2.7562,2.8648,2.9792,2.9792,2.9792,2.9792,2.9792,2.9792,2.9767,2.9264,2.8925,2.8725,2.7959,2.7808,2.8059,2.7549,2.7387,2.7494,2.7156,2.6868,2.6776,2.7099,2.7324,2.7645,2.8574,2.8938,0.0,0.0,0.0,2.8469,2.92,2.9222,2.9645,0.0,0.0,0.0,0.0,0.0,0.0,0.0,0.0,0.0,0.0,0.0,0.0,0.0,0.0,0.0,0.0,0.0,0.0,0.0,0.0,0.0,0.0,0.0,0.0,0.0,0.0,0.0,0.0,0.0,0.0,3.3499,3.1764,3.063,3.0367,2.8559,2.7158,2.6252,2.5027,2.3962,2.3108,2.3108,2.3108,2.3083,2.2606,2.2606,2.2945,2.202,2.1546,2.1333,2.0401,1.9936,1.9811,1.9886,1.9911,1.9911,1.9823,1.9849,1.9911,0.0,0.0,0.0,0.0,0.0,0.0,0.0,0.0,0.0,0.0,0.0,0.0,0.0,0.0,0.0,0.0,0.0,0.0,0.0,0.0,0.0,2.2773,2.3235,2.4462,2.6472,2.6639,2.7731,2.9792,2.9164,2.9164,2.9779,2.9465,2.9478,2.9779,2.9528,2.9063,2.8473,2.8624,2.8461,2.8048,2.7213,2.7237,2.7562,2.5817,2.5741,2.6455,2.6144,2.6766,2.7821,2.8298,2.8888,2.9415,2.9415,0.0,0.0,0.0,2.9798,0.0,3.2779,0.0,0.0,0.0,0.0,0.0,0.0,0.0,0.0,0.0,0.0,0.0,0.0,0.0,0.0,0.0,0.0,0.0,0.0,0.0,0.0,0.0,0.0,0.0,0.0,0.0,0.0,0.0,0.0,3.3499,3.3499,3.1584,3.0342,2.9998,2.8417,2.7207,2.6465,2.5424,2.4308,2.3108,2.3573,2.3377,2.2631,2.2422,2.2243,2.2171,2.1408,2.0867,2.0501,2.0012,1.9798,1.9798,1.9798,1.9999,2.0264,1.9924,2.0012,2.0264,0.0,0.0,0.0,0.0,0.0,0.0,0.0,0.0,0.0,0.0,0.0,0.0,0.0,0.0,0.0,0.0,0.0,0.0,0.0,0.0,0.0,2.2334,2.2461,2.3626,2.6061,2.5764,2.6853,2.9365,2.8662,2.875,2.9566,2.9289,2.9377,2.9792,2.9792,2.9327,2.8574,2.9126,2.9038,2.8399,2.709,2.7189,2.7826,2.5228,2.5205,2.6383,2.5664,2.6402,0.0,0.0,0.0,0.0,0.0,0.0,0.0,0.0,0.0,0.0,0.0,0.0,0.0,0.0,0.0,0.0,0.0,0.0,0.0,0.0,0.0,0.0,0.0,0.0,0.0,0.0,0.0,0.0,0.0,0.0,0.0,0.0,0.0,0.0,0.0,0.0,0.0,0.0,0.0,3.3425,3.3245,3.1509,3.0223,2.9636,2.8468,2.7432,2.651,2.5755,2.4838,2.3695,2.4279,2.3969,2.2789,2.2496,2.2068,2.1455,2.093,2.0453,2.0012,1.9861,1.9798,1.9798,1.9798,2.0075,2.0427,1.9962,2.0075,2.0415,0.0,0.0,0.0,0.0,0.0,0.0,0.0,0.0,0.0,0.0,0.0,0.0,2.251,2.2158,2.1728,2.1239,2.0869,0.0,0.0,0.0,0.0,2.1904,2.2305,0.0,2.5044,2.5418,2.6453,2.8197,2.8624,2.8875,2.895,2.9503,2.9767,2.9792,2.9792,2.9767,2.9641,2.8624,2.8775,2.9515,2.7358,2.7132,2.7984,2.6797,2.6418,2.6499,0.0,0.0,0.0,0.0,0.0,0.0,0.0,0.0,2.8398,0.0,0.0,0.0,0.0,0.0,0.0,0.0,0.0,0.0,0.0,0.0,0.0,0.0,0.0,0.0,0.0,0.0,0.0,0.0,0.0,0.0,0.0,0.0,0.0,0.0,0.0,0.0,0.0,0.0,0.0,0.0,0.0,3.3215,3.2602,3.1255,3.0223,2.9636,2.8906,2.7879,2.651,2.5755,2.537,2.5287,2.5315,2.4937,2.4155,2.3078,2.2185,2.1455,2.093,2.0679,2.0603,2.0024,1.9798,1.9798,1.9798,1.9823,1.9849,1.9811,1.9823,1.9849,0.0,0.0,0.0,0.0,0.0,0.0,0.0,0.0,0.0,0.0,0.0,0.0,0.0,2.2539,2.2119,2.1689,2.1026,0.0,0.0,0.0,0.0,2.2256,2.2432,2.3585,2.5905,2.5407,2.6256,2.8599,2.777,2.7896,2.8888,2.8787,2.9101,2.9792,2.9792,2.9578,2.9239,2.9202,2.9202,2.9139,2.7971,2.7758,2.7984,2.6914,0.0,0.0,0.0,0.0,0.0,0.0,0.0,0.0,0.0,2.8512,2.826,2.9013,2.9745,0.0,0.0,0.0,0.0,0.0,0.0,0.0,0.0,0.0,0.0,0.0,0.0,0.0,0.0,0.0,0.0,0.0,0.0,0.0,0.0,0.0,0.0,0.0,0.0,0.0,0.0,0.0,0.0,0.0,0.0,3.2766,3.2497,3.0851,2.9804,2.9621,2.8543,2.7491,2.651,2.6707,2.6349,2.5398,2.5864,2.5322,2.3811,2.2978,2.2233,2.1565,2.0566,2.0112,2.01,1.9886,1.9798,1.9798,1.9798,1.9798,1.9798,1.9798,1.9798,1.9798,0.0,0.0,0.0,0.0,0.0,0.0,0.0,0.0,0.0,2.5357,0.0,0.0,0.0,0.0,2.2745,2.1965,2.1388,2.13,2.1846,2.1611,2.1709,2.2275,2.2441,2.3595,2.5938,2.5407,2.6174,2.8373,2.7457,2.7482,2.8373,2.8185,2.8612,2.949,2.9315,2.9227,2.9239,2.9415,0.0,2.9151,0.0,0.0,2.8285,0.0,0.0,0.0,0.0,0.0,0.0,0.0,0.0,0.0,0.0,2.8662,2.8699,2.8838,2.934,0.0,2.9792,0.0,0.0,0.0,0.0,0.0,0.0,0.0,0.0,0.0,0.0,0.0,0.0,0.0,0.0,0.0,0.0,0.0,0.0,0.0,0.0,0.0,0.0,0.0,0.0,0.0,0.0,0.0,0.0,0.0,3.2168,3.0731,2.9726,2.9292,2.8184,2.7357,2.6878,2.7357,2.7111,2.6135,2.6628,2.6064,2.4537,2.3646,2.2914,2.2283,2.0975,2.0297,2.0131,1.9901,1.9798,1.9798,1.9798,1.9798,1.9798,1.9798,1.9798,1.9798,0.0,0.0,0.0,0.0,0.0,0.0,0.0,0.0,2.6044,2.6498,0.0,0.0,0.0,0.0,0.0,2.2099,2.1977,2.1977,2.1965,2.1946,2.1987,2.2038,0.0,0.0,2.5049,2.5446,2.6225,2.7331,2.7833,2.7821,2.7318,2.7846,2.8386,2.8863,2.8386,2.875,2.9729,0.0,2.9264,2.9691,0.0,2.8448,2.8838,0.0,0.0,0.0,2.8109,2.8109,0.0,0.0,0.0,0.0,0.0,2.8825,2.9628,2.9013,2.9315,0.0,0.0,0.0,0.0,0.0,0.0,0.0,0.0,0.0,0.0,0.0,0.0,0.0,0.0,0.0,0.0,0.0,0.0,0.0,0.0,0.0,0.0,0.0,0.0,0.0,0.0,0.0,0.0,0.0,3.2153,3.2213,3.154,3.0866,2.9894,2.8607,2.7944,2.76,2.76,2.76,2.76,2.76,2.76,2.7199,2.6424,2.5108,2.4178,2.3531,2.2188,2.131,2.0795,2.0131,1.9824,1.9798,1.9824,1.9824,1.9798,1.9823,1.9823,1.9811,0.0,0.0,0.0,0.0,0.0,0.0,2.8882,2.808,2.7519,0.0,0.0,0.0,2.6036,2.5617,2.487,2.367,2.3267,2.3309,2.3969,2.3711,2.4043,2.5168,2.5339,2.5946,2.7221,2.6948,2.7373,2.8473,2.7821,2.7632,2.7871,2.762,2.8009,2.89,2.9202,2.9264,2.9151,2.8963,0.0,2.9729,2.9001,2.875,0.0,0.0,0.0,0.0,0.0,2.836,0.0,0.0,2.821,2.777,0.0,0.0,2.8461,2.7908,2.8712,0.0,2.9289,0.0,0.0,0.0,0.0,0.0,0.0,0.0,0.0,0.0,0.0,0.0,0.0,0.0,0.0,0.0,0.0,0.0,0.0,0.0,0.0,0.0,0.0,0.0,0.0,0.0,0.0,0.0,3.3125,3.2736,3.157,3.0447,2.922,2.7929,2.7705,2.76,2.76,2.76,2.76,2.76,2.76,2.6991,2.581,2.5001,2.4259,2.352,2.2233,2.1852,2.2128,2.1448,2.0632,1.985,2.0321,2.0232,1.9849,2.0302,2.0162,1.9924,0.0,0.0,0.0,0.0,0.0,3.0306,2.9867,2.9433,2.9062,0.0,0.0,0.0,2.7209,2.654,2.5843,2.5228,2.4927,2.4962,2.5472,2.5297,2.5554,2.6461,2.6524,2.7005,2.8096,2.7787,2.8176,2.9289,2.8649,2.8373,2.8448,2.836,2.8549,2.8913,2.9289,2.9377,0.0,0.0,0.0,0.0,2.9327,0.0,0.0,2.8925,2.8812,0.0,0.0,0.0,2.9214,2.875,2.8222,0.0,0.0,0.0,0.0,0.0,0.0,0.0,0.0,0.0,0.0,0.0,0.0,0.0,0.0,3.0432,0.0,0.0,0.0,0.0,0.0,0.0,0.0,0.0,0.0,0.0,0.0,0.0,0.0,0.0,0.0,0.0,0.0,0.0,3.3679,3.2751,3.2677,3.2183,3.1137,3.0133,2.9112,2.8064,2.775,2.76,2.76,2.76,2.76,2.76,2.76,2.7046,2.5995,2.5623,2.4917,2.3977,2.3187,2.2805,2.2694,2.2538,2.1744,2.062,2.0746,2.0708,2.0585,2.0397,2.0409,2.0604,0.0,0.0,0.0,3.0934,3.1072,3.0997,3.0105,3.0331,3.0457,0.0,2.9917,2.9479,2.8398,2.7452,2.6812,2.6678,2.6723,2.6768,2.6768,2.6768,2.6873,2.7053,2.6951,2.7389,2.8423,2.8415,2.8889,2.9967,2.9917,2.9616,2.9088,2.9578,2.9553,2.9076,2.9076,0.0,0.0,0.0,0.0,2.8938,2.9566,2.9792,0.0,0.0,2.9792,0.0,2.9792,2.9792,2.9628,2.8486,2.7733,0.0,0.0,0.0,0.0,0.0,2.7582,0.0,0.0,0.0,0.0,0.0,0.0,0.0,2.7695,2.895,3.0099,0.0,0.0,0.0,0.0,0.0,0.0,0.0,0.0,0.0,0.0,0.0,0.0,0.0,0.0,0.0,0.0,3.3724,3.317,3.1824,3.1585,3.1212,3.0537,2.9924,2.9307,2.8622,2.7959,2.76,2.76,2.76,2.7555,2.748,2.7555,2.718,2.6368,2.648,2.5775,2.4485,2.4495,2.3874,2.283,2.3377,2.2854,2.1649,2.1186,2.1283,2.1568,2.0601,2.0862,2.1654,0.0,0.0,0.0,3.1788,3.1273,3.0834,3.1047,3.0821,3.0733,3.1035,3.0721,3.019,2.9545,2.9287,2.8791,2.7855,2.8192,2.8427,2.8427,2.8427,2.9039,3.0413,2.9625,2.9643,3.0739,3.0313,3.0446,3.1085,3.0658,3.0394,3.0281,2.9942,2.9967,3.0281,3.0281,0.0,0.0,0.0,0.0,2.8938,2.9566,0.0,2.9792,2.9792,2.9792,2.9792,2.9792,2.9792,2.9628,0.0,2.7733,2.7216,0.0,0.0,0.0,0.0,0.0,0.0,0.0,0.0,0.0,0.0,0.0,0.0,2.7301,2.7833,2.8172,0.0,0.0,0.0,0.0,0.0,0.0,0.0,0.0,0.0,0.0,0.0,0.0,0.0,0.0,0.0,0.0,3.5115,3.4562,3.3215,3.2108,3.1212,3.0537,2.9924,2.9307,2.8622,2.7959,2.76,2.76,2.76,2.733,2.6806,2.7345,2.6677,2.5023,2.6083,2.5571,2.3812,2.435,2.4141,2.3443,2.3551,2.2854,2.1744,2.2161,2.2067,2.1797,2.2581,2.2704,2.2695,0.0,0.0,3.1587,3.2127,3.1775,3.1411,3.1386,3.1399,3.1411,3.1386,3.0934,3.0507,3.0231,2.9955,2.9573,2.8988,2.9426,2.9744,2.9744,2.9744,3.0232,3.1361,3.0633,3.0583,3.1373,3.1135,3.126,3.18,3.1537,3.1411,3.1411,3.1122,3.0721,3.0231,3.0771,3.0545,0.0,0.0,3.0281,2.9728,2.9792,0.0,2.9792,2.9792,2.9792,2.9792,2.9792,2.9616,2.9277,2.8675,2.7959,0.0,0.0,2.6901,2.6851,0.0,2.6688,2.6851,0.0,0.0,0.0,2.6135,0.0,0.0,0.0,2.6794,2.7229,0.0,0.0,0.0,0.0,0.0,0.0,0.0,0.0,0.0,0.0,0.0,0.0,0.0,0.0,0.0,0.0,3.519,3.4442,3.3095,3.2392,3.1705,3.1017,3.0387,2.9744,2.9116,2.8442,2.7944,2.76,2.727,2.6941,2.6587,2.6941,2.6393,2.5143,2.6482,2.6168,2.4627,2.4948,2.4709,2.4066,2.3744,2.3216,2.2651,2.2694,2.2881,2.3157,2.3146,2.3565,2.4129,3.1524,0.0,0.0,3.2215,3.2215,3.2026,3.1474,3.1763,3.1825,3.1173,3.0984,3.0846,3.0633,3.0218,2.9993,3.0093,3.0507,3.0758,3.0758,3.0859,3.1072,3.1373,3.0984,3.1009,3.1537,3.1449,3.1662,3.2215,3.2215,3.2215,3.2215,3.2215,3.1574,3.0444,3.0997,3.0871,0.0,0.0,0.0,3.057,0.0,2.9892,2.9792,2.9792,2.9792,2.9779,2.9666,2.9264,2.8737,2.8737,0.0,2.7178,2.7291,2.6939,0.0,0.0,0.0,0.0,0.0,0.0,0.0,0.0,0.0,2.649,0.0,0.0,0.0,2.5385,0.0,0.0,0.0,0.0,0.0,0.0,0.0,0.0,0.0,0.0,0.0,0.0,0.0,0.0,0.0,3.4876,3.3978,3.2796,3.2557,3.2198,3.154,3.0853,3.0283,2.9774,2.9011,2.8338,2.7809,2.7136,2.6746,2.6587,2.6746,2.6363,2.5659,2.7001,2.6881,2.5615,2.5749,2.5397,2.4739,2.4066,2.3789,2.3746,2.3112,2.3591,2.4491,2.3593,2.4316,2.5546,3.2026,3.2177,0.0,0.0,3.2215,3.2026,3.1474,3.1436,3.1122,3.0105,3.1173,3.1675,3.0721,0.0,0.0,0.0,0.0,0.0,3.1298,0.0,3.1838,3.1411,3.1336,3.1562,3.2102,3.1637,3.1662,3.2215,3.2215,3.2215,3.2215,3.2215,3.239,3.2696,3.1298,0.0,0.0,0.0,3.062,0.0,3.0545,3.0231,0.0,2.9792,2.9792,2.9729,2.9176,2.8662,2.8197,0.0,2.7469,2.6675,0.0,2.6939,0.0,0.0,0.0,0.0,0.0,0.0,0.0,0.0,2.4976,0.0,0.0,0.0,2.5875,2.6248,0.0,0.0,0.0,0.0,0.0,0.0,0.0,0.0,0.0,0.0,0.0,0.0,0.0,0.0,0.0,3.4876,3.4204,3.344,3.2841,3.2198,3.154,3.0853,3.0477,3.0402,2.9235,2.8562,2.8487,2.7824,2.7195,2.6602,2.721,2.6811,2.5659,2.7001,2.6881,2.5621,2.6228,2.6108,2.5427,2.4754,2.4485,2.4425,2.3769,2.3948,2.4657,2.5108,2.5777,2.645,3.175,3.1989,0.0,0.0,3.2441,3.2139,3.1901,3.1863,3.1825,3.1712,3.2001,3.2039,0.0,0.0,0.0,0.0,0.0,3.1738,0.0,0.0,3.1637,0.0,0.0,0.0,0.0,3.1675,3.1662,3.2215,3.2215,3.2051,3.1738,3.1738,3.17,3.1625,3.0922,0.0,3.1273,0.0,0.0,0.0,0.0,0.0,0.0,2.9917,2.9792,2.9767,2.9515,2.9063,2.8549,0.0,2.7846,0.0,0.0,0.0,0.0,0.0,0.0,0.0,0.0,0.0,0.0,0.0,0.0,0.0,0.0,0.0,2.6021,0.0,0.0,0.0,0.0,0.0,0.0,0.0,0.0,0.0,0.0,0.0,0.0,0.0,0.0,0.0,0.0,0.0,0.0,0.0,3.3021,3.2632,3.157,3.1227,3.0883,3.0507,2.9983,2.9355,2.8607,2.7944,2.727,2.6587,2.6896,2.6707,2.6213,2.7165,2.7285,2.6761,2.6632,2.6437,2.6093,2.5038,2.4605,2.45,2.3475,2.3939,2.5202,2.551,2.6273,2.7076,3.2102,0.0,0.0,0.0,0.0,0.0,0.0,0.0,0.0,0.0,0.0,0.0,3.2227,3.2001,0.0,0.0,0.0,3.2441,0.0,0.0,3.1712,0.0,0.0,0.0,0.0,0.0,3.1436,3.1989,3.1838,3.1574,3.1173,3.1173,3.1047,3.0821,0.0,3.0696,3.0859,0.0,0.0,3.1148,3.0771,3.052,3.0344,2.9942,2.9792,2.9779,2.9616,2.9189,2.8662,2.8662,2.7971,0.0,2.7231,0.0,0.0,0.0,0.0,0.0,2.6499,0.0,0.0,0.0,0.0,0.0,0.0,0.0,0.0,0.0,0.0,0.0,0.0,0.0,0.0,0.0,0.0,0.0,0.0,0.0,0.0,0.0,0.0,0.0,0.0,0.0,0.0,0.0,0.0,3.2916,3.157,3.1511,3.1271,3.0806,3.0612,2.9983,2.8876,2.8214,2.754,2.6881,2.6881,2.6881,2.6896,2.7375,2.76,2.7555,2.6896,2.6692,2.6761,2.5217,2.4709,2.4754,2.3445,2.3909,2.5277,2.4941,2.5854,2.7136,3.3608,3.3834,0.0,0.0,0.0,0.0,0.0,0.0,0.0,0.0,0.0,0.0,0.0,0.0,0.0,0.0,0.0,3.3608,3.3056,0.0,3.2528,0.0,0.0,3.1625,0.0,0.0,0.0,3.1411,3.0922,3.0658,3.0645,3.0645,3.0896,3.1348,3.0834,3.0896,3.1361,3.1386,3.1097,3.0633,3.062,3.0294,2.9817,0.0,2.9792,2.9716,2.9151,0.0,0.0,2.8134,2.7394,0.0,0.0,0.0,0.0,0.0,0.0,0.0,0.0,0.0,0.0,2.6474,0.0,0.0,0.0,0.0,2.6487,0.0,0.0,0.0,0.0,0.0,2.6499,2.6512,0.0,0.0,0.0,0.0,0.0,0.0,0.0,0.0,0.0,0.0,0.0,0.0,0.0,0.0,3.157,3.1511,3.1496,3.1466,3.0851,3.0193,2.9577,2.8891,2.8218,2.757,2.757,2.757,2.757,2.7585,2.76,2.7555,2.6896,2.6971,2.7405,2.5412,2.4978,2.5435,2.4088,2.4014,2.4485,2.3236,2.4425,2.6437,0.0,0.0,0.0,0.0,0.0,0.0,0.0,3.1449,0.0,0.0,0.0,0.0,0.0,0.0,3.3696,0.0,0.0,3.3671,3.3162,3.3124,0.0,0.0,0.0,3.1122,0.0,0.0,0.0,0.0,0.0,3.0947,3.062,3.0972,3.1035,3.0884,0.0,3.1035,0.0,0.0,0.0,0.0,0.0,3.1557,3.1513,0.0,0.0,2.9716,2.9139,2.8574,0.0,2.7682,2.7102,2.6524,2.6713,2.665,2.6499,2.6499,2.6499,0.0,0.0,0.0,2.6499,2.6499,0.0,0.0,0.0,0.0,0.0,0.0,0.0,0.0,0.0,0.0,2.6499,2.6499,2.6499,2.6499,0.0,0.0,0.0,0.0,0.0,0.0,0.0,0.0,0.0,0.0,3.2168,0.0,3.0883,3.1256,3.1511,3.1511,3.1271,3.0672,2.9621,2.9397,2.8708,2.76,2.76,2.76,2.76,2.76,2.76,2.7555,2.6896,2.6986,2.745,2.5435,2.4993,2.5435,2.367,2.367,2.4545,2.4111,2.4515,2.5202,3.4956,0.0,0.0,0.0,0.0,0.0,0.0,0.0,0.0,0.0,3.4098,0.0,3.5408,0.0,3.4625,0.0,3.4374,3.4248,3.3696,3.3483,0.0,3.283,3.1763,0.0,0.0,0.0,0.0,0.0,0.0,3.0645,3.0331,3.0871,3.0834,3.0369,0.0,0.0,0.0,0.0,3.1679,0.0,0.0,3.2372,0.0,0.0,3.0654,3.0396,0.0,2.9153,2.8173,2.7851,2.7365,2.6939,2.6939,2.6939,2.6939,2.6939,2.6939,2.6939,2.6939,2.6939,0.0,2.6939,2.6714,0.0,2.6021,0.0,0.0,0.0,0.0,0.0,0.0,0.0,2.6499,2.6499,2.6499,2.6562,0.0,2.7789,0.0,0.0,0.0,0.0,0.0,0.0,0.0,3.1585,3.172,3.1451,0.0,0.0,3.1511,3.1511,3.1511,3.0972,2.9924,2.9726,2.9052,2.7959,2.7705,2.76,2.76,2.76,2.7465,2.721,2.6527,2.6482,2.6761,2.4986,2.4634,2.5098,2.3595,2.367,2.453,2.3812,2.3857,2.4231,0.0,0.0,0.0,0.0,3.3332,0.0,0.0,0.0,3.3294,0.0,3.5366,3.6182,3.5671,3.6056,3.5893,3.4813,3.5132,0.0,3.4668,3.4186,0.0,0.0,3.2792,3.2428,3.298,0.0,0.0,0.0,0.0,0.0,2.9842,3.0369,3.0371,2.997,3.1543,0.0,3.1397,3.2394,3.2753,3.2664,3.2664,3.2713,3.2749,3.2749,3.2312,3.1689,3.1585,3.0268,2.8541,2.8549,2.8192,2.7769,2.7769,2.7769,2.7769,2.7769,2.7769,2.7769,2.7769,2.7769,2.7769,2.7703,0.0,0.0,0.0,0.0,2.6555,0.0,0.0,0.0,0.0,0.0,0.0,2.6499,2.6499,2.6675,2.7203,0.0,0.0,0.0,0.0,0.0,0.0,0.0,3.3514,3.1645,3.2049,3.1854,0.0,0.0,3.154,3.1511,3.1511,3.1182,3.0507,2.9894,2.925,2.8592,2.7929,2.76,2.76,2.76,2.7255,2.6602,2.5914,2.5644,2.56,2.4178,2.4007,2.459,2.3924,2.4036,2.4365,2.2488,2.2532,2.355,3.5094,3.552,3.5483,0.0,3.3332,3.2303,0.0,0.0,0.0,0.0,3.5843,3.6621,3.7299,3.6408,3.5433,3.4776,3.4474,0.0,0.0,0.0,0.0,3.3897,3.2428,3.1675,3.1813,3.1022,0.0,3.0821,0.0,0.0,3.0407,3.0557,3.0941,3.1614,0.0,0.0,3.3006,3.3159,3.3406,3.3636,3.3636,3.4075,0.0,0.0,3.4035,3.2832,3.1503,3.0335,2.9391,2.9021,2.8775,2.8684,2.8684,2.8684,2.8684,2.8684,2.8684,2.8684,2.8684,2.8684,2.8524,2.7855,2.8019,2.8019,0.0,0.0,0.0,0.0,0.0,0.0,0.0,0.0,0.0,0.0,2.6499,0.0,0.0,0.0,0.0,0.0,0.0,0.0,0.0,0.0,3.1304,3.1482,3.1182,3.0866,0.0,0.0,0.0,3.1525,3.1511,3.1182,3.0507,2.9894,2.925,2.8592,2.7929,2.76,2.76,2.76,2.751,2.7285,2.6108,2.6168,2.6911,2.4552,2.4298,2.5277,2.4605,2.4455,2.4485,2.349,2.3047,2.2868,3.5744,0.0,0.0,3.6967,0.0,0.0,3.4383,0.0,0.0,3.6193,3.7021,0.0,3.6958,3.6752,3.6004,3.4494,3.4073,0.0,0.0,0.0,0.0,3.4842,3.3571,3.259,3.2008,3.1059,0.0,3.062,0.0,0.0,3.0868,3.1356,3.1836,0.0,0.0,3.3561,0.0,3.4163,3.4441,3.4658,3.4658,0.0,0.0,3.5504,3.4666,3.3362,3.2347,3.1137,2.9968,2.9662,2.9566,2.9566,2.9566,2.9566,2.9566,2.9566,2.9566,2.9566,2.9566,2.9566,2.9442,2.8971,2.8907,2.8748,2.7802,2.7637,2.7571,0.0,0.0,0.0,0.0,0.0,0.0,0.0,0.0,0.0,0.0,0.0,0.0,0.0,0.0,0.0,0.0,0.0,3.0148,3.099,3.0972,3.0821,0.0,0.0,0.0,3.1525,3.178,3.1466,3.0507,3.0163,2.952,2.8592,2.7929,2.76,2.76,2.76,2.7435,2.7121,2.6363,2.6303,2.6572,2.4777,2.447,2.5128,2.4754,2.4425,2.4141,2.4066,2.364,2.3002,0.0,0.0,0.0,0.0,0.0,0.0,0.0,3.6425,0.0,3.7767,0.0,3.8339,3.6284,3.7247,3.7085,3.4525,0.0,3.4564,3.5423,3.5465,3.5599,3.5849,3.4996,3.3993,3.2881,3.1538,0.0,0.0,0.0,0.0,3.1415,3.2349,0.0,0.0,0.0,0.0,0.0,3.5133,3.5504,3.5504,3.5504,3.5504,3.5504,3.5504,3.4666,3.3499,3.3499,3.2195,3.045,3.045,3.045,3.045,3.045,3.045,3.045,3.045,3.045,3.045,3.045,3.045,3.0419,3.0329,2.9827,2.9286,2.9066,2.8492,2.8019,2.7887,2.7317,2.685,0.0,0.0,0.0,0.0,0.0,0.0,0.0,0.0,0.0,0.0,0.0,0.0,0.0,0.0,2.9988,3.0824,3.1421,0.0,0.0,0.0,0.0,3.1525,3.2064,3.1869,3.0776,0.0,2.9864,2.8846,2.8004,2.76,2.76,2.76,2.724,2.6587,2.6587,2.6273,2.5674,2.4903,2.4649,2.4724,2.4634,2.4291,2.3909,2.4321,2.4096,2.3505,0.0,0.0,0.0,0.0,0.0,4.1223,4.1397,4.0512,3.9983,4.0189,4.0216,3.9901,3.9074,3.8349,3.7547,3.6606,3.6062,0.0,0.0,0.0,0.0,3.4637,3.4002,3.3506,3.3287,3.2604,3.2268,0.0,0.0,0.0,3.2357,3.254,0.0,0.0,0.0,0.0,3.5246,3.5439,0.0,3.5504,3.5504,3.5504,3.5504,3.5504,3.4666,3.3499,3.3499,3.2557,3.1278,3.1278,3.1278,3.1278,3.1278,3.1278,3.1278,3.1278,3.1278,3.1278,3.1278,3.1278,3.1117,3.0464,3.0673,3.0703,2.9317,2.9442,2.9628,2.8907,2.8652,2.8556,2.8556,0.0,0.0,0.0,0.0,0.0,0.0,0.0,0.0,0.0,0.0,0.0,0.0,0.0,0.0,0.0,0.0,0.0,0.0,0.0,0.0,0.0,3.1615,0.0,0.0,0.0,2.9894,3.0148,2.8423,2.76,2.76,2.76,2.724,2.6587,2.6587,2.6527,2.6318,2.5098,2.4933,2.5367,2.4814,2.4874,2.5136,2.4148,2.3699,2.3505,0.0,0.0,0.0,0.0,0.0,0.0,0.0,4.3235,0.0,4.0944,4.0407,3.955,3.8062,3.8181,3.7784,3.6294,3.5896,3.57,3.5606,3.5601,3.5555,3.546,3.4661,0.0,3.3727,3.2959,3.2593,3.2593,0.0,0.0,3.331,0.0,0.0,0.0,0.0,3.5052,0.0,0.0,0.0,3.5504,3.5504,3.5504,3.5504,3.5504,3.4666,3.3499,3.3499,3.2647,3.1511,3.1511,3.1511,3.1511,3.1511,3.1511,3.1511,3.1511,3.1511,3.1511,3.1511,3.1511,3.1319,3.0586,3.0952,3.1188,3.0045,3.0054,3.0178,2.9766,2.9317,2.9002,2.9002,2.9002,0.0,0.0,0.0,0.0,0.0,0.0,0.0,0.0,0.0,0.0,0.0,0.0,0.0,0.0,0.0,0.0,0.0,0.0,0.0,0.0,0.0,0.0,0.0,0.0,0.0,2.9505,2.8214,2.76,2.76,2.76,2.724,2.6617,2.6971,2.6926,2.6512,2.554,2.5098,2.5008,2.4335,2.4283,2.4477,2.3834,2.3595,2.355,0.0,4.2891,0.0,0.0,4.508,0.0,4.5125,4.4646,4.3586,4.1595,4.0527,3.9203,3.7303,3.8179,3.8117,3.6127,3.5953,3.5994,3.6027,3.6019,3.6107,3.6264,3.5521,3.4869,3.4327,3.3602,3.322,0.0,0.0,0.0,0.0,0.0,0.0,0.0,0.0,0.0,0.0,0.0,3.5504,3.5504,3.5504,3.5504,3.5504,3.5504,3.4756,3.3679,3.3544,3.2736,3.169,3.1555,3.1511,3.1511,3.1511,3.1511,3.1511,3.1511,3.1511,3.1511,3.1511,3.1511,3.1376,3.0823,3.1107,3.1361,3.0823,3.0645,3.0554,3.0554,3.0011,2.9473,2.9317,2.9411,0.0,0.0,0.0,0.0,0.0,0.0,0.0,0.0,0.0,0.0,0.0,0.0,0.0,0.0,0.0,0.0,0.0,0.0,0.0,0.0,0.0,3.2063,3.115,0.0,2.9864,2.8996,2.8064,2.76,2.76,2.76,2.7315,2.6851,2.7375,2.7225,2.6557,2.6183,2.5555,2.4754,2.4066,2.3819,2.3804,2.3655,2.3595,2.3595,0.0,0.0,0.0,0.0,0.0,0.0,4.4586,4.4347,4.4007,4.3155,4.1471,4.0278,4.0033,3.963,3.9005,3.8189,3.8115,3.7645,3.6507,3.6432,3.6182,3.5624,3.5481,3.5419,3.5359,3.5279,3.5213,0.0,0.0,0.0,0.0,0.0,0.0,0.0,0.0,0.0,0.0,3.5504,3.5504,3.5504,3.5504,3.5504,3.5504,3.5504,3.504,3.4339,3.3709,3.3036,3.2303,3.1705,3.1511,3.1511,3.1511,3.1511,3.1511,3.1511,3.1511,3.1511,3.1511,3.1511,3.1481,3.1421,3.1451,3.1481,3.1421,3.1393,3.138,3.138,3.1322,3.1029,3.0299,3.0777,3.0777,0.0,0.0,0.0,0.0,0.0,0.0,0.0,0.0,0.0,0.0,0.0,0.0,0.0,0.0,0.0,0.0,0.0,0.0,3.2392,0.0,3.2736,3.32,3.0851,2.9894,3.0298,2.8483,2.76,2.76,2.76,2.757,2.751,2.757,2.7225,2.6632,2.7195,2.6647,2.545,2.4769,2.4515,2.4425,2.3819,2.3595,2.3595,0.0,0.0,0.0,0.0,0.0,0.0,0.0,4.3643,4.2761,4.1713,4.0891,4.0247,3.9843,3.9574,3.914,3.8452,3.8033,3.7419,3.6552,3.6118,3.5774,3.5519,3.5504,3.5504,3.5504,3.5504,3.5504,0.0,0.0,0.0,0.0,0.0,0.0,0.0,0.0,3.5504,3.5504,3.5504,3.5504,3.5504,3.5504,3.5504,3.5504,3.5504,3.507,3.4414,3.3724,3.308,3.2392,3.1735,3.1511,3.1511,3.1511,3.1511,3.1511,3.1511,3.1511,3.1511,3.1511,3.1511,3.1406,3.0987,3.1197,3.1391,3.0972,3.1212,3.1511,3.1511,3.1511,3.1409,3.1087,3.1278,3.1278,0.0,0.0,0.0,0.0,0.0,0.0,0.0,0.0,0.0,0.0,0.0,0.0,0.0,0.0,0.0,0.0,0.0,0.0,3.3095,0.0,3.2213,3.2901,3.1061,3.0073,2.9939,2.8742,2.8004,2.76,2.76,2.76,2.757,2.718,2.7091,2.7195,2.7061,2.6437,2.5516,2.4859,2.435,2.3984,2.3699,2.3595,2.3595,4.4661,0.0,4.5574,0.0,4.6052,4.5379,4.4706,4.3369,4.1991,4.0831,4.0352,3.9933,3.9433,3.9388,3.9065,3.8182,3.7674,3.706,3.6252,3.5759,3.5504,3.5504,3.5504,0.0,3.5504,3.5504,3.5504,3.5504,3.5968,0.0,0.0,0.0,0.0,0.0,3.5504,3.5504,3.5504,3.5504,3.5504,3.5504,3.5504,3.5504,3.5504,3.5504,3.5205,3.4728,3.4023,3.3365,3.2706,3.2019,3.166,3.1511,3.1511,3.1511,3.1511,3.1511,3.1511,3.1511,3.1511,3.1511,3.1391,3.0898,3.1137,3.1376,3.0883,3.1152,3.1511,3.1511,3.1511,3.1511,3.1511,3.1511,3.1511,3.1511,0.0,0.0,0.0,0.0,0.0,0.0,0.0,2.8876,2.9277,0.0,0.0,0.0,0.0,0.0,0.0,0.0,0.0,0.0,0.0,0.0,0.0,3.127,3.0283,2.9849,2.919,2.8663,2.8199,2.8378,2.8259,2.7899,2.7784,2.7679,2.7555,2.7091,2.6497,2.5809,2.4933,2.4306,2.3879,2.367,2.3595,2.3595,4.5155,4.5289,4.5723,4.7055,4.6756,4.6082,4.5394,4.3653,4.2171,4.1497,4.0232,3.9388,3.9388,3.9388,3.8871,3.7539,3.7404,3.6866,3.5594,3.5504,3.5504,0.0,0.0,3.5504,3.5504,3.5504,3.5504,3.5504,0.0,0.0,3.6477,0.0,3.6133,3.5504,3.5504,3.5504,3.5504,3.5504,3.5504,3.5504,3.5504,3.5504,3.5504,3.5504,3.5504,3.54,3.4711,3.4038,3.338,3.2721,3.2049,3.1511,3.1511,3.1511,3.1511,3.1511,3.1511,3.1511,3.1511,3.1511,3.1511,3.1496,3.1496,3.1511,3.1496,3.1496,3.1511,3.1511,3.1511,3.1511,3.1511,3.1511,3.1511,3.1511,0.0,0.0,0.0,0.0,0.0,0.0,3.1047,3.0703,2.8801,0.0,0.0,0.0,0.0,0.0,0.0,0.0,0.0,3.3469,3.2841,0.0,3.3484,3.1495,3.0507,3.0477,2.9864,2.9592,2.9606,3.0193,2.9774,2.8667,2.9909,2.9355,2.76,2.7585,2.7195,2.6452,2.5113,2.4605,2.4515,2.3849,2.3595,2.3595,4.4676,4.499,4.5574,4.6471,4.5708,4.4721,4.4062,4.2671,4.1497,4.0801,4.0352,3.9918,3.9433,3.899,3.8542,0.0,3.7285,3.6611,0.0,3.5744,3.5504,3.5504,3.5504,3.5504,3.5504,3.5504,3.5504,3.5504,0.0,0.0,0.0,3.6028,3.5699,3.5504,3.5504,3.5504,3.5504,3.5504,3.5504,3.5504,3.5504,3.5504,3.5504,3.5504,3.5504,3.5415,3.4726,3.4053,3.3395,3.2736,3.2049,3.1511,3.1511,3.1511,3.1511,3.1511,3.1511,3.1511,3.1511,3.1511,3.1511,3.1511,3.1511,3.1511,3.1511,3.1511,3.1511,3.1511,3.1511,3.1511,3.1511,3.1511,3.1511,3.1511,3.1511,0.0,0.0,0.0,0.0,0.0,0.0,2.9295,0.0,3.0539,0.0,0.0,0.0,0.0,0.0,0.0,0.0,0.0,3.3095,0.0,3.3484,3.2422,3.1405,3.0507,3.0313,2.9983,2.9621,2.9789,2.9415,2.8622,2.9026,2.8577,2.76,2.76,2.721,2.6557,2.6123,2.5397,2.4575,2.435,2.3999,2.3595,4.3748,4.4317,4.5065,4.5499,4.508,4.4466,4.3768,4.2581,4.1504,4.0846,4.0561,4.0142,3.9448,3.8796,0.0,3.8048,3.7075,3.6372,3.6133,3.5729,3.5504,3.5504,3.5504,3.5504,3.5504,3.5504,0.0,3.5504,3.5923,3.6118,3.6118,3.5699,3.5504,3.5504,3.5504,3.5504,3.5504,3.5504,3.5504,3.5504,3.5504,3.5504,3.5504,3.5504,3.5504,3.5444,3.5026,3.4277,3.344,3.3021,3.2243,3.1511,3.1511,3.1511,3.1511,3.1511,3.1511,3.1511,3.1511,3.1511,3.1511,3.1511,3.1511,3.1511,3.1511,3.1511,3.1511,3.1511,3.1511,3.1511,3.1511,3.1511,3.1511,3.1511,3.1511,3.1406,3.1152,0.0,0.0,0.0,0.0,0.0,0.0,3.0629,3.157,0.0,0.0,0.0,0.0,0.0,0.0,3.4474,3.344,0.0,3.3499,3.2841,3.1929,3.0896,3.0896,3.0687,3.0313,3.0313,2.9819,2.8966,2.8966,2.8453,2.76,2.76,2.7345,2.6956,2.6692,2.6093,2.5277,2.4784,2.4335,2.3954,4.2635,4.3344,4.4197,0.0,4.4751,0.0,4.4347,4.318,4.2186,4.1572,4.0876,4.0217,3.9559,3.8796,3.8093,3.7524,0.0,0.0,0.0,3.5579,3.5579,3.5579,3.5534,3.5504,3.5504,3.5504,3.5504,3.5504,3.5504,3.5504,3.5504,3.5504,3.5504,3.5504,3.5504,3.5504,3.5504,3.5504,3.5504,3.5504,3.5504,3.5504,3.5504,3.5504,3.5504,3.5504,3.5504,3.4666,3.3559,3.3514,3.2647,3.157,3.1511,3.1511,3.1511,3.1511,3.1511,3.1511,3.1511,3.1511,3.1511,3.1511,3.1511,3.1511,3.1511,3.1511,3.1511,3.1511,3.1511,3.1511,3.1511,3.1511,3.1511,3.1511,3.1511,3.1271,3.0597,0.0,0.0,0.0,0.0,0.0,0.0,3.1107,3.1271,0.0,0.0,0.0,0.0,0.0,3.4503,3.4503,3.3888,3.3559,3.3559,3.2901,3.2198,3.1511,3.1511,3.1511,3.1511,3.1511,3.0793,2.9606,2.9606,2.8843,2.76,2.76,2.76,2.754,2.6926,2.6632,2.6437,2.5187,2.4702,2.456,0.0,0.0,4.2985,4.3439,4.3648,4.3708,4.3544,4.288,4.2336,4.2186,4.1587,4.0905,4.0247,3.8661,3.7778,3.8123,3.7569,3.6926,3.6297,3.6252,3.6252,3.6252,3.5774,3.5504,3.5504,3.5504,3.5504,3.5504,3.5504,3.5504,3.5504,3.5504,3.5504,3.5504,3.5504,3.5504,3.5504,3.5504,3.5504,3.5504,3.5504,3.5504,3.5504,3.5504,3.5504,3.5504,3.5504,3.4966,3.4204,3.3664,3.2961,3.2168,3.166,3.1511,3.1511,3.1511,3.1511,3.1511,3.1511,3.1511,3.1511,3.1511,3.1511,3.1511,3.1511,3.1511,3.1511,3.1511,3.1511,3.1511,3.1511,3.1511,3.1511,3.1511,3.1511,3.1271,3.0597,3.0372,0.0,0.0,3.0088,3.0342,3.0492,3.1107,3.1854,0.0,0.0,0.0,0.0,3.4592,3.4503,3.4503,3.4354,3.4279,3.4279,3.3589,3.2677,3.1511,3.1511,3.1511,3.1511,3.1511,3.0793,2.9606,2.9606,2.8843,2.76,2.76,2.76,2.7585,2.742,2.7061,2.6557,2.6243,2.5742,2.5197,4.1617,4.1752,4.2066,4.2372,4.2955,4.3359,4.329,4.303,4.2701,4.244,4.1826,4.101,4.0053,3.8691,3.7883,3.7943,3.709,3.6522,3.6492,3.6207,3.6028,3.6028,3.5699,3.5504,3.5504,3.5504,3.5504,3.5504,3.5504,3.5504,3.5504,3.5504,3.5504,3.5504,3.5504,3.5504,3.5504,3.5504,3.5504,3.5504,3.5504,3.5504,3.5504,3.5504,3.5504,3.5504,3.5504,3.5055,3.4414,3.3724,3.3051,3.2363,3.1705,3.1511,3.1511,3.1511,3.1511,3.1511,3.1511,3.1511,3.1511,3.1511,3.1511,3.1511,3.1511,3.1256,3.1122,3.1436,3.1256,3.1137,3.1451,3.1511,3.1511,3.1511,3.1511,3.1271,3.0597,3.0507,0.0,3.0477,3.0776,3.1062,3.139,3.1735,3.2123,3.2557,3.2826,0.0,3.4532,3.4816,3.4951,3.4951,3.4951,3.4801,3.4503,3.3529,3.2691,3.1944,3.1645,3.1511,3.1511,3.1511,3.0793,2.9606,2.9606,2.8843,2.7625,2.791,2.786,2.7625,2.791,2.7608,2.7031,2.6692,2.6314,2.591,4.0771,4.0995,4.1422,4.1422,4.2417,4.3225,4.3195,4.314,4.2955,4.2336,4.1587,4.0651,3.9508,3.8631,3.7958,3.7584,3.6297,3.5818,3.6582,3.6103,3.5759,3.5654,3.5549,3.5504,3.5504,3.5504,3.5504,3.5504,3.5504,3.5504,3.5504,3.5504,3.5504,3.5504,3.5504,3.5504,3.5504,3.5504,3.5504,3.5504,3.5504,3.5504,3.5504,3.5504,3.5504,3.5504,3.5504,3.513,3.4548,3.3754,3.3125,3.2527,3.1735,3.1511,3.1511,3.1511,3.1511,3.1511,3.1511,3.1511,3.1511,3.1511,3.1511,3.1511,3.1511,3.1047,3.0821,3.1376,3.1032,3.0808,3.1406,3.1511,3.154,3.163,3.157,3.1301,3.0746,0.0,3.0986,3.1451,3.1675,3.1989,3.2437,3.2512,3.2243,3.169,3.2721,3.344,3.3634,3.4726,3.54,3.5504,3.5504,3.513,3.4369,3.3215,3.2557,3.2333,3.1765,3.1511,3.1511,3.1511,3.0838,2.9714,2.9651,2.8903,2.7785,2.8186,2.8116,2.7785,2.831,2.8189,2.7675,2.7103,2.6808,2.6639,4.1265,4.1347,4.1422,4.1422,4.2051,4.256,4.2545,4.2545,4.2306,4.1662,4.0472,3.9649,3.9403,3.7838,3.718,3.8153,3.6567,3.6013,3.718,3.7165,3.6881,3.6357,3.5804,3.5504,3.5504,3.5504,3.5504,3.5504,3.5504,3.5504,3.5504,3.5504,3.5504,3.5504,3.5504,3.5504,3.5504,3.5504,3.5504,3.5504,3.5504,3.5504,3.5504,3.5504,3.5504,3.5504,3.5504,3.5429,3.516,3.3918,3.3425,3.3125,3.1884,3.1511,3.1511,3.1511,3.1511,3.1511,3.1511,3.1511,3.1511,3.1511,3.1511,3.1511,3.1511,3.1421,3.1376,3.1481,3.1421,3.1376,3.1481,3.1511,3.169,3.2243,3.1869,3.1466,3.1361,0.0,3.2004,3.1555,3.2512,3.3021,3.2527,3.2512,3.2452,3.2333,3.2557,3.3155,3.4294,3.4548,3.4906,3.5489,3.5504,3.4906,3.3664,3.344,3.2781,3.1645,3.1555,3.1511,3.1511,3.1511,3.1077,3.0328,2.9804,2.9172,2.8423,2.7926,2.7968,2.8367,2.8463,2.8439,2.8343,2.8235,2.7796,2.7365,4.0846,4.0561,4.0442,4.0786,4.1437,4.1991,4.2351,4.2671,4.2656,4.2036,4.0771,3.9813,3.9454,3.7659,3.6866,3.7778,3.6746,3.6282,3.6881,3.6582,3.6252,3.5968,3.5669,3.5504,3.5504,3.5504,3.5504,3.5504,3.5504,3.5504,3.5504,3.5504,3.5504,3.5504,3.5504,3.5504,3.5504,3.5504,3.5504,3.5504,3.5504,3.5504,3.5504,3.5504,3.5504,3.5504,3.5504,3.5504,3.531,3.3948,3.3499,3.326,3.1914,3.1511,3.1511,3.1511,3.1511,3.1511,3.1511,3.1511,3.1511,3.1511,3.1511,3.1511,3.1511,3.1212,3.1062,3.1436,3.1212,3.1062,3.1436,3.1795,3.2123,3.2437,3.2557,0.0,0.0,3.2841,3.3066,3.311,3.3335,3.3514,3.3559,3.2931,3.2662,3.3021,3.3036,3.3469,3.4459,3.4831,3.4996,3.4951,3.531,3.5026,3.4038,3.3664,3.3185,3.2587,3.1854,3.1511,3.1511,3.1511,3.1122,3.0477,2.9849,2.9205,2.8573,2.8232,2.8067,2.8091,2.8732,2.8779,2.8535,2.8873,2.8784,2.8507,4.0651,4.0217,3.9993,4.0337,4.0696,4.119,4.2051,4.2432,4.2476,4.2006,4.0891,3.9858,3.905,3.7479,3.6731,3.736,3.6701,3.6387,3.6686,3.5953,3.5504,3.5504,3.5504,3.5504,3.5504,3.5504,3.5504,3.5504,3.5504,3.5504,3.5504,3.5504,3.5504,3.5504,3.5504,3.5504,3.5504,3.5504,3.5504,3.5504,3.5504,3.5504,3.5504,3.5504,3.5504,3.5504,3.5504,3.5504,3.5325,3.4128,3.3619,3.329,3.2093,3.163,3.1511,3.1511,3.1615,3.1705,3.154,3.1615,3.1705,3.154,3.1511,3.1524,3.171,3.136,3.1175,3.1858,3.1442,3.1179,3.1829,3.227,3.2617,3.2916,0.0,0.0,0.0,3.3724,3.3903,3.4444,3.4173,3.4098,3.4474,3.3559,3.311,3.3469,3.3634,3.3948,3.4474,3.513,3.519,3.4533,3.4996,3.5011,3.4518,3.3978,3.3574,3.326,3.2213,3.1645,3.1511,3.1511,3.1212,3.0702,2.9924,2.9295,2.8809,2.8442,2.8091,2.7919,2.8973,2.9111,2.8779,2.9384,2.9518,2.9416,4.1467,4.1265,4.1055,4.0502,3.9933,3.9993,4.1265,4.0965,4.0606,4.0546,3.9933,3.899,3.7704,3.6911,3.6731,3.736,3.6282,3.6073,3.727,3.6193,3.5504,3.5504,3.5504,3.5504,3.5504,3.5504,3.5504,3.5504,3.5504,3.5504,3.5504,3.5504,3.5504,3.5504,3.5504,3.5504,3.5504,3.5504,3.5504,3.5504,3.5504,3.5504,3.5504,3.5504,3.5504,3.5504,3.5504,3.5504,3.5385,3.4651,3.3993,3.3365,3.2662,3.1989,3.1511,3.1511,3.1929,3.2273,3.1675,3.1944,3.2273,3.166,3.1511,3.1697,3.2355,3.2473,3.266,3.3297,3.2928,3.2628,3.3249,3.2892,3.2916,3.4159,0.0,0.0,3.4354,3.4444,3.4459,3.4503,3.4996,3.513,3.4563,3.4414,3.4129,3.3529,3.4099,3.4459,3.4503,3.513,3.519,3.4533,3.4563,3.4563,3.4503,3.4459,3.3784,3.2557,3.2452,3.2093,3.1511,3.1511,3.1481,3.1361,3.0133,2.9577,2.9442,2.8175,2.7968,2.8487,2.9157,2.9361,2.9406,3.0016,2.987,2.9496,4.1467,4.1055,4.0561,3.9903,3.9553,3.9723,4.0636,4.0905,4.116,4.1602,4.1055,4.0292,3.9364,3.7943,3.715,3.7389,3.6252,3.5714,3.6193,3.5774,3.5504,3.5504,3.5504,3.5504,3.5504,3.5504,3.5504,3.5504,3.5504,3.5504,3.5504,3.5504,3.5504,3.5504,3.5504,3.5504,3.5504,3.5504,3.5504,3.5504,3.5504,3.5504,3.5504,3.5504,3.5504,3.5504,3.5504,3.5504,3.5464,3.5247,3.4698,3.4098,3.3936,3.3697,3.3412,3.2982,3.3321,3.3562,3.2483,3.2337,3.2452,3.2168,3.1809,3.1697,3.2437,3.2586,3.2788,3.3469,3.3767,3.3979,3.4189,3.4346,3.4575,3.5095,0.0,3.4831,3.507,3.5115,3.5115,3.5115,3.4966,3.4936,3.51,3.4367,3.4113,3.4696,3.4577,3.4698,3.51,3.4966,3.4936,3.5115,3.4728,3.4724,3.5171,3.4739,3.4468,3.4406,3.3532,3.2991,3.2751,3.2751,3.3004,3.3397,3.201,3.122,3.0814,2.9414,2.8503,2.7993,2.8614,2.9081,2.9473,3.0081,3.0393,3.0539,4.1767,4.116,4.0442,3.9574,3.9065,3.9005,3.9664,4.0337,4.0995,4.1692,4.1752,4.1392,4.0502,3.899,3.7958,3.7734,3.6552,3.5804,3.5804,3.5624,3.5504,3.5504,3.5504,3.5504,3.5504,3.5504,3.5504,3.5504,3.5504,3.5504,3.5504,3.5504,3.5504,3.5504,3.5504,3.5504,3.5504,3.5504,3.5504,3.5504,3.5504,3.5504,3.5504,3.5504,3.5504,3.5504,3.5504,3.5504,3.5544,3.583,3.5423,3.4918,3.5263,3.5203,3.4947,3.4486,3.4793,3.5074,3.4168,3.3901,3.3628,3.2743,3.2522,3.2634,3.3142,3.3608,3.4123,3.4811,3.5159,3.5408,3.5635,3.5828,3.598,3.5901,3.6076,3.6133,3.5863,3.6053,3.6227,3.6227,3.5596,3.5333,3.5785,3.4794,3.4517,3.5429,3.5281,3.5363,3.58,3.5212,3.5056,3.5489,3.4863,3.5094,3.6289,3.5554,3.5447,3.596,3.4995,3.4302,3.3864,3.3864,3.4044,3.425,3.33,3.254,3.1876,3.072,2.9434,2.8282,2.8858,2.9203,2.9496,3.0293,3.0838,3.119,4.253,4.1871,4.0965,3.9649,3.8302,3.7629,3.8287,3.8975,3.9649,4.0322,4.1587,4.1901,4.0561,3.9828,3.9155,3.8452,3.7225,3.6492,3.6477,3.5863,3.5504,3.5504,3.5504,3.5504,3.5504,3.5504,3.5504,3.5504,3.5504,3.5504,3.5504,3.5504,3.5504,3.5504,3.5504,3.5504,3.5504,3.5504,3.5504,3.5504,3.5504,3.5504,3.5504,3.5504,3.5504,3.5504,3.5504,3.5504,3.5619,3.6353,3.6166,3.577,3.6549,3.6348,3.5814,3.5814,3.6284,3.6802,3.6802,3.6802,3.6139,3.3318,3.3682,3.4707,3.4723,3.5789,3.702,3.7752,3.7319,3.7032,3.7696,3.7275,3.6759,3.6643,3.7263,3.7515,3.6722,3.7308,3.7793,3.7793,3.71,3.6615,3.6615,3.5943,3.5504,3.5504,3.6196,3.6615,3.6615,3.5964,3.5585,3.5507,3.4878,3.5585,3.7777,3.6994,3.6664,3.6818,3.6818,3.6089,3.4705,3.4705,3.4282,3.3561,3.3675,3.3305,3.2575,3.1897,3.0823,2.9646,3.0102,2.9951,2.9563,3.0757,3.1207,3.1207,4.267,4.1871,4.0816,3.9005,3.7988,3.7479,3.7674,3.8272,3.9275,4.0876,4.1871,4.2246,4.1856,4.119,4.0142,3.8527,3.7614,3.6746,3.5863,3.5609,3.5504,3.5504,3.5504,3.5504,3.5504,3.5504,3.5504,3.5504,3.5504,3.5504,3.5504,3.5504,3.5504,3.5504,3.5504,3.5504,3.5504,3.5504,3.5504,3.5504,3.5504,3.5504,3.5504,3.5504,3.5504,3.5504,3.5504,3.5831,3.6399,3.7189,3.7326,3.7286,3.8079,3.7844,3.7286,3.7331,3.7463,3.7477,3.6934,3.7173,3.725,3.5892,3.55,3.5589,3.6088,3.6509,3.702,3.7752,3.8132,3.8396,3.8606,3.8424,3.8264,3.8209,3.7991,3.7719,3.7485,3.7661,3.7793,3.7793,3.7602,3.7456,3.7456,3.6722,3.6275,3.6275,3.6477,3.6615,3.6615,3.6955,3.6896,3.6306,3.6075,3.6291,3.6934,3.6722,3.7166,3.8281,3.777,3.7275,3.6867,3.6346,3.6533,3.7243,3.6246,3.578,3.5551,3.3754,3.2205,3.0959,3.0583,3.0265,3.0195,3.1598,3.2064,3.2056,4.3625,4.2614,4.1489,3.9965,3.8637,3.7826,3.7913,3.8426,3.923,4.0442,4.1399,4.2111,4.2366,4.1572,4.0397,3.8916,3.7479,3.6432,3.5923,3.5933,3.5814,3.5504,3.6085,3.6101,3.5504,3.5782,3.5782,3.5504,3.5782,3.5782,3.5504,3.5504,3.5504,3.5504,3.5504,3.5668,3.5958,3.5958,3.6133,3.6399,3.6399,3.6227,3.5958,3.5958,3.575,3.5504,3.5504,3.5975,3.6722,3.7544,3.8209,3.8787,3.9269,3.9123,3.8779,3.8815,3.8799,3.8678,3.8221,3.843,3.8663,3.822,3.759,3.7091,3.7246,3.7709,3.8221,3.8678,3.9106,3.9453,3.9453,3.9403,3.9262,3.8935,3.8789,3.8596,3.8274,3.8513,3.8723,3.8723,3.843,3.8234,3.8234,3.7528,3.7203,3.7496,3.7496,3.7496,3.7496,3.7975,3.7876,3.7084,3.7054,3.7217,3.7496,3.7496,3.7987,3.8908,3.8761,3.8541,3.8218,3.7765,3.7734,3.7986,3.7399,3.6721,3.5952,3.5186,3.3729,3.196,3.205,3.1896,3.1709,3.2541,3.2995,3.319,4.5038,4.3827,4.2758,4.1973,4.0124,3.8732,3.8781,3.9158,3.9421,3.9409,4.0516,4.1587,4.2246,4.125,4.0292,3.9574,3.721,3.5968,3.6447,3.6625,3.6336,3.5537,3.692,3.7041,3.5651,3.6244,3.6306,3.5716,3.6306,3.6275,3.5701,3.5651,3.5587,3.5587,3.5537,3.5926,3.6615,3.6615,3.7054,3.7822,3.7886,3.7447,3.6784,3.6723,3.6288,3.5709,3.5602,3.6086,3.6843,3.7703,3.8941,4.0096,4.0096,4.0096,4.0096,4.0096,4.0096,4.0096,4.0096,4.0096,4.0096,4.0096,3.9605,3.8949,3.8332,3.9184,4.0096,4.0096,4.0096,4.0096,4.0096,4.0096,3.9876,3.9139,3.961,3.9833,3.9113,3.9636,4.0096,4.0096,3.9463,3.9005,3.9005,3.833,3.8149,3.8772,3.8854,3.8908,3.8908,3.8962,3.8663,3.7921,3.7892,3.8206,3.8799,3.8799,3.8881,3.9032,3.9756,3.9731,3.9005,3.8939,3.821,3.7026,3.7566,3.666,3.4904,3.6185,3.5115,3.2796,3.3938,3.4069,3.3587,3.3501,3.3931,3.4387,4.54,4.4875,4.4304,4.3096,4.1992,4.089,3.9726,3.9599,3.9589,3.9406,4.0113,4.0861,4.1557,4.1841,4.1512,4.0292,3.8691,3.7404,3.6552,3.7053,3.6827,3.5552,3.6368,3.6707,3.6368,3.6523,3.6828,3.7294,3.6828,3.6828,3.7294,3.6661,3.6353,3.6337,3.575,3.5926,3.6615,3.6615,3.7054,3.787,3.8427,3.8547,3.8338,3.7716,3.7358,3.7154,3.6584,3.6859,3.7748,3.9146,3.9825,4.0096,4.0096,4.0096,4.0096,4.0096,4.0096,4.0096,4.0096,4.0096,4.0096,4.0096,3.9977,3.9809,3.9682,3.9876,4.0096,4.0096,4.0096,4.0096,4.0096,4.0096,4.0045,3.9876,3.9995,4.0045,3.9859,3.9995,4.0096,4.0096,3.9952,3.9833,3.9833,3.9129,3.8497,3.8064,3.858,3.8908,3.8908,3.9489,3.9463,3.869,3.8663,3.8469,3.8035,3.8035,3.8652,3.9833,4.002,4.002,3.9817,3.9244,3.911,3.9326,3.8304,3.7621,3.71,3.6213,3.5149,3.4049,3.3753,3.3558,3.3506,3.4057,3.4353,3.4472,4.655,4.5797,4.5098,4.4366,4.3331,4.2334,4.1565,4.1086,4.0772,4.0659,4.0596,4.0923,4.1891,4.2101,4.169,4.069,3.904,3.7758,3.7073,3.7437,3.7371,3.6616,3.7658,3.8072,3.77,3.77,3.7716,3.7793,3.7397,3.7174,3.7219,3.6798,3.6615,3.6615,3.6585,3.7025,3.7716,3.8097,3.8719,3.9479,4.0242,4.0111,3.943,3.9023,3.84,3.7707,3.7315,3.7674,3.8513,3.9705,4.0096,4.0096,4.0096,4.0096,4.0096,4.0096,4.0096,4.0096,4.0096,4.0096,4.0096,4.0096,4.0096,4.0096,4.0096,4.0096,4.0096,4.0096,4.0096,4.0096,4.0096,4.0096,4.0096,4.0096,4.0096,4.0096,4.0096,4.0096,4.0096,4.0096,4.0096,4.0096,4.0096,3.9731,3.9305,3.8941,3.9236,3.9463,3.9463,3.9859,3.9901,3.9489,3.9463,3.9305,3.8914,3.8887,3.9305,4.0113,3.9714,3.9516,3.9542,3.9539,3.9368,3.9005,3.8227,3.728,3.6265,3.6197,3.5504,3.4523,3.4878,3.4793,3.4433,3.4489,3.4269,3.4032,4.7833,4.6891,4.6094,4.6031,4.4753,4.37,4.369,4.2839,4.2109,4.1837,4.1173,4.1112,4.2085,4.1953,4.1697,4.1406,3.9559,3.8309,3.8029,3.81,3.8049,3.7822,3.9146,3.9568,3.8908,3.8908,3.8663,3.8177,3.8064,3.7732,3.7188,3.7068,3.6978,3.7008,3.7573,3.8298,3.9139,3.982,4.0594,4.1457,4.2185,4.1762,4.0658,4.0387,3.9576,3.8505,3.8135,3.8486,3.9209,3.9876,4.0096,4.0096,4.0096,4.0096,4.0096,4.0096,4.0096,4.0096,4.0096,4.0096,4.0096,4.0096,4.0096,4.0096,4.0096,4.0096,4.0096,4.0096,4.0096,4.0096,4.0096,4.0096,4.0096,4.0096,4.0096,4.0096,4.0096,4.0096,4.0096,4.0096,4.0096,4.0096,4.0096,4.0096,4.0096,4.0096,4.0096,4.0096,4.0096,4.0096,4.0096,4.0096,4.0096,4.0096,4.0096,3.9952,3.9901,3.9901,3.9236,3.8962,3.9113,3.9664,3.9225,3.8075,3.7821,3.6569,3.4793,3.6062,3.578,3.4624,3.5915,3.5994,3.5312,3.459,3.3931,3.3508,4.8695,4.8661,4.8526,4.8526,4.7289,4.6056,4.5307,4.4019,4.2619,4.1229,4.096,4.0706,4.0245,4.1198,4.2376,4.3558,4.2217,4.0849,3.9669,3.9599,3.9076,3.7838,3.8608,3.9016,3.8908,3.8908,3.9193,3.9799,3.9086,3.9059,3.961,3.8908,3.8591,3.8564,3.8035,3.8618,3.9935,4.0051,4.0877,4.2219,4.2963,4.3118,4.2795,4.1543,4.1325,4.1436,3.9462,3.9262,3.9952,4.007,4.0096,4.0096,4.0096,4.0096,4.0096,4.0096,4.0096,4.0096,4.0096,4.0096,4.0096,4.0096,4.0096,4.0096,4.0096,4.0096,4.0096,4.0096,4.0096,4.0096,4.0096,4.0096,4.0096,4.0096,4.0096,4.0096,4.0096,4.0096,4.0096,4.0096,4.0096,4.0096,4.0096,4.0096,4.0096,4.0096,4.0096,4.0096,4.0096,4.0096,4.0096,4.0096,4.0096,4.0096,4.0096,3.9411,3.9059,3.9059,3.8935,3.9246,3.991,3.9403,3.9039,3.8768,3.7506,3.6366,3.5464,3.5667,3.5267,3.4506,3.4726,3.4726,3.4556,3.3829,3.3491,3.3508,4.8781,4.868,4.8274,4.7834,4.7225,4.638,4.5165,4.4436,4.3756,4.3056,4.2542,4.2254,4.2304,4.323,4.4155,4.4886,4.36,4.2299,4.1317,4.0845,4.0364,3.9737,4.0001,3.9976,3.9584,3.9584,3.974,4.0096,3.9289,3.9086,3.9437,3.9086,3.9139,3.9561,3.966,4.0309,4.1368,4.1787,4.2085,4.2388,4.3589,4.3555,4.2716,4.2064,4.177,4.1492,4.0086,3.9808,4.0096,4.0096,4.0096,4.0096,4.0096,4.0096,4.0096,4.0096,4.0096,4.0096,4.0096,4.0096,4.0096,4.0096,4.0096,4.0096,4.0096,4.0096,4.0096,4.0096,4.0096,4.0096,4.0096,4.0096,4.0096,4.0096,4.0096,4.0096,4.0096,4.0096,4.0096,4.0096,4.0096,4.0096,4.0096,4.0096,4.0096,4.0096,4.0096,4.0096,4.0096,4.0096,4.0096,4.0096,4.0096,4.0096,4.0096,3.9756,3.9584,3.9584,3.9584,3.9516,3.942,3.9564,3.9157,3.8345,3.7702,3.6721,3.56,3.56,3.5397,3.5115,3.5115,3.4861,3.4353,3.3203,3.278,3.2835]}]]